[[{"header":{"parameterUnit":"m.s-1","parameterCategory":1,"la1":30.6,"la2":29.2853,"lo1":-89.7004,"lo2":-87.6739,"dy":0.0162,"dx":0.0183,"nx":112,"ny":82,"refTime":"2026-03-18T12:00:00:Z","depth":0,"parameterNumber":2,"parameterNumberName":"U-component_of_WINDS"},"data":[0.0,0.0,0.0,0.0,0.0,0.0,0.0,0.0,0.0,0.0,0.0,0.0,0.0,0.0,0.0,0.0,0.0,0.0,0.0,0.0,0.0,0.0,0.0,0.0,0.0,0.0,0.0,0.0,0.0,0.0,0.0,0.0,0.0,0.0,0.0,0.0,0.0,0.0,0.0,0.0,0.0,0.0,0.0,0.0,0.0,0.0,0.0,0.0,0.0,0.0,0.0,0.0,0.0,0.0,0.0,0.0,0.0,0.0,0.0,0.0,0.0,0.0,0.0,0.0,0.0,0.0,0.0,0.0,0.0,0.0,0.0,0.0,0.0,0.0,0.0,0.0,0.0,0.0,0.0,0.0,0.0,0.0,0.0,0.0,0.0,0.0,0.0,0.0,0.0,0.0,0.0,-4.2132,-4.5258,-4.7121,-4.7175,-4.5183,-4.2106,-3.7917,0.0,0.0,0.0,0.0,0.0,0.0,0.0,0.0,0.0,0.0,0.0,0.0,0.0,0.0,0.0,0.0,0.0,0.0,0.0,0.0,0.0,0.0,0.0,0.0,0.0,0.0,0.0,0.0,0.0,0.0,0.0,0.0,0.0,0.0,0.0,0.0,0.0,0.0,0.0,0.0,0.0,0.0,0.0,0.0,0.0,0.0,0.0,0.0,0.0,0.0,0.0,0.0,0.0,0.0,0.0,0.0,0.0,0.0,0.0,0.0,0.0,0.0,0.0,0.0,0.0,0.0,0.0,0.0,0.0,0.0,0.0,0.0,0.0,0.0,0.0,0.0,0.0,0.0,0.0,0.0,0.0,0.0,0.0,0.0,0.0,0.0,0.0,0.0,0.0,0.0,0.0,0.0,0.0,0.0,0.0,0.0,0.0,0.0,0.0,0.0,0.0,0.0,0.0,0.0,-3.7054,-4.3325,-4.4992,-4.589,-4.6241,-4.4353,-4.2142,-3.9798,0.0,0.0,0.0,0.0,0.0,0.0,0.0,0.0,0.0,0.0,0.0,0.0,0.0,0.0,0.0,0.0,0.0,0.0,0.0,0.0,0.0,0.0,0.0,0.0,0.0,0.0,0.0,0.0,0.0,0.0,0.0,0.0,0.0,0.0,0.0,0.0,0.0,0.0,0.0,0.0,0.0,0.0,0.0,0.0,0.0,0.0,0.0,0.0,0.0,0.0,0.0,0.0,0.0,0.0,0.0,0.0,0.0,0.0,0.0,0.0,0.0,0.0,0.0,0.0,0.0,0.0,0.0,0.0,0.0,0.0,0.0,0.0,0.0,0.0,0.0,0.0,0.0,0.0,0.0,0.0,0.0,0.0,0.0,0.0,0.0,0.0,0.0,0.0,0.0,0.0,0.0,0.0,0.0,0.0,0.0,0.0,0.0,0.0,0.0,0.0,0.0,0.0,0.0,-3.6817,-3.857,-4.3767,-4.4853,-4.5123,-4.493,-4.3507,-4.1546,-3.9071,-3.583,0.0,0.0,0.0,0.0,0.0,0.0,0.0,0.0,0.0,0.0,0.0,0.0,0.0,0.0,0.0,0.0,0.0,0.0,0.0,0.0,0.0,0.0,0.0,0.0,0.0,0.0,0.0,0.0,0.0,0.0,0.0,0.0,0.0,0.0,0.0,0.0,0.0,0.0,0.0,0.0,0.0,0.0,0.0,0.0,0.0,0.0,0.0,0.0,0.0,0.0,0.0,0.0,0.0,0.0,0.0,0.0,0.0,0.0,0.0,0.0,0.0,0.0,0.0,0.0,0.0,0.0,0.0,0.0,0.0,0.0,0.0,0.0,0.0,0.0,0.0,0.0,0.0,0.0,0.0,0.0,0.0,0.0,0.0,0.0,0.0,0.0,0.0,0.0,0.0,0.0,0.0,0.0,0.0,0.0,0.0,0.0,0.0,0.0,0.0,0.0,0.0,0.0,-3.8929,-4.0577,-4.3546,-4.4468,-4.4562,-4.3759,-4.2511,-4.0646,-3.7928,-3.4682,0.0,0.0,0.0,0.0,0.0,0.0,0.0,0.0,0.0,0.0,0.0,0.0,0.0,0.0,0.0,0.0,0.0,0.0,0.0,0.0,0.0,0.0,0.0,0.0,0.0,0.0,0.0,0.0,0.0,0.0,0.0,0.0,0.0,0.0,0.0,0.0,0.0,0.0,0.0,0.0,0.0,0.0,0.0,0.0,0.0,0.0,0.0,0.0,0.0,0.0,0.0,0.0,0.0,0.0,0.0,0.0,0.0,0.0,0.0,0.0,0.0,0.0,0.0,0.0,0.0,0.0,0.0,0.0,0.0,0.0,0.0,0.0,0.0,0.0,0.0,0.0,0.0,0.0,0.0,0.0,0.0,0.0,0.0,0.0,0.0,0.0,0.0,0.0,0.0,0.0,0.0,0.0,0.0,0.0,0.0,0.0,0.0,0.0,0.0,0.0,0.0,0.0,-3.8631,-4.2136,-4.239,-4.3711,-4.4159,-4.3155,-4.1353,-3.9446,-3.7551,-3.3633,0.0,0.0,0.0,0.0,0.0,0.0,0.0,0.0,0.0,0.0,0.0,0.0,0.0,0.0,0.0,0.0,0.0,0.0,0.0,0.0,0.0,0.0,0.0,0.0,0.0,0.0,0.0,0.0,0.0,0.0,0.0,0.0,0.0,0.0,0.0,0.0,0.0,0.0,0.0,0.0,0.0,0.0,0.0,0.0,0.0,0.0,0.0,0.0,0.0,0.0,0.0,0.0,0.0,0.0,0.0,0.0,0.0,0.0,0.0,0.0,0.0,0.0,0.0,0.0,0.0,0.0,0.0,0.0,0.0,0.0,0.0,0.0,0.0,0.0,0.0,0.0,0.0,0.0,0.0,0.0,0.0,0.0,0.0,0.0,0.0,0.0,0.0,0.0,0.0,0.0,0.0,0.0,0.0,0.0,0.0,0.0,0.0,0.0,0.0,0.0,0.0,0.0,-3.7973,-4.0916,0.0,-4.3322,-4.3261,-4.2522,-4.1278,-3.9295,-3.6357,0.0,0.0,0.0,0.0,0.0,0.0,0.0,0.0,0.0,0.0,0.0,0.0,0.0,0.0,0.0,0.0,0.0,0.0,0.0,0.0,0.0,0.0,0.0,0.0,0.0,0.0,0.0,0.0,0.0,0.0,0.0,0.0,0.0,0.0,0.0,0.0,0.0,0.0,0.0,0.0,0.0,0.0,0.0,0.0,0.0,0.0,0.0,0.0,0.0,0.0,0.0,0.0,0.0,0.0,0.0,0.0,0.0,0.0,0.0,0.0,0.0,0.0,0.0,0.0,0.0,0.0,0.0,0.0,0.0,0.0,0.0,0.0,0.0,0.0,0.0,0.0,0.0,0.0,0.0,0.0,0.0,0.0,0.0,0.0,0.0,0.0,0.0,0.0,0.0,0.0,0.0,0.0,0.0,0.0,0.0,0.0,0.0,0.0,0.0,0.0,0.0,0.0,-3.4415,-3.7463,-4.0202,0.0,-4.2546,-4.2356,-4.1765,-4.0536,-3.8438,-3.5244,0.0,0.0,0.0,0.0,0.0,0.0,0.0,0.0,0.0,0.0,0.0,0.0,0.0,0.0,0.0,0.0,0.0,0.0,0.0,0.0,0.0,0.0,0.0,0.0,0.0,0.0,0.0,0.0,0.0,0.0,0.0,0.0,0.0,0.0,0.0,0.0,0.0,0.0,0.0,0.0,0.0,0.0,0.0,0.0,0.0,0.0,0.0,0.0,0.0,0.0,0.0,0.0,0.0,0.0,0.0,0.0,0.0,0.0,0.0,0.0,0.0,0.0,0.0,0.0,0.0,0.0,0.0,0.0,0.0,0.0,0.0,0.0,0.0,0.0,0.0,0.0,0.0,0.0,0.0,0.0,0.0,0.0,0.0,0.0,0.0,0.0,0.0,0.0,0.0,0.0,0.0,0.0,0.0,0.0,0.0,0.0,0.0,0.0,0.0,0.0,0.0,0.0,-3.2741,-3.7185,-4.0437,-4.0617,-4.1266,-4.1455,-4.0849,-3.8824,-3.6639,0.0,0.0,0.0,0.0,0.0,0.0,0.0,0.0,0.0,0.0,0.0,0.0,0.0,0.0,0.0,0.0,0.0,0.0,0.0,0.0,0.0,0.0,0.0,0.0,0.0,0.0,0.0,0.0,0.0,0.0,0.0,0.0,0.0,0.0,0.0,0.0,0.0,0.0,0.0,0.0,0.0,0.0,0.0,0.0,0.0,0.0,0.0,0.0,0.0,0.0,0.0,0.0,0.0,0.0,0.0,0.0,0.0,0.0,0.0,0.0,0.0,0.0,0.0,0.0,0.0,0.0,0.0,0.0,0.0,0.0,0.0,0.0,0.0,0.0,0.0,0.0,0.0,0.0,0.0,0.0,0.0,0.0,0.0,0.0,0.0,0.0,0.0,0.0,0.0,0.0,0.0,0.0,0.0,0.0,0.0,0.0,0.0,0.0,0.0,0.0,0.0,0.0,0.0,-3.2994,-3.7502,-4.0692,-4.0745,-4.0946,-4.1033,-4.0939,-3.9396,-3.7074,-3.3862,0.0,0.0,0.0,0.0,0.0,0.0,0.0,0.0,0.0,0.0,0.0,0.0,0.0,0.0,0.0,0.0,0.0,0.0,0.0,0.0,0.0,0.0,0.0,0.0,0.0,0.0,0.0,0.0,0.0,0.0,0.0,0.0,0.0,0.0,0.0,0.0,0.0,0.0,0.0,0.0,0.0,0.0,0.0,0.0,0.0,0.0,0.0,0.0,0.0,0.0,0.0,0.0,0.0,0.0,0.0,0.0,0.0,0.0,0.0,0.0,0.0,0.0,0.0,0.0,0.0,0.0,0.0,0.0,0.0,0.0,0.0,0.0,0.0,0.0,0.0,0.0,0.0,0.0,0.0,0.0,0.0,0.0,0.0,0.0,0.0,0.0,0.0,0.0,0.0,0.0,0.0,0.0,0.0,0.0,0.0,0.0,0.0,0.0,0.0,0.0,0.0,0.0,-3.3098,-3.735,-4.04,-4.0469,-4.0452,-4.0522,-4.0609,-3.9278,-3.7118,-3.4032,0.0,0.0,0.0,0.0,0.0,0.0,0.0,0.0,0.0,0.0,0.0,0.0,0.0,0.0,0.0,0.0,0.0,0.0,0.0,0.0,0.0,0.0,0.0,0.0,0.0,0.0,0.0,0.0,0.0,0.0,0.0,0.0,0.0,0.0,0.0,0.0,0.0,0.0,0.0,0.0,0.0,0.0,0.0,0.0,0.0,0.0,0.0,0.0,0.0,0.0,0.0,0.0,0.0,0.0,0.0,0.0,0.0,0.0,0.0,0.0,0.0,0.0,0.0,0.0,0.0,0.0,0.0,0.0,0.0,0.0,0.0,0.0,0.0,0.0,0.0,0.0,0.0,0.0,0.0,0.0,0.0,0.0,0.0,0.0,0.0,0.0,0.0,0.0,0.0,0.0,0.0,0.0,0.0,0.0,0.0,0.0,0.0,0.0,0.0,0.0,0.0,0.0,-3.3141,-3.6947,-3.9714,-3.9884,-3.9901,-3.9986,-4.007,-3.8802,-3.7009,-3.4641,0.0,0.0,0.0,0.0,0.0,0.0,0.0,0.0,0.0,0.0,0.0,0.0,0.0,0.0,0.0,0.0,0.0,0.0,0.0,0.0,0.0,0.0,0.0,0.0,0.0,0.0,0.0,0.0,0.0,0.0,0.0,0.0,0.0,0.0,0.0,0.0,0.0,0.0,0.0,0.0,0.0,0.0,0.0,0.0,0.0,0.0,0.0,0.0,0.0,0.0,0.0,0.0,0.0,0.0,0.0,0.0,0.0,0.0,0.0,0.0,-3.9227,0.0,0.0,0.0,0.0,0.0,0.0,0.0,0.0,0.0,0.0,0.0,0.0,0.0,0.0,0.0,0.0,0.0,0.0,0.0,0.0,0.0,0.0,0.0,0.0,0.0,0.0,0.0,0.0,0.0,0.0,0.0,0.0,0.0,0.0,0.0,0.0,0.0,0.0,0.0,0.0,0.0,-3.3254,-3.673,-3.9395,-3.9969,-4.0037,-4.0087,-4.007,-3.9276,-3.7533,-3.4675,-3.3032,0.0,0.0,0.0,0.0,0.0,0.0,0.0,0.0,0.0,0.0,0.0,0.0,0.0,0.0,0.0,0.0,0.0,0.0,0.0,0.0,0.0,0.0,0.0,0.0,0.0,0.0,0.0,0.0,0.0,0.0,0.0,0.0,0.0,0.0,0.0,0.0,0.0,0.0,0.0,0.0,0.0,0.0,0.0,0.0,0.0,0.0,0.0,0.0,0.0,0.0,0.0,0.0,0.0,0.0,0.0,0.0,0.0,0.0,0.0,0.0,-4.0075,0.0,0.0,0.0,0.0,0.0,0.0,0.0,0.0,0.0,0.0,0.0,0.0,0.0,0.0,0.0,0.0,0.0,0.0,0.0,0.0,0.0,0.0,0.0,0.0,0.0,0.0,0.0,0.0,0.0,0.0,0.0,0.0,0.0,0.0,0.0,0.0,0.0,0.0,0.0,0.0,-3.3322,-3.6671,-3.9276,-4.0003,-4.007,-4.007,-3.9986,-3.9328,-3.7896,-3.5559,-3.351,0.0,0.0,0.0,0.0,0.0,0.0,0.0,0.0,0.0,0.0,0.0,0.0,0.0,0.0,0.0,0.0,0.0,0.0,0.0,0.0,0.0,0.0,0.0,0.0,0.0,0.0,0.0,0.0,0.0,0.0,0.0,0.0,0.0,0.0,0.0,0.0,0.0,0.0,0.0,0.0,0.0,0.0,0.0,0.0,0.0,0.0,0.0,0.0,0.0,0.0,0.0,0.0,0.0,-4.5398,-4.6194,-4.7186,-4.7351,-4.7794,-4.8218,-4.4327,-4.254,-4.2296,0.0,0.0,0.0,0.0,0.0,0.0,0.0,0.0,0.0,0.0,0.0,0.0,0.0,0.0,0.0,0.0,0.0,0.0,0.0,0.0,0.0,0.0,0.0,0.0,0.0,-3.6011,-3.5351,0.0,0.0,0.0,0.0,0.0,0.0,0.0,0.0,0.0,0.0,0.0,0.0,-3.3508,-3.6755,-3.9276,-4.0003,-4.0087,-4.0037,-3.9901,-3.9295,-3.8221,-3.6536,-3.4124,-3.1495,0.0,0.0,0.0,0.0,0.0,0.0,0.0,0.0,0.0,0.0,0.0,0.0,0.0,0.0,0.0,0.0,0.0,0.0,0.0,0.0,0.0,0.0,0.0,0.0,0.0,0.0,0.0,0.0,0.0,0.0,0.0,0.0,-3.6509,-3.7426,0.0,0.0,0.0,0.0,0.0,0.0,0.0,0.0,0.0,0.0,0.0,0.0,0.0,0.0,-4.6261,-4.8194,-4.8934,-4.8478,-5.1009,-5.1968,-5.1486,-5.2048,-5.227,-5.2187,-5.0598,0.0,-4.6158,-4.3742,0.0,0.0,0.0,0.0,0.0,0.0,0.0,0.0,0.0,0.0,0.0,0.0,0.0,0.0,0.0,0.0,0.0,0.0,0.0,0.0,0.0,0.0,-3.8261,-3.7736,-3.7695,-3.7623,0.0,-3.4523,-3.2002,-3.1089,0.0,0.0,0.0,0.0,0.0,0.0,0.0,0.0,-3.4252,-3.706,-3.9226,-3.9868,-3.9952,-3.9884,-3.9729,-3.9645,-3.8685,-3.6612,-3.5005,-3.3048,-3.0622,-2.7887,0.0,0.0,0.0,0.0,0.0,0.0,0.0,0.0,0.0,0.0,0.0,0.0,0.0,0.0,0.0,0.0,0.0,0.0,0.0,0.0,0.0,0.0,0.0,0.0,0.0,0.0,0.0,0.0,0.0,-3.6469,-3.8276,-3.9118,-3.9559,-3.9388,0.0,0.0,0.0,0.0,0.0,0.0,0.0,0.0,0.0,-4.7105,-4.7977,-4.892,-5.0033,-5.1343,-5.2141,-5.2382,-5.3678,-5.406,-5.3665,-5.4455,-5.4525,-5.3957,-5.3785,-5.2462,-5.0149,-4.6898,-4.4581,-4.2878,0.0,0.0,0.0,0.0,0.0,-3.8948,-3.9749,0.0,0.0,0.0,0.0,0.0,0.0,0.0,0.0,0.0,0.0,0.0,0.0,0.0,0.0,-3.9106,-3.9221,-3.9319,-3.9172,-3.7564,-3.5677,0.0,-3.3152,-3.1952,-2.9516,0.0,0.0,0.0,0.0,0.0,-3.474,-3.7143,-3.9026,-3.9714,-3.9781,-3.9556,-3.9082,-3.9345,-3.8669,-3.6509,-3.5166,-3.3427,-3.128,-2.8541,-2.6531,0.0,0.0,0.0,0.0,0.0,0.0,0.0,0.0,0.0,0.0,0.0,0.0,0.0,0.0,0.0,0.0,0.0,0.0,0.0,0.0,0.0,0.0,0.0,0.0,0.0,0.0,0.0,0.0,-3.8642,-4.0336,-4.0987,-4.1604,-4.1186,0.0,0.0,0.0,0.0,0.0,0.0,-4.6125,-4.6668,-4.7972,-5.0284,-5.1146,-5.2158,-5.3419,-5.4137,-5.484,-5.5569,-5.5754,-5.5806,-5.5683,-5.6353,-5.6274,-5.5594,-5.5765,-5.5074,-5.3569,-4.9996,-4.7235,-4.517,-4.44,-4.3045,-4.1669,-4.2772,-4.2315,-4.144,-4.272,-4.2362,-4.1143,-4.0368,0.0,-3.7098,-3.5882,0.0,0.0,0.0,0.0,-3.7403,-3.799,0.0,-3.9576,-4.0052,-4.0288,-4.0355,-4.0188,-3.9814,-3.8877,0.0,-3.5938,-3.4735,-3.1708,0.0,0.0,0.0,0.0,-3.4611,-3.5408,-3.7319,-3.8835,-3.9332,-3.9259,-3.892,-3.8278,-3.8537,-3.7936,-3.62,-3.4864,-3.3435,-3.1732,-2.9229,-2.738,-2.6393,0.0,0.0,0.0,0.0,0.0,0.0,0.0,0.0,0.0,0.0,0.0,0.0,0.0,0.0,0.0,0.0,0.0,0.0,0.0,0.0,0.0,0.0,0.0,0.0,0.0,0.0,0.0,0.0,0.0,-4.2857,-4.4844,0.0,0.0,0.0,0.0,-4.517,-4.6033,-4.7463,-4.9619,-5.1254,-5.2624,-5.3701,-5.4522,-5.5266,-5.5921,-5.6696,-5.7223,-5.7398,-5.8159,-5.8429,-5.8283,-5.8183,-5.805,-5.7976,-5.6841,-5.6317,-5.596,-5.268,-5.0232,-4.8586,-4.779,-4.7391,-4.7199,-4.6748,-4.5952,-4.5039,-4.4428,-4.363,-4.2842,-4.2621,-4.0571,-3.8088,-3.7391,-3.601,0.0,0.0,-3.6871,-3.8024,-3.8751,-3.9595,-4.0254,-4.0288,-4.0502,-4.06,-4.0355,-4.037,-3.9924,0.0,-3.6803,-3.5555,-3.4324,0.0,-3.3929,-3.2931,-3.5375,-3.7082,-3.643,-3.773,-3.8657,-3.8557,-3.8051,-3.7648,-3.7488,-3.6869,-3.6243,-3.5488,-3.4253,-3.3211,-3.2481,-2.9924,-2.8517,-2.8457,-2.5255,0.0,0.0,0.0,0.0,0.0,0.0,0.0,0.0,0.0,0.0,0.0,0.0,0.0,0.0,0.0,0.0,0.0,0.0,0.0,0.0,0.0,0.0,0.0,0.0,0.0,0.0,0.0,0.0,-4.5494,-4.7277,0.0,-4.6416,-4.7069,-4.7895,-4.8661,-5.0065,-5.1503,-5.2949,-5.4135,-5.5187,-5.6195,-5.653,-5.7029,-5.7784,-5.8081,-5.8211,-5.8289,-5.8568,-5.8378,-5.7733,-5.8116,-5.801,-5.7442,-5.7419,-5.706,-5.6447,-5.5158,-5.3281,-5.1086,-4.9764,-4.8702,-4.7913,-4.8258,-4.7364,-4.61,-4.6341,-4.5363,-4.3895,-4.2995,-4.2039,-4.1214,-4.112,-4.0672,-4.0246,-4.0426,-4.0857,-4.117,-4.124,-4.1631,-4.1835,-4.0968,-4.0951,-4.0916,-4.0087,-4.0037,-3.9885,-3.9211,-3.84,-3.7303,-3.5823,-3.5652,-3.5354,-3.4435,-3.5652,-3.6853,-3.7486,-3.8027,-3.855,-3.8974,-3.8423,-3.7703,-3.6854,-3.6527,-3.579,-3.4258,-3.3376,-3.2583,-3.1884,-2.9774,-2.8397,-2.7949,-2.6348,-2.4881,0.0,0.0,0.0,0.0,0.0,0.0,0.0,0.0,0.0,0.0,0.0,0.0,0.0,0.0,0.0,0.0,0.0,0.0,0.0,0.0,0.0,0.0,0.0,0.0,0.0,0.0,-4.694,-4.7805,-4.983,-5.0702,-4.9566,-5.0721,-5.174,-5.2216,-5.3539,-5.4798,-5.592,-5.6431,-5.7035,-5.7862,-5.7899,-5.8159,-5.8698,-5.8716,-5.8716,-5.8716,-5.8716,-5.8336,-5.769,-5.8178,-5.801,-5.7334,-5.7822,-5.7639,-5.6969,-5.6601,-5.5257,-5.3289,-5.1874,-5.044,-4.9251,-4.9572,-4.8714,-4.7358,-4.7579,-4.6563,-4.4984,-4.3885,-4.346,-4.3356,-4.3183,-4.3114,-4.3114,-4.303,-4.298,-4.2877,-4.2688,-4.2552,-4.2245,-4.1357,-4.1052,-4.0731,-3.9933,-3.9849,-3.9849,-3.9694,-3.9395,-3.8857,-3.7602,-3.7418,-3.7118,-3.6206,-3.6357,-3.6818,-3.7439,-3.7187,-3.7177,-3.7929,-3.7412,-3.6699,-3.5848,-3.5323,-3.4537,-3.3246,-3.2148,-3.1338,-3.0881,-2.919,-2.7934,-2.726,-2.6378,-2.5166,-2.3595,0.0,0.0,0.0,0.0,0.0,0.0,0.0,0.0,0.0,0.0,0.0,0.0,0.0,0.0,0.0,0.0,0.0,0.0,0.0,0.0,0.0,0.0,0.0,-4.2022,-4.5819,-4.8851,-4.9761,-5.2624,-5.3937,-5.2445,-5.434,-5.5714,-5.5797,-5.6275,-5.7149,-5.8451,-5.8229,-5.824,-5.8679,-5.8716,-5.8716,-5.8716,-5.8716,-5.8716,-5.8716,-5.8716,-5.859,-5.8393,-5.8393,-5.8242,-5.7997,-5.7997,-5.795,-5.7737,-5.6914,-5.6063,-5.5075,-5.4059,-5.2798,-5.15,-5.0894,-5.008,-4.909,-4.8048,-4.7107,-4.6206,-4.5451,-4.4819,-4.4182,-4.3322,-4.3048,-4.3048,-4.3048,-4.2963,-4.286,-4.2826,-4.2142,-4.1444,-4.1393,-4.0731,-4.0054,-3.9901,-3.9901,-3.9798,-3.9537,-3.9781,-3.9935,-3.9537,-3.959,-3.9339,-3.8396,-3.7707,0.0,-3.6324,-3.514,-3.4642,-3.5336,-3.4834,-3.4505,-3.4505,-3.326,-3.2497,-3.2482,-3.0642,-2.9549,-2.9549,-2.8263,-2.7245,-2.6602,-2.5315,-2.4313,-2.3625,0.0,0.0,0.0,0.0,0.0,0.0,0.0,0.0,0.0,0.0,0.0,0.0,0.0,0.0,0.0,0.0,0.0,0.0,0.0,0.0,0.0,0.0,-4.4582,-4.4809,-4.8512,-5.1749,-5.3172,-5.571,-5.7158,-5.6656,-5.7189,-5.7708,-5.8049,-5.8219,-5.8509,-5.8982,-5.8914,-5.8839,-5.8698,-5.8716,-5.8716,-5.8716,-5.8716,-5.8716,-5.8716,-5.8614,-5.8529,-5.8486,-5.8331,-5.8197,-5.8152,-5.8042,-5.7997,-5.7895,-5.6978,-5.6127,-5.5204,-5.3654,-5.2324,-5.1225,-5.0399,-4.9849,-4.9279,-4.85,-4.7672,-4.6828,-4.6224,-4.5522,-4.4956,-4.4767,-4.4751,-4.4751,-4.4751,-4.4698,-4.4473,-4.3661,-4.3337,-4.2788,-4.1177,-4.0704,-4.0419,-3.9637,-3.9484,-3.9432,-3.9379,-3.9415,-3.9468,-3.9379,-3.9379,-3.9312,-3.906,0.0,0.0,-3.694,-3.5418,-3.4628,-3.532,-3.4837,-3.4422,-3.4422,-3.3261,-3.2302,0.0,-2.9953,-2.8861,-2.8861,-2.7575,-2.6782,-2.6587,-2.5764,-2.5016,0.0,0.0,0.0,0.0,0.0,0.0,0.0,0.0,0.0,0.0,0.0,0.0,0.0,0.0,0.0,0.0,0.0,0.0,0.0,0.0,0.0,0.0,-4.5207,-4.8025,-4.9465,-5.1823,-5.3983,-5.559,-5.7736,-5.9128,-5.9374,-5.9235,-5.923,-5.951,-5.925,-5.9124,-5.9178,-5.9083,-5.8887,-5.8716,-5.8716,-5.8716,-5.8716,-5.8716,-5.8716,-5.8716,-5.8553,-5.8468,-5.8443,-5.8286,-5.8152,0.0,-5.8042,-5.7813,-5.7464,-5.6896,-5.6035,0.0,0.0,0.0,0.0,0.0,-4.9721,-4.9538,-4.9186,-4.8517,-4.7746,-4.7086,-4.6402,-4.5731,-4.5474,-4.5423,-4.5302,-4.4869,-4.4783,-4.4489,-4.3401,-4.287,-4.2306,-4.0966,-4.0425,-4.0037,-3.9425,-3.9272,-3.9272,-3.9272,0.0,0.0,-3.8825,-3.8825,-3.8825,-3.8825,-3.6873,-3.5583,0.0,-3.4329,-3.3382,-3.412,-3.3851,-3.3617,-3.3617,-3.2688,0.0,0.0,0.0,-2.8353,-2.7784,-2.6737,0.0,0.0,0.0,0.0,0.0,0.0,0.0,0.0,-2.4251,-2.3603,0.0,0.0,0.0,0.0,0.0,0.0,0.0,0.0,0.0,0.0,0.0,0.0,0.0,0.0,0.0,0.0,-4.8457,-5.1271,-5.4339,-5.5113,-5.5904,-5.7403,-5.899,-6.0191,-6.0803,-6.0514,-6.0274,-6.0189,-5.9587,-5.9178,-5.914,0.0,0.0,0.0,0.0,-5.8716,-5.8716,-5.8716,-5.8716,-5.8716,-5.8572,-5.8443,-5.8393,-5.826,-5.8088,-5.7997,-5.7905,-5.7464,-5.6804,-5.6602,-5.553,-5.3946,-5.2933,-5.1862,-5.0788,-4.9924,-4.9639,0.0,0.0,0.0,0.0,-4.8062,-4.7286,-4.6475,-4.5768,-4.5388,-4.5042,-4.4144,-4.3835,-4.3473,-4.2426,-4.1485,-4.0785,-4.0648,-3.9934,-3.9272,-3.9272,-3.9206,-3.9156,-3.9156,-3.8576,-3.8096,-3.8096,-3.8096,-3.8027,-3.7959,-3.5873,0.0,-3.4187,-3.2629,-3.1764,-3.2332,0.0,0.0,-3.2497,-3.1973,-3.1556,-3.1482,-2.9759,-2.8143,-2.6871,-2.6333,-2.6019,-2.5944,-2.6512,-2.7111,-2.7679,-2.8308,-2.8637,-2.8652,-2.5471,-2.4419,0.0,0.0,0.0,0.0,0.0,0.0,0.0,0.0,0.0,0.0,0.0,0.0,0.0,0.0,0.0,-4.7127,-5.0371,-5.2972,-5.3955,-5.6384,-5.8381,-5.9293,-6.0298,-6.0809,-6.0517,-6.0412,-6.0122,-5.9465,-5.927,-5.9083,-5.8803,-5.8739,0.0,-5.8716,-5.8716,-5.8716,-5.8716,-5.8716,-5.8716,-5.8716,0.0,0.0,-5.8393,-5.8152,-5.8042,-5.796,-5.7317,-5.695,-5.6712,-5.5409,-5.365,-5.1756,-5.1124,-5.008,-4.8907,-4.8955,-4.9384,-4.9935,-5.0011,-4.9493,-4.8803,-4.8648,-4.77,-4.6579,-4.6424,-4.5333,0.0,-4.3938,-4.3284,-4.2356,-4.1348,-4.0956,-4.0615,-3.9764,-3.9425,-3.9272,-3.9272,-3.8825,-3.8411,-3.8411,-3.7831,-3.7317,-3.7317,-3.7317,-3.7147,-3.6649,-3.5268,-3.4132,-3.3737,-3.2376,-3.1526,-3.1704,-3.1719,-3.1943,-3.2467,-3.2392,-3.2093,-3.1511,-3.0178,-2.9041,-2.8248,-2.8607,-2.8562,-2.8023,-2.8143,-2.8278,-2.8412,-2.8532,-2.8876,-2.9355,-2.7496,-2.6475,0.0,0.0,0.0,0.0,0.0,0.0,0.0,0.0,0.0,0.0,0.0,-4.0682,-4.1967,0.0,-4.7798,-4.9422,-5.1947,-5.4084,-5.5145,-5.6684,-5.7947,-5.8668,-6.0112,-6.0803,-6.0198,-6.0025,-5.9728,-5.9233,-5.9045,-5.8865,-5.8698,-5.8716,-5.8716,-5.8716,-5.8716,-5.8716,-5.8716,-5.8716,-5.8716,-5.8716,-5.8529,-5.8418,-5.8375,-5.7773,-5.7455,-5.7354,-5.6547,-5.5978,-5.55,-5.4008,-5.2155,-5.0214,-4.967,-4.9288,-4.8978,-4.8834,-4.9321,-5.0011,-5.0011,-4.9752,-4.9355,-4.8959,-4.8062,-4.7027,-4.6251,-4.5245,-4.4175,-4.2926,-4.2323,-4.1802,-4.0391,-4.0054,-3.9917,-3.9408,-3.9272,-3.9272,-3.9272,-3.8709,-3.8212,-3.8212,-3.7317,-3.6439,-3.6153,-3.5824,-3.5591,-3.5626,-3.434,-3.3263,-3.2962,-3.2122,-3.1482,-3.1482,-3.1482,-3.1616,-3.2003,-3.2018,-3.1734,-3.1061,-3.0402,-2.9759,-2.9116,-2.94,-2.943,-2.9101,-2.94,-2.9549,-2.9549,-2.9894,-3.0,-2.9927,-2.8827,-2.809,0.0,0.0,0.0,0.0,0.0,0.0,0.0,0.0,-3.8479,-4.013,-4.1628,-4.3101,-4.465,-4.7444,-4.9988,-5.1472,-5.3164,-5.4757,-5.6085,-5.646,-5.6754,-5.7168,-5.9191,-6.0359,-5.9893,-5.962,-5.9397,-5.9103,-5.8865,-5.8716,-5.8716,-5.8716,-5.8716,-5.8716,-5.8716,-5.8716,-5.8716,-5.8716,-5.8716,-5.8716,-5.8553,-5.8351,-5.8134,-5.7357,-5.682,-5.6528,-5.5721,-5.4851,-5.3913,-5.2835,-5.1304,-4.9528,-4.8796,-4.8907,-4.9342,-4.8661,-4.8976,-4.9769,-4.9769,-4.9873,-4.9907,-4.9252,-4.8355,-4.7269,-4.5973,-4.4952,-4.3863,-4.1899,-4.1345,-4.1092,-3.986,-3.9388,-3.9272,-3.9272,-3.9272,-3.9239,-3.9106,-3.851,-3.7945,-3.7824,-3.6636,-3.5464,-3.4985,-3.4282,-3.3957,-3.4503,-3.3325,-3.2342,-3.2231,-3.1796,-3.1482,-3.1482,-3.1482,-3.1526,-3.1661,-3.1541,-3.136,-3.0911,-3.0776,-3.0477,-2.9983,-2.9968,-2.9968,-2.9968,-3.0447,-3.0702,-3.0717,-3.114,-3.1087,-3.0389,-2.9594,-2.9018,-3.4178,-3.4061,-3.4863,-3.7127,-3.7694,-3.8843,0.0,0.0,-4.3452,-4.5071,-4.6068,-4.6902,-4.7756,-4.9587,-5.1233,-5.2,-5.3745,-5.4922,-5.4755,-5.5824,-5.6408,-5.589,-5.7844,-5.93,-5.9498,-5.9458,-5.9232,-5.8803,-5.8698,-5.8716,-5.8716,-5.8716,-5.8716,-5.8716,-5.8716,-5.8716,-5.8716,-5.8716,-5.8716,-5.8716,-5.8553,-5.8073,-5.734,-5.7099,-5.6551,-5.5684,-5.4876,-5.3833,-5.2626,-5.2444,-5.171,-5.0506,-4.9082,-4.866,-4.8705,-4.7338,-4.7751,-4.8959,-4.8959,-4.9407,-4.9993,-4.9907,-4.8441,-4.6645,-4.6254,-4.4,-4.1627,-4.1782,-4.0758,-3.969,-4.0188,-3.9769,-3.9272,-3.9272,-3.9272,-3.9106,-3.846,-3.7748,-3.7065,-3.6462,-3.5221,-3.4307,-3.4324,-3.338,-3.2633,-3.271,-3.2539,-3.2231,-3.1697,-3.1524,-3.1482,-3.1482,-3.1482,-3.1764,-3.2362,-3.1869,-3.1749,-3.2258,-3.1749,-3.139,-3.1315,-3.1315,-3.1315,-3.1315,-3.1317,-3.1362,-3.1362,-3.1175,-3.1029,-3.0896,-2.9628,-2.8707,-3.7986,-3.8005,0.0,0.0,-4.0372,-4.1762,-4.3289,-4.3251,-4.3464,-4.5647,-4.6327,-4.6909,-4.8126,-4.9816,-5.1261,0.0,-5.3237,-5.4175,-5.4463,-5.4969,-5.5397,-5.5589,-5.6823,-5.789,-5.8463,-5.8989,-5.9102,-5.8739,-5.8716,-5.8716,-5.8716,-5.8716,-5.8716,-5.8716,-5.8716,-5.8716,-5.8716,-5.8716,-5.8475,-5.8011,-5.7951,-5.7399,-5.6436,-5.5913,-5.5122,-5.4179,-5.3849,-5.3371,-5.2806,-5.2203,-5.1115,-4.9776,-4.854,-4.7555,-4.682,-4.6665,-4.7545,-4.8821,-4.8821,-4.9338,-4.9924,-4.9459,-4.8096,-4.6387,-4.5189,-4.3452,-4.1659,-4.0855,-4.0321,-3.9984,-4.0299,-3.9835,-3.9388,-3.9818,-3.9587,-3.9073,-3.8361,-3.7632,-3.6818,-3.5691,-3.502,-3.4326,-3.331,-3.3073,-3.2732,-3.197,-3.1853,-3.1811,-3.1524,-3.1482,-3.1482,-3.1482,-3.1482,-3.1586,-3.1855,-3.1631,-3.1601,-3.1928,-3.1689,-3.1482,-3.1482,-3.1482,-3.1482,-3.1482,-3.1482,-3.1482,-3.1482,-3.1161,-3.0773,-3.029,-2.9309,-2.8435,-3.9825,0.0,0.0,-4.0837,-4.2352,-4.3646,-4.3137,-4.3107,-4.3698,-4.5545,-4.6137,-4.6694,-4.802,-4.9539,-5.0889,-5.1939,-5.2774,-5.3583,-5.4392,-5.4458,-5.4615,-5.5216,-5.5934,-5.6705,-5.7397,-5.8463,-5.9001,-5.8698,-5.8716,-5.8716,-5.8716,-5.8716,-5.8605,-5.8382,-5.8382,-5.8271,-5.8048,-5.8048,-5.7751,-5.7175,-5.7175,-5.6607,-5.5609,-5.4737,-5.3889,-5.3206,-5.3206,-5.3017,-5.2717,-5.1915,-5.0649,-4.9056,-4.808,-4.6906,-4.5786,-4.6148,-4.7096,-4.8217,-4.8217,-4.8717,-4.9269,-4.8569,-4.7365,-4.5866,-4.419,-4.285,-4.1603,-4.028,-3.9964,-4.0166,-4.0564,-4.0117,-3.9719,-4.0249,-3.9967,-3.9272,-3.8146,-3.7483,-3.6719,-3.5354,-3.4897,-3.4361,-3.315,-3.3027,-3.2859,-3.1927,-3.1644,-3.1482,-3.1482,-3.1482,-3.1482,-3.1482,-3.1482,-3.1482,-3.1482,-3.1482,-3.1482,-3.1482,-3.1482,-3.1482,-3.1482,-3.1482,-3.1467,-3.1351,-3.1467,-3.1409,-3.1234,-3.0953,-3.0411,-2.9665,-2.8885,-2.8065,0.0,0.0,-4.0482,-4.2042,-4.2985,-4.3686,-4.4388,-4.5132,-4.5688,-4.5707,-4.644,-4.7297,-4.8074,-4.9058,-5.0248,-5.1845,-5.2774,-5.3583,-5.4392,-5.4458,-5.4409,-5.4428,-5.516,-5.588,0.0,-5.8029,-5.8859,-5.8716,-5.8716,-5.8716,-5.8716,-5.8716,-5.8345,-5.7565,-5.7546,-5.7156,-5.6376,-5.6376,-5.6357,-5.6339,-5.6339,-5.5813,-5.4877,-5.3824,-5.3272,-5.3206,-5.3206,-5.2608,-5.1669,-5.1601,-5.0524,-4.8774,-4.7993,-4.7251,-4.6475,-4.5734,-4.5975,-4.6682,-4.6682,-4.7165,-4.7713,-4.7347,-4.6264,-4.4804,-4.3457,-4.2009,-4.0762,-4.0458,-3.9889,-3.9636,-4.1028,-4.0862,-4.0348,-4.0365,-4.0365,-3.9752,-3.7599,-3.7119,-3.6651,-3.5302,-3.458,-3.4242,-3.4241,-3.3288,-3.2512,-3.2482,-3.1943,-3.1482,-3.1482,-3.1482,-3.1482,-3.1482,-3.1482,-3.1482,-3.1482,-3.1482,-3.1482,-3.1482,-3.1482,-3.1482,-3.1482,-3.1482,-3.1351,-3.1029,-3.1351,-3.1234,-3.0642,-3.0438,-2.9981,-2.9275,-2.8262,-2.7636,0.0,0.0,-4.1261,-4.2791,-4.37,-4.4267,-4.4495,-4.473,-4.5087,-4.5585,-4.6073,-4.66,-4.7325,-4.821,-4.9361,-5.0967,-5.1863,-5.2846,-5.4236,-5.4424,-5.4409,-5.4409,-5.5175,0.0,0.0,0.0,0.0,-5.8624,-5.8215,-5.7899,-5.7899,-5.7899,-5.7546,-5.6729,-5.671,-5.658,-5.6302,-5.6302,-5.6004,-5.5447,-5.4849,-5.4362,-5.3946,-5.3529,-5.3254,-5.3206,-5.3206,-5.2806,-5.2072,-5.1178,-4.9935,-4.8486,-4.7415,-4.651,-4.5786,-4.5527,-4.5596,-4.5906,-4.6424,-4.7096,-4.7575,-4.7004,-4.5637,-4.4073,-4.2915,-4.1398,-3.9993,-3.9744,-3.9471,-3.9487,-4.0481,-4.0199,-3.9885,-4.0845,-4.0332,-3.9322,-3.8112,-3.7143,-3.5974,-3.4138,-3.3724,-3.3517,-3.3182,-3.2766,-3.2362,-3.1928,-3.1616,-3.1482,-3.1482,-3.1482,-3.1482,-3.1482,-3.1482,-3.1482,-3.1482,-3.1482,-3.1482,-3.1482,-3.1482,-3.1482,-3.1482,-3.1482,-3.1351,-3.1029,-3.1087,-3.0984,-3.0568,-3.02,-2.9738,-2.9299,-2.8242,-2.7646,-4.0883,-4.1489,-4.2006,-4.3561,-4.4282,-4.4551,-4.4524,-4.4515,-4.4571,-4.4824,-4.5208,-4.5639,-4.6139,-4.692,-4.8202,-5.044,-5.1187,-5.2156,-5.4127,-5.4409,-5.4409,-5.4409,-5.5175,0.0,0.0,0.0,0.0,-5.7751,-5.7639,-5.7379,-5.71,-5.7082,-5.6692,-5.5874,-5.5837,-5.5707,-5.541,-5.541,-5.5131,-5.4574,-5.3995,-5.3637,-5.3499,-5.34,-5.3295,-5.3206,-5.3206,-5.2806,-5.2054,-5.0873,-4.9546,-4.812,-4.7034,-4.613,-4.5423,-4.5423,-4.5423,-4.5492,-4.601,-4.6493,-4.6766,-4.6229,-4.5037,-4.3627,-4.2489,-4.1177,-3.996,-3.9462,-3.9272,-3.9454,-4.0183,-4.0034,-3.9901,-4.0829,-4.0332,-3.9338,-3.8079,-3.6954,-3.5667,-3.385,-3.3474,-3.3299,-3.291,-3.2616,-3.2362,-3.1943,-3.1616,-3.1482,-3.1482,-3.1482,-3.1482,-3.1482,-3.1482,-3.1482,-3.1482,-3.1482,-3.1482,-3.1482,-3.1482,-3.1467,-3.1351,-3.1351,-3.1102,-3.0687,-3.0807,-3.0673,-3.0219,-2.9945,-2.9477,-2.8825,-2.8118,-2.7507,-4.1204,-4.1863,-4.2731,-4.4449,-4.4708,-4.4571,-4.4654,-4.4561,-4.4289,-4.3544,-4.4022,-4.4538,0.0,0.0,-4.6864,-5.0082,-5.0698,-5.1611,-5.4052,-5.4409,-5.4409,0.0,0.0,0.0,0.0,0.0,0.0,-5.6156,0.0,-5.7045,-5.6265,-5.6227,-5.5837,-5.4983,-5.4946,-5.4574,-5.3813,-5.3813,-5.3813,-5.3813,-5.3813,-5.3697,-5.3499,-5.3499,-5.3378,-5.3206,-5.3206,-5.259,-5.1494,-5.0655,-4.929,-4.7579,-4.6837,-4.6096,-4.5423,-4.5423,-4.5423,-4.5423,-4.5423,-4.5423,-4.5371,-4.5086,-4.4414,-4.3522,-4.229,-4.1389,-4.0528,-3.9578,-3.9272,-3.9437,-4.0133,-4.0315,-4.0332,-4.0365,-4.0348,-3.9736,-3.7564,-3.6591,-3.5736,-3.4309,-3.3653,-3.3326,-3.331,-3.291,-3.2557,-3.2527,-3.1988,-3.1511,-3.1482,-3.1482,-3.1482,-3.1482,-3.1482,-3.1482,-3.1482,-3.1467,-3.1467,-3.1467,-3.1467,-3.1278,-3.097,-3.097,-3.0673,-3.0111,-3.0401,-3.0266,-2.9602,-2.973,-2.9182,-2.7987,-2.7851,-2.7341,-4.2515,-4.3523,-4.4275,-4.541,-4.5463,-4.5271,-4.5311,-4.4918,-4.4271,-4.3434,-4.3559,-4.3479,0.0,0.0,0.0,-4.7881,-5.0059,0.0,-5.4146,-5.4409,0.0,-5.4409,0.0,-5.4724,-5.4608,-5.5168,0.0,0.0,-5.5245,-5.5559,-5.5354,-5.5336,-5.4964,-5.4128,-5.411,-5.4017,-5.3813,-5.3813,-5.3813,-5.3813,-5.3754,-5.3637,-5.3499,-5.34,-5.3295,-5.3206,-5.3206,-5.2263,-5.0637,-4.9901,-4.8514,-4.6803,-4.6027,-4.5596,-4.5423,-4.5423,-4.5423,-4.5423,-4.5423,-4.5423,-4.5371,-4.5318,-4.4231,-4.2876,-4.2373,-4.1163,-3.9876,-3.9428,-3.9272,-3.9322,-3.9504,-3.9553,-3.9702,-4.0249,-3.9951,-3.9131,-3.7605,-3.6383,-3.5038,-3.3192,-3.2782,-3.2583,-3.2086,-3.2706,-3.308,-3.2587,-3.2362,-3.2078,-3.1541,-3.1482,-3.1482,-3.1482,-3.1482,-3.1482,-3.1482,-3.1278,-3.1146,-3.1146,-3.0925,-3.0807,-3.0687,-3.0687,-3.0507,-3.0111,-3.0172,-3.0036,-2.9602,-2.9363,-2.8875,-2.7987,-2.7703,-2.7167,-4.4089,-4.5057,-4.5632,-4.5838,-4.5687,-4.5324,-4.474,-4.4243,-4.3528,-4.2008,-4.2127,0.0,0.0,0.0,0.0,0.0,0.0,0.0,-5.4071,-5.4409,-5.4409,0.0,-5.4724,0.0,-5.4396,-5.509,-5.5151,0.0,-5.4689,-5.491,-5.45,-5.4481,-5.4277,-5.3813,-5.3813,-5.3813,-5.3813,-5.3813,-5.3813,-5.3813,-5.3734,-5.3616,-5.3499,-5.3359,-5.3254,-5.3146,0.0,-5.1593,-5.0298,-4.8999,-4.7731,-4.6527,-4.5734,-4.5423,-4.5423,-4.5423,-4.5423,-4.5423,-4.5423,-4.5423,-4.5371,-4.5264,-4.4094,-4.262,-4.2269,-4.0975,-3.9625,-3.9379,-3.9272,-3.9272,-3.9272,-3.9272,-3.9371,-3.9802,-3.957,-3.902,-3.7925,-3.6675,-3.5093,-3.281,-3.2425,-3.2324,-3.1973,-3.2572,-3.3036,-3.2961,-3.2946,-3.2706,-3.2048,-3.1661,-3.1482,-3.1482,-3.1482,-3.1482,-3.1482,-3.1219,-3.1029,-3.1029,-3.0747,-3.0522,-3.0401,-3.0401,-3.0219,-2.9865,-2.9865,-2.9789,-2.9713,-2.9197,-2.8652,-2.8118,-2.7613,-2.703,-4.5481,-4.6304,-4.6761,-4.6111,-4.5704,-4.5118,-4.3745,-4.3125,-4.2269,-4.0165,0.0,-4.0295,-3.8791,-4.0583,-4.3328,-4.6514,0.0,-5.0861,-5.3939,-5.4409,-5.4409,-5.4409,-5.5028,-5.5179,-5.4465,-5.4978,-5.502,-5.4183,-5.469,-5.4689,-5.3831,-5.3813,-5.3813,-5.3813,-5.3813,-5.3813,-5.3813,-5.3813,-5.3813,-5.3813,-5.3716,-5.3598,-5.3499,-5.3359,-5.3198,-5.2962,0.0,0.0,-4.9977,-4.8123,-4.7003,-4.6389,-4.5699,-4.5423,-4.5423,-4.5423,-4.5423,-4.5423,-4.5423,-4.5423,-4.5353,-4.4966,-4.3903,-4.2603,-4.1954,-4.0819,-3.9625,-3.9379,-3.9272,-3.9272,-3.9272,-3.9272,-3.9272,-3.9272,-3.9272,-3.9073,-3.8134,-3.6771,-3.502,-3.2739,-3.2287,-3.2318,-3.2332,-3.2452,-3.2736,-3.3395,-3.3499,-3.332,-3.2841,-3.2123,-3.1571,-3.1482,-3.1482,-3.1482,-3.1482,-3.1161,-3.097,-3.097,-3.0628,-3.0341,-3.005,-3.005,-2.9927,-2.9602,-2.9602,-2.9651,-2.9808,-2.9127,-2.8614,-2.8287,-2.7509,-2.6952,-4.5481,-4.6686,-4.7529,-4.6799,-4.5973,-4.509,-4.4244,-4.2502,0.0,0.0,0.0,-3.8663,-3.7718,-4.0159,-4.3139,-4.5722,0.0,0.0,0.0,0.0,-5.4409,0.0,0.0,0.0,0.0,0.0,0.0,0.0,0.0,-5.4131,-5.3813,-5.3813,-5.3813,-5.3813,-5.3813,-5.3813,-5.3813,-5.3813,-5.3813,-5.3813,-5.3619,-5.3539,-5.3499,-5.3314,-5.2839,-5.2197,0.0,0.0,-4.8443,-4.7682,-4.6689,-4.5613,-4.5422,-4.5423,-4.5423,-4.5423,-4.5423,-4.5423,-4.5423,-4.5423,-4.5267,-4.435,-4.3476,-4.2518,-4.1331,-4.04,-3.9625,-3.9379,-3.9272,-3.9272,-3.9272,-3.9272,-3.9272,-3.9272,-3.9272,-3.8826,-3.707,-3.482,-3.2834,-3.1847,-3.164,-3.1685,-3.1689,-3.2153,-3.2736,-3.3395,-3.3499,-3.3649,-3.4083,-3.308,-3.2138,-3.1541,-3.1482,-3.1482,-3.1482,-3.0984,-3.0687,-3.0687,-3.0097,-2.9727,-2.9665,-2.9665,-2.9665,-2.9602,-2.9602,-2.9651,-2.9808,-2.8942,-2.8479,-2.83,-2.746,-2.7072,-4.6545,-4.7583,-4.8133,-4.6981,-4.6307,-4.5393,-4.3413,0.0,0.0,0.0,0.0,-3.6611,-3.6107,0.0,0.0,0.0,0.0,0.0,0.0,0.0,0.0,0.0,0.0,0.0,0.0,0.0,0.0,0.0,0.0,-5.3407,-5.3756,-5.3813,-5.3813,-5.3813,-5.3813,-5.3813,-5.3813,-5.3813,-5.3813,-5.3813,-5.3676,-5.3558,-5.3481,-5.303,-5.2375,-5.1504,-5.0311,0.0,-4.767,-4.6755,-4.5996,-4.5423,-4.5423,-4.5423,-4.5423,-4.5423,-4.5423,-4.5423,-4.5423,-4.506,-4.4437,-4.3439,-4.2822,-4.2275,-4.0983,-4.0051,-3.9484,-3.9325,-3.9272,-3.9272,-3.9272,-3.9023,-3.8898,-3.9218,-3.9023,-3.8297,-3.6683,-3.5084,-3.3541,-3.222,-3.1966,-3.1853,-3.1524,-3.2078,-3.2617,-3.2931,-3.3559,-3.3993,-3.3963,-3.3287,-3.2705,-3.2587,-3.205,-3.1783,-3.1783,-3.0891,-3.0341,-3.0341,-2.9851,-2.9602,-2.9602,-2.9602,-2.9602,-2.9602,-2.9338,-2.9261,-2.9449,-2.8358,-2.7812,-2.7894,-2.713,-2.6797,-4.7322,-4.8147,-4.8396,-4.6832,-4.6194,-4.5127,-4.1987,-4.03,0.0,0.0,-3.5632,-3.4833,-3.4791,0.0,0.0,0.0,0.0,0.0,0.0,0.0,0.0,0.0,0.0,0.0,0.0,0.0,0.0,0.0,0.0,0.0,-5.3621,-5.3639,-5.3717,-5.3813,-5.3813,-5.3813,-5.3813,-5.3813,-5.3813,-5.3813,-5.3637,-5.344,-5.324,-5.2425,-5.1583,-5.0623,-4.8926,0.0,0.0,-4.5858,-4.5371,-4.5423,-4.5423,-4.5423,-4.5423,-4.5423,-4.5423,-4.5406,-4.5234,-4.4629,-4.3697,-4.2479,-4.2016,-4.1721,-4.0496,-3.9736,-3.9272,-3.9272,-3.9272,-3.9272,-3.9272,-3.8898,-3.8662,-3.9148,-3.8788,-3.789,-3.6357,-3.5545,-3.4538,-3.2588,-3.2231,-3.2079,-3.1582,-3.1958,-3.2347,-3.2497,-3.3514,-3.4128,-3.3754,-3.3627,-3.3576,-3.3794,-3.2685,-3.1924,-3.2056,-3.1079,-3.044,-3.0311,-2.9987,-2.9743,-2.9617,-2.9602,-2.9602,-2.9602,-2.9071,-2.8881,-2.9099,-2.7829,-2.7284,-2.7484,-2.6909,-2.6697,-4.6587,-4.7478,-4.7996,-4.6342,-4.5076,-4.3393,-4.0251,0.0,0.0,-3.5084,-3.416,-3.3862,-3.4586,0.0,0.0,0.0,0.0,0.0,0.0,0.0,0.0,0.0,0.0,0.0,0.0,0.0,0.0,0.0,0.0,0.0,0.0,-5.318,-5.3363,-5.3813,-5.3813,-5.3813,-5.3813,-5.3813,-5.3813,-5.3794,-5.3222,-5.2846,-5.2544,-5.1214,-5.0079,-4.9101,0.0,0.0,0.0,-4.5511,-4.53,-4.5423,-4.5423,-4.5423,-4.5423,-4.5423,-4.5423,-4.532,-4.463,-4.4165,-4.3594,-4.1885,-4.1167,-4.0769,-3.9694,-3.9322,-3.9272,-3.9272,-3.9272,-3.9272,-3.9272,-3.9272,-3.9202,-3.9272,-3.8788,-3.7778,-3.5864,-3.493,-3.3925,-3.1938,-3.1582,-3.1582,-3.1539,-3.1526,-3.1824,-3.2422,-3.3125,-3.3784,-3.4322,-3.4921,-3.5115,-3.4824,-3.2855,-3.1758,-3.2324,-3.199,-3.1511,-3.0954,-3.0623,-3.0193,-2.9631,-2.9602,-2.9602,-2.9602,-2.9071,-2.8881,-2.9099,-2.7829,-2.7284,-2.7497,-2.7303,-2.7205,-4.5736,-4.6793,-4.7474,-4.5893,-4.5101,-4.3914,-4.0673,0.0,-3.689,-3.5517,-3.4006,-3.3183,-3.3858,-3.4597,0.0,0.0,0.0,0.0,0.0,0.0,0.0,0.0,0.0,0.0,0.0,0.0,0.0,0.0,0.0,0.0,0.0,-5.2454,-5.2722,-5.2895,-5.2914,-5.3059,-5.3363,-5.3363,-5.3363,-5.3363,-5.3138,-5.2441,-5.1326,-5.0428,-4.9212,-4.7661,0.0,0.0,0.0,-4.5283,-4.523,-4.53,-4.5371,-4.5423,-4.5423,-4.5423,-4.513,-4.4682,-4.4216,-4.3305,-4.2106,-4.1251,-4.0464,-3.9797,-3.9408,-3.9272,-3.9272,-3.9272,-3.9272,-3.9272,-3.9272,-3.9272,-3.9094,-3.8327,-3.7953,-3.7208,-3.5243,-3.4324,-3.3381,-3.1779,-3.1482,-3.1482,-3.1482,-3.1482,-3.1498,-3.1575,-3.2168,-3.2611,-3.2753,-3.2845,-3.2896,-3.3144,-3.2556,-3.213,-3.2134,-3.1141,-3.0567,-3.0694,-3.058,-3.0586,-3.074,-3.0361,-3.0228,-3.0354,-2.9456,-2.8881,-2.8624,-2.8106,-2.7566,-2.693,-2.7498,-2.7419,-4.4784,-4.5771,-4.6392,-4.5021,-4.4592,-4.3625,0.0,-3.8525,-3.697,-3.5388,-3.371,-3.2672,-3.3093,-3.3759,-3.4807,0.0,0.0,0.0,0.0,0.0,0.0,0.0,0.0,0.0,0.0,0.0,0.0,0.0,0.0,0.0,0.0,-5.1732,-5.2036,-5.2281,-5.2281,-5.2481,-5.2846,-5.2846,-5.2761,-5.256,-5.2368,-5.1493,-4.9959,-4.9235,-4.8085,-4.669,0.0,0.0,0.0,-4.5194,-4.523,-4.5247,-4.5371,-4.5423,-4.5423,-4.5423,-4.4941,-4.4251,-4.3734,-4.2499,-4.1136,-4.0656,-3.9937,-3.9272,-3.9272,-3.9272,-3.9272,-3.9272,-3.9272,-3.9272,-3.9272,-3.9272,-3.9094,-3.8197,-3.7678,-3.6896,-3.5081,-3.4069,-3.3095,-3.1749,-3.1482,-3.1482,-3.1482,-3.1409,-3.1278,-3.1029,-3.1514,-3.1819,-3.1649,-3.1575,-3.161,-3.2004,-3.2054,-3.2025,-3.1852,-3.0968,-3.0544,-3.0797,-3.0979,-3.1204,-3.1485,-3.0932,-3.0658,-3.0786,-2.9517,-2.8688,-2.8287,-2.7957,-2.7357,-2.6546,-2.7419,-2.7444,-4.3808,-4.4322,-4.4453,-4.3614,-4.3146,-4.199,0.0,-3.7532,-3.6359,-3.4004,-3.2915,-3.2388,-3.2388,-3.3346,-3.463,0.0,0.0,0.0,0.0,0.0,0.0,0.0,0.0,0.0,0.0,0.0,0.0,0.0,0.0,0.0,0.0,-5.0891,-5.1331,-5.2299,-5.2281,-5.2281,-5.2299,-5.2299,-5.1964,-5.1221,-5.0695,-4.9813,-4.8549,-4.7387,-4.6615,0.0,0.0,0.0,0.0,-4.5247,-4.53,-4.5423,-4.5423,-4.5423,-4.5423,-4.5423,-4.4941,-4.4165,-4.3049,-4.2039,-4.1052,-4.0016,-3.9537,-3.9272,-3.9272,-3.9272,-3.9272,-3.9272,-3.9272,-3.9272,-3.9272,-3.9272,-3.9272,-3.9272,-3.8286,-3.6922,-3.5665,-3.4388,-3.3115,-3.1775,-3.1482,-3.1482,-3.1482,-3.1219,-3.1029,-3.1029,-3.1348,-3.1587,-3.1587,-3.2125,-3.2341,-3.2047,-3.1489,-3.1198,-3.1495,-3.2033,-3.2117,-3.1527,-3.2047,-3.2117,-3.1513,-3.1061,-3.0786,-3.0786,-2.9182,-2.8287,-2.8287,-2.7121,-2.6533,-2.6546,-2.703,-2.7281,-4.1529,-4.2465,-4.3041,-4.1743,-4.1701,-4.1165,-3.8058,-3.7163,-3.6478,-3.467,-3.3705,-3.3336,-3.3863,-3.4341,-3.5173,-3.6788,0.0,0.0,0.0,0.0,0.0,0.0,0.0,0.0,0.0,0.0,0.0,0.0,0.0,0.0,0.0,-5.0891,-5.1017,-5.1331,-5.1331,-5.1233,-5.0988,-5.0988,-5.0641,-4.9905,-4.9651,-4.8753,-4.737,-4.6862,0.0,0.0,0.0,0.0,0.0,-4.5194,-4.5247,-4.5247,-4.5353,-4.5096,-4.4647,-4.4647,-4.382,-4.2615,-4.1904,-4.1138,-4.0341,-3.9656,-3.9379,-3.9272,-3.9272,-3.9272,-3.9272,-3.9272,-3.9272,-3.9272,-3.9272,-3.9272,-3.9094,-3.8197,-3.731,-3.6194,-3.4493,-3.3423,-3.2538,-3.1659,-3.1482,-3.1482,-3.1482,-3.1409,-3.1219,-3.0807,-3.0862,-3.0751,-3.0259,-3.0367,-3.0495,-3.0383,-3.0213,-3.0277,-3.0769,-3.0614,-3.0586,-3.0811,-3.1429,-3.1946,-3.232,-3.1646,-3.1242,-3.1082,-2.961,-2.8495,-2.7749,-2.7754,-2.7672,-2.757,-2.6992,-2.6917,0.0,-4.0744,-4.1253,-4.0288,-4.0393,-4.0077,-3.7549,-3.6987,-3.6549,-3.5004,-3.4302,-3.4108,-3.46,-3.5082,-3.5686,-3.6677,0.0,0.0,0.0,0.0,0.0,0.0,0.0,0.0,0.0,0.0,0.0,0.0,0.0,0.0,0.0,0.0,-5.0311,-5.003,-5.0294,-5.0189,-4.9682,-4.9699,-4.9327,-4.8595,-4.8431,-4.7694,-4.6448,-4.629,0.0,0.0,0.0,0.0,0.0,-4.5247,-4.5247,-4.5213,-4.5043,-4.4647,-4.4199,-4.3958,-4.3061,-4.1943,-4.1528,-4.0782,-4.0037,-3.9573,-3.9379,-3.9272,-3.9272,-3.9272,-3.9272,-3.9272,-3.9272,-3.9272,-3.9272,-3.9077,-3.8652,-3.7616,-3.6495,-3.5225,-3.383,-3.278,-3.2018,-3.1556,-3.1409,-3.1278,-3.1278,-3.1117,-3.0821,-3.0462,-3.0266,-3.0083,-2.9665,-2.9602,-2.9602,-2.9602,-2.9602,-2.9855,-3.0474,-3.0178,-3.0122,-3.0502,-3.1345,-3.1974,-3.2263,-3.1881,-3.1476,-3.1106,-2.9633,-2.8532,-2.7855,-2.7702,-2.7608,-2.7469,-2.6779,-2.671,0.0,-3.9182,-3.9217,-3.9164,-3.9199,-3.8813,-3.7251,-3.6935,0.0,-3.5074,-3.4776,-3.4811,-3.4916,-3.5592,-3.6199,-3.6323,0.0,0.0,0.0,0.0,0.0,0.0,0.0,0.0,0.0,0.0,0.0,0.0,0.0,0.0,0.0,0.0,-4.9276,-4.8538,-4.917,-4.917,-4.8451,-4.8486,-4.8117,-4.7309,-4.7157,-4.662,-4.577,-4.5632,0.0,0.0,0.0,0.0,0.0,-4.5319,-4.5232,-4.5075,-4.444,-4.4113,-4.389,-4.3337,-4.2595,-4.1857,-4.1593,-4.0849,-4.0037,-3.9781,-3.952,-3.9272,-3.9272,-3.9272,-3.9272,-3.9272,-3.9272,-3.9272,-3.9272,-3.8739,-3.8035,-3.7388,-3.5726,-3.4195,-3.3552,-3.2379,-3.1482,-3.1482,-3.1219,-3.1029,-3.1029,-3.0522,-3.0172,-3.0111,-2.9803,-2.9602,-2.9602,-2.9602,-2.9602,-2.9602,-2.9602,-2.9841,-3.0417,-3.0459,-3.0474,-3.053,-3.1626,-3.2019,-3.1443,-3.1664,-3.1511,-3.0864,-2.9206,-2.8363,-2.8363,-2.7095,-2.6533,-2.6533,-2.6533,-2.6533,-3.7216,0.0,-3.8251,-3.7672,-3.7953,-3.7988,0.0,-3.6549,-3.6707,0.0,0.0,0.0,-3.7093,-3.7009,0.0,0.0,0.0,0.0,0.0,0.0,0.0,0.0,0.0,0.0,0.0,0.0,0.0,0.0,0.0,0.0,0.0,0.0,-4.8451,-4.7696,-4.7836,-4.7836,-4.7661,-4.7661,-4.7224,-4.6353,-4.6201,-4.5943,-4.5632,-4.5406,0.0,0.0,0.0,0.0,-4.5052,-4.4593,-4.4405,-4.4319,-4.3665,-4.3061,-4.246,-4.2319,-4.1687,-4.084,-4.0543,-4.0172,-3.9729,-3.9468,-3.9325,-3.9272,-3.9272,-3.9272,-3.9272,-3.9272,-3.9272,-3.9272,-3.9272,-3.8417,-3.7381,-3.6757,-3.5112,-3.3541,-3.2881,-3.2105,-3.1482,-3.1482,-3.1409,-3.1278,-3.1029,-3.0911,-3.0628,-3.0172,-3.005,-2.9865,-2.9602,-2.9602,-2.9602,-2.9602,-2.9602,-2.9673,-2.9813,-2.9827,-3.0024,-3.0488,-3.0797,-3.096,-3.0948,-3.1013,-3.0592,-2.964,-2.7852,-2.6973,-2.6973,-2.6658,-2.6533,-2.6533,-2.6533,-2.6533,-3.6338,-3.7268,-3.8006,-3.7602,-3.7795,-3.7795,-3.6619,0.0,0.0,0.0,0.0,0.0,0.0,0.0,0.0,0.0,0.0,0.0,0.0,0.0,0.0,0.0,0.0,0.0,0.0,0.0,0.0,0.0,0.0,0.0,0.0,0.0,-4.7643,-4.6871,-4.6853,-4.6853,-4.6853,-4.6853,-4.6543,-4.5905,-4.5752,-4.5615,-4.5406,-4.5194,0.0,0.0,0.0,0.0,-4.4521,-4.3941,-4.3615,-4.346,-4.2873,-4.2371,-4.1842,-4.1612,-4.1071,-4.0485,-4.032,-4.0037,-3.9677,-3.9379,-3.9272,-3.9272,-3.9272,-3.9272,-3.9272,-3.9272,-3.9272,-3.9135,-3.8541,-3.7643,-3.6566,-3.5367,-3.4052,-3.2892,-3.2182,-3.1779,-3.1482,-3.1482,-3.1292,-3.1058,-3.0866,-3.0553,-3.0266,-2.9927,-2.9865,-2.9803,-2.9602,-2.9602,-2.9602,-2.9602,-2.9602,-2.9715,-3.001,-3.0101,-3.0115,-3.0094,-3.0375,-3.0453,-3.0361,-3.0425,-2.978,-2.8425,-2.7452,-2.6782,-2.6533,-2.6533,-2.6533,-2.6533,-2.6533,-2.6533,-3.6127,-3.7198,-3.8234,-3.7988,-3.8023,-3.7918,-3.7163,0.0,0.0,0.0,0.0,0.0,0.0,0.0,0.0,0.0,0.0,0.0,0.0,0.0,0.0,0.0,0.0,0.0,0.0,0.0,0.0,0.0,0.0,0.0,0.0,0.0,0.0,-4.6189,-4.6172,-4.6172,-4.6172,-4.6172,-4.6073,-4.5786,-4.5632,-4.5441,-4.5177,-4.5032,0.0,0.0,0.0,0.0,-4.3855,-4.3252,-4.2875,-4.2653,-4.2063,-4.1771,-4.1604,-4.1064,-4.0728,-4.0485,-4.0436,-4.007,-3.9625,-3.9379,-3.9272,-3.9272,-3.9272,-3.9272,-3.9255,-3.9139,-3.9135,-3.8859,-3.7639,-3.6686,-3.5681,-3.3934,-3.2892,-3.2213,-3.1601,-3.1482,-3.1467,-3.1409,-3.0999,-3.0628,-3.0522,-3.0036,-2.9665,-2.9602,-2.9602,-2.9602,-2.9602,-2.9602,-2.9602,-2.9602,-2.9602,-2.9813,-3.0333,-3.0567,-3.0354,-2.9707,-3.0242,-3.0404,-3.004,-2.9817,-2.9116,-2.7815,-2.7523,-2.7095,-2.6533,-2.6533,-2.6533,-2.6533,-2.6533,-2.6533,-3.7584,-3.8427,-3.8813,-3.7479,-3.7637,-3.7918,0.0,0.0,0.0,0.0,0.0,0.0,0.0,0.0,0.0,0.0,0.0,0.0,0.0,0.0,0.0,0.0,0.0,0.0,0.0,0.0,0.0,0.0,0.0,0.0,0.0,0.0,0.0,-4.6172,-4.6172,-4.6172,-4.6172,-4.6172,-4.6023,-4.5632,-4.558,-4.5389,-4.5032,-4.4886,-4.4545,0.0,0.0,-4.3369,-4.2894,-4.2243,-4.1984,-4.1898,-4.1288,-4.106,-4.1043,-4.0922,-4.0728,-4.0436,-3.9969,-3.9625,-3.9379,-3.9325,-3.9272,-3.9272,-3.9272,-3.9272,-3.9156,-3.8543,-3.8384,-3.83,-3.7513,-3.6038,-3.4496,-3.3712,-3.2528,-3.1601,-3.1497,-3.1482,-3.1409,-3.1146,-3.097,-3.0807,-3.028,-3.0111,-2.9927,-2.9665,-2.9602,-2.9602,-2.9602,-2.9602,-2.9602,-2.9602,-2.9602,-2.9693,-2.9888,-2.9964,-2.9998,-2.9988,-3.0634,-3.1011,-3.1099,-2.943,-2.8754,-2.9212,-2.7556,-2.6589,-2.6533,-2.6533,-2.6533,-2.6533,-2.6533,-2.6533,-3.7369,-3.8076,-3.8497,-3.7777,-3.8497,-3.9305,-3.8954,0.0,0.0,0.0,0.0,0.0,0.0,0.0,0.0,0.0,0.0,0.0,0.0,0.0,0.0,0.0,0.0,0.0,0.0,0.0,0.0,0.0,0.0,0.0,0.0,0.0,0.0,0.0,-4.6172,-4.6172,-4.6172,-4.5702,-4.5536,-4.558,-4.5131,-4.4733,-4.438,-4.39,-4.3524,-4.3235,0.0,-4.2484,-4.2158,-4.1552,-4.1292,-4.1274,-4.1009,-4.0888,-4.0871,-4.0583,-4.0271,-4.002,-3.9625,-3.9432,-3.9272,-3.9272,-3.9272,-3.9206,-3.8825,-3.8709,-3.849,-3.74,-3.7411,-3.7452,-3.6027,-3.4801,-3.369,-3.2646,-3.198,-3.1482,-3.1482,-3.1482,-3.1409,-3.1087,-3.0851,-3.0628,-3.0172,-2.9927,-2.9803,-2.9602,-2.9651,-2.9651,-2.9602,-2.9651,-2.9651,-2.9602,-2.9651,-2.9699,-2.9808,-3.0321,-3.0454,-3.014,-3.043,-3.0387,-2.9678,-2.8876,-2.8264,-2.7889,-2.699,-2.6533,-2.6533,-2.6533,-2.6533,-2.6533,-2.6533,-2.6533,-3.7358,-3.7732,-3.8064,-3.8339,0.0,-4.0024,-4.0393,0.0,0.0,0.0,0.0,0.0,0.0,0.0,0.0,0.0,0.0,0.0,0.0,0.0,0.0,0.0,0.0,0.0,0.0,0.0,0.0,0.0,0.0,0.0,0.0,0.0,0.0,0.0,-4.6046,-4.5909,-4.5909,-4.504,-4.4826,-4.5321,-4.4457,-4.3855,-4.3594,-4.2979,-4.2621,-4.2467,-4.2003,-4.1709,-4.1552,-4.1064,-4.0888,-4.0888,-4.0888,-4.0888,-4.0823,-4.0387,-4.002,-3.9781,-3.9484,-3.9325,-3.9272,-3.9272,-3.9272,-3.9139,-3.8427,-3.8212,-3.7892,-3.6385,-3.6249,-3.6194,-3.4525,-3.3665,-3.2974,-3.1805,-3.1482,-3.1482,-3.1482,-3.1409,-3.1292,-3.097,-3.0687,-3.0401,-3.005,-2.9803,-2.9602,-2.9665,-2.9699,-2.9761,-2.9727,-2.9837,-2.9837,-2.9741,-2.9837,-2.9884,-2.9931,-3.0664,-3.0812,-3.0003,-3.0021,-2.9693,-2.8866,-2.8457,-2.7855,-2.6972,-2.6653,-2.6533,-2.6533,-2.6533,-2.6533,-2.6533,-2.6533,-2.6533,-3.8495,-3.8285,-3.8039,-3.9,0.0,0.0,-4.0147,0.0,0.0,0.0,0.0,0.0,0.0,0.0,0.0,0.0,0.0,0.0,0.0,0.0,0.0,0.0,0.0,0.0,0.0,0.0,0.0,0.0,0.0,0.0,0.0,0.0,0.0,0.0,0.0,-4.512,-4.4988,-4.4091,-4.3944,-4.4541,-4.3644,-4.303,-4.2791,-4.274,-4.2381,-4.1881,-4.183,-4.1449,-4.0957,-4.0905,-4.0888,-4.0888,-4.0888,-4.0888,-4.0888,-4.0583,-4.0271,-4.002,-3.9781,-3.9537,-3.9272,-3.9272,-3.9272,-3.9139,-3.8427,-3.8212,-3.7793,-3.5747,-3.4851,-3.4367,-3.3696,-3.3084,-3.2406,-3.1689,-3.1482,-3.1482,-3.1482,-3.1278,-3.097,-3.0687,-3.0341,-3.005,-2.9665,-2.9602,-2.9665,-2.9761,-2.9808,-2.9884,-3.005,-3.005,-3.005,-3.005,-3.005,-3.0097,-3.0251,-3.0491,-3.0369,-2.9685,-2.9498,-2.9687,-3.0311,-2.8542,-2.7799,-2.8255,-2.7105,-2.6533,-2.6533,-2.6533,-2.6533,-2.6533,-2.6533,-2.6533,-3.7845,-3.7558,-3.7463,-3.8686,0.0,0.0,0.0,0.0,0.0,0.0,0.0,0.0,0.0,0.0,0.0,0.0,0.0,0.0,0.0,0.0,0.0,0.0,0.0,0.0,0.0,0.0,0.0,0.0,0.0,0.0,0.0,0.0,0.0,0.0,0.0,-4.3592,-4.4021,-4.2817,-4.2395,-4.2837,-4.2543,-4.2356,-4.2257,-4.1793,-4.1481,-4.1254,-4.1254,-4.1099,-4.0888,-4.0888,-4.0888,-4.0888,-4.0888,-4.068,-4.0387,-4.0387,-4.0037,-3.9573,-3.959,-3.9432,-3.9206,-3.8758,-3.8626,-3.8394,-3.7302,-3.6669,-3.5945,-3.4442,-3.3593,-3.3084,-3.2894,-3.2346,-3.1839,-3.1541,-3.1482,-3.1409,-3.1219,-3.1087,-3.0911,-3.0507,-3.0326,-3.0158,-2.9927,-2.9927,-2.9927,-2.9974,-3.0083,-3.0083,-3.0111,-3.0158,-3.0219,-3.0111,-3.0158,-3.0266,-3.0447,-3.0568,-3.0507,-3.0251,-2.9747,-2.9204,-2.8648,-2.7921,-2.7387,-2.7224,-2.6759,-2.6533,-2.6533,-2.6533,-2.6533,-2.6533,-2.6533,-2.6533,-3.7007,-3.6717,-3.6743,0.0,0.0,0.0,0.0,0.0,0.0,0.0,0.0,0.0,0.0,0.0,0.0,0.0,0.0,0.0,0.0,0.0,0.0,0.0,0.0,0.0,0.0,0.0,0.0,0.0,0.0,0.0,0.0,0.0,0.0,0.0,0.0,0.0,-4.238,-4.1205,-4.0696,-4.0798,-4.09,-4.1186,-4.1564,-4.1112,-4.0888,-4.0888,-4.0888,-4.0888,-4.0888,-4.0888,-4.0888,-4.0888,-4.0888,-4.068,-4.0387,-4.0355,-3.9902,-3.9343,-3.9256,-3.9002,-3.8667,-3.8133,-3.7967,-3.7734,-3.6439,-3.5595,-3.4891,-3.3546,-3.2788,-3.2398,-3.2247,-3.1925,-3.1597,-3.1597,-3.1597,-3.1482,-3.1161,-3.1043,-3.0792,-3.0372,-3.0266,-3.0219,-3.0111,-3.0111,-3.0111,-3.0158,-3.0266,-3.0266,-3.028,-3.0341,-3.0326,-3.0294,-3.0341,-3.0447,-3.0568,-3.0568,-3.0433,-2.9979,-2.9484,-2.8839,-2.7868,-2.7417,-2.6973,-2.6533,-2.6533,-2.6533,-2.6533,-2.6533,-2.6533,-2.6533,-2.6533,-2.6533,-3.6241,-3.5827,-3.5876,0.0,0.0,0.0,0.0,0.0,0.0,0.0,0.0,0.0,0.0,0.0,0.0,0.0,0.0,0.0,0.0,0.0,0.0,0.0,0.0,0.0,0.0,0.0,0.0,0.0,0.0,0.0,0.0,0.0,0.0,0.0,0.0,0.0,-4.0023,-3.9254,-3.8854,-3.869,-3.869,-3.9404,-4.0697,-4.084,-4.0871,-4.0888,-4.0888,-4.0888,-4.0888,-4.0888,-4.0888,-4.0871,-4.0888,-4.0982,-4.1029,-4.0485,-3.991,-3.9327,-3.879,-3.812,-3.7485,-3.7468,-3.7468,-3.7219,-3.5959,-3.5428,-3.491,-3.3083,-3.2492,-3.2287,-3.1898,-3.1799,-3.1799,-3.1799,-3.1799,-3.1727,-3.1351,-3.1058,-3.0702,-3.0387,-3.0219,-3.0111,-3.0111,-3.0111,-3.0172,-3.0266,-3.0312,-3.0387,-3.0568,-3.0568,-3.0568,-3.0568,-3.0568,-3.0568,-3.0568,-3.0568,-2.9993,-2.862,-2.8492,-2.8492,-2.8492,-2.7229,-2.6533,-2.6533,-2.6533,-2.6533,-2.6533,-2.6533,-2.6533,-2.6533,-2.6533,-2.6533,-3.5926,-3.5803,0.0,0.0,0.0,0.0,0.0,0.0,0.0,0.0,0.0,0.0,0.0,0.0,0.0,0.0,0.0,0.0,0.0,0.0,0.0,0.0,0.0,0.0,0.0,0.0,0.0,0.0,0.0,0.0,0.0,0.0,0.0,0.0,0.0,0.0,-3.9095,-3.8488,-3.8294,-3.8446,-3.8486,-3.9049,-3.9935,-4.007,-4.0336,-4.0745,-4.0888,-4.0888,-4.0888,-4.0888,-4.0607,-4.0268,-4.0711,-4.0122,-3.9105,-3.9512,-3.8999,-3.8033,-3.7984,-3.7751,-3.7385,-3.6915,-3.6748,-3.6501,-3.53,-3.4561,-3.3906,-3.3102,-3.2492,-3.2094,-3.1996,-3.1996,-3.2038,-3.1841,-3.1597,-3.1351,-3.0999,-3.0821,-3.0568,-3.0326,-3.0266,-3.0266,-3.0462,-3.0462,-3.0462,-3.0507,-3.0507,-3.0507,-3.0568,-3.0568,-3.0568,-3.0568,-3.0568,-3.0568,-3.0568,-3.019,-2.9747,-2.9282,-2.8312,-2.7604,-2.7095,-2.6714,-2.6533,-2.6533,-2.6533,-2.6533,-2.6533,-2.6533,-2.6533,-2.6533,-2.6533,-2.6533,-3.6055,0.0,0.0,0.0,0.0,0.0,0.0,0.0,0.0,0.0,0.0,0.0,0.0,0.0,0.0,0.0,0.0,0.0,0.0,0.0,0.0,0.0,0.0,0.0,0.0,0.0,0.0,0.0,0.0,0.0,0.0,0.0,0.0,0.0,0.0,0.0,-3.801,-3.7578,-3.7401,-3.7546,-3.7393,-3.7649,-3.8368,-3.9339,-3.9952,-4.0254,-4.0353,-4.0314,-4.0084,-4.0084,-3.9853,-3.9517,-3.9784,-3.925,-3.8403,-3.876,-3.8218,-3.7337,-3.7354,-3.7057,-3.669,-3.6236,-3.5944,-3.5607,-3.4709,-3.3935,-3.3287,-3.2788,-3.2342,-3.1996,-3.2038,-3.2094,-3.2094,-3.1996,-3.1697,-3.1394,-3.1058,-3.0821,-3.0568,-3.0326,-3.0387,-3.0447,-3.0568,-3.0568,-3.0568,-3.0568,-3.0568,-3.0568,-3.0568,-3.0568,-3.0568,-3.0568,-3.0568,-3.0507,-3.0251,-2.9808,-2.9359,-2.8776,-2.7999,-2.7229,-2.6521,-2.6533,-2.6533,-2.6533,-2.6533,-2.6533,-2.6533,-2.6533,-2.6533,-2.6533,-2.6533,-2.6533,0.0,0.0,0.0,0.0,0.0,0.0,0.0,0.0,0.0,0.0,0.0,0.0,0.0,0.0,0.0,0.0,0.0,0.0,0.0,0.0,0.0,0.0,0.0,0.0,0.0,0.0,0.0,0.0,0.0,0.0,0.0,0.0,0.0,0.0,0.0,0.0,-3.6954,-3.6554,-3.6399,0.0,-3.5767,-3.5727,-3.6295,-3.8484,-3.9428,-3.9462,-3.9512,-3.9232,-3.8789,-3.8789,-3.8755,-3.8659,-3.8453,-3.8401,-3.8343,-3.8082,-3.7558,-3.6939,-3.6746,-3.6214,-3.5577,-3.5532,-3.5224,-3.4673,-3.407,-3.3511,-3.2895,-3.2342,-3.215,-3.2038,-3.2191,-3.2094,-3.2038,-3.2135,-3.191,-3.1567,-3.1336,-3.0999,-3.0702,-3.0387,-3.0447,-3.0568,-3.0568,-3.0568,-3.0568,-3.0568,-3.0568,-3.0568,-3.0568,-3.0568,-3.0568,-3.0568,-3.0568,-3.0251,-2.9623,-2.9484,-2.8839,-2.7604,-2.7417,-2.7162,-2.6521,-2.6533,-2.6533,-2.6533,-2.6533,-2.6533,-2.6533,-2.6533,-2.6533,-2.6533,-2.6533,-2.6533,0.0,0.0,0.0,0.0,0.0,0.0,0.0,0.0,0.0,0.0,0.0,0.0,0.0,0.0,0.0,0.0,0.0,0.0,0.0,0.0,0.0,0.0,0.0,0.0,0.0,0.0,0.0,0.0,0.0,0.0,0.0,0.0,0.0,0.0,0.0,-3.6923,-3.6616,-3.603,-3.5707,0.0,-3.5118,-3.4969,-3.507,-3.6149,-3.7211,-3.8179,-3.8329,-3.8471,-3.8639,-3.8762,-3.8425,-3.788,-3.8246,-3.772,-3.6775,-3.7126,-3.6673,-3.5904,-3.5859,-3.5757,-3.5515,-3.5131,-3.488,-3.4625,-3.3649,-3.3287,-3.3039,-3.2492,-3.2342,-3.2342,-3.2342,-3.2191,-3.1996,-3.2053,-3.1697,-3.1278,-3.0999,-3.0762,-3.0642,-3.0568,-3.0568,-3.0568,-3.0568,-3.0568,-3.0568,-3.0568,-3.0568,-3.0568,-3.0568,-3.0568,-3.0568,-3.0568,-3.0129,-2.9747,-2.9623,-2.8583,-2.7802,-2.755,-2.704,-2.6658,-2.6533,-2.6533,-2.6533,-2.6533,-2.6533,-2.6533,-2.6533,-2.6533,-2.6533,-2.6533,-2.6533,-2.6533,0.0,0.0,0.0,0.0,0.0,0.0,0.0,0.0,0.0,0.0,0.0,0.0,0.0,0.0,0.0,0.0,0.0,0.0,0.0,0.0,0.0,0.0,0.0,0.0,0.0,0.0,0.0,0.0,0.0,0.0,0.0,0.0,0.0,0.0,-3.6716,-3.6364,-3.6228,-3.5397,-3.4999,-3.4983,-3.4481,-3.4141,-3.3973,-3.5236,-3.6225,-3.6961,-3.7263,-3.7337,-3.7237,-3.7551,-3.7455,-3.7084,-3.7205,-3.6791,-3.6131,-3.6259,-3.6022,-3.5622,-3.5622,-3.5622,-3.5515,-3.4975,-3.4625,-3.4268,-3.3443,-3.3039,-3.2734,-3.2492,-3.2398,-3.2398,-3.2398,-3.2191,-3.194,-3.1796,-3.1452,-3.1102,-3.0925,-3.0747,-3.0568,-3.0568,-3.0568,-3.0568,-3.0568,-3.0568,-3.0568,-3.0568,-3.0568,-3.0568,-3.0568,-3.0568,-3.0507,-3.019,-3.0129,-2.9685,-2.8648,-2.8247,-2.767,-2.704,-2.6714,-2.6533,-2.6533,-2.6533,-2.6533,-2.6533,-2.6533,-2.6533,-2.6533,-2.6533,-2.6533,-2.6533,-2.6533,-2.6533,0.0,0.0,0.0,0.0,0.0,0.0,0.0,0.0,0.0,0.0,0.0,0.0,0.0,0.0,0.0,0.0,0.0,0.0,0.0,0.0,0.0,0.0,0.0,0.0,0.0,0.0,0.0,0.0,0.0,0.0,0.0,0.0,-3.7251,-3.7065,-3.6279,-3.5758,-3.5633,-3.4732,-3.4349,-3.4349,-3.3826,-3.3427,-3.3197,-3.4695,-3.5457,-3.5712,-3.6081,-3.5992,-3.5582,-3.6156,-3.636,-3.6276,-3.6105,-3.6036,-3.5932,-3.5711,-3.5622,-3.5622,-3.5622,-3.5532,-3.5379,-3.4833,-3.4317,-3.3767,-3.3251,-3.2734,-3.2398,-3.2398,-3.2398,-3.2398,-3.2342,-3.2135,-3.1811,-3.1495,-3.1146,-3.0911,-3.0911,-3.0747,-3.0568,-3.0568,-3.0568,-3.0568,-3.0568,-3.0568,-3.0568,-3.0568,-3.0568,-3.0568,-3.0568,-3.0507,-3.019,-2.9685,-2.987,-2.9345,-2.767,-2.792,-2.767,-2.6589,-2.6533,-2.6533,-2.6533,-2.6533,-2.6533,-2.6533,-2.6533,-2.6533,-2.6533,-2.6533,-2.6533,-2.6533,-2.6465,-2.6465,0.0,0.0,0.0,0.0,0.0,0.0,0.0,0.0,0.0,0.0,0.0,0.0,0.0,0.0,0.0,0.0,0.0,0.0,0.0,0.0,0.0,0.0,0.0,0.0,0.0,0.0,0.0,0.0,0.0,0.0,0.0,-3.706,-3.6658,-3.5811,-3.5643,-3.5259,-3.4673,-3.3906,-3.3609,-3.3795,-3.3404,-3.319,-3.3256,-3.3535,-3.3882,-3.438,-3.448,-3.4659,-3.4958,-3.5688,-3.5793,-3.5605,-3.6036,-3.6036,-3.5817,-3.5667,-3.5622,-3.5622,-3.5622,-3.5287,-3.4833,-3.4284,-3.3767,-3.3198,-3.2641,-3.2437,-3.2398,-3.2398,-3.2398,-3.2342,-3.2094,-3.1796,-3.1495,-3.1146,-3.0851,-3.0628,-3.0628,-3.0642,-3.0568,-3.0568,-3.0568,-3.0568,-3.0568,-3.0568,-3.0568,-3.0568,-3.0568,-3.0568,-3.0568,-3.0068,-2.9685,-2.9623,-2.8583,-2.7802,-2.755,-2.704,-2.6714,-2.6533,-2.6533,-2.6533,-2.6533,-2.6533,-2.6533,-2.6533,-2.6533,-2.6533,-2.6533,-2.6533,-2.6533,-2.6533,-2.6339,-2.627,0.0,0.0,0.0,0.0,0.0,0.0,0.0,0.0,0.0,0.0,0.0,0.0,0.0,0.0,0.0,0.0,0.0,0.0,0.0,0.0,0.0,0.0,0.0,0.0,0.0,0.0,0.0,0.0,0.0,0.0,-3.6302,-3.6286,-3.59,-3.5217,-3.4713,0.0,-3.4079,-3.3311,-3.3082,-3.3388,-3.3184,-3.315,-3.3309,-3.3309,-3.345,-3.3642,-3.3984,-3.4218,-3.4464,-3.5052,-3.5191,-3.5068,-3.5161,-3.5115,-3.4975,-3.4769,-3.4721,-3.4721,-3.4721,-3.4529,-3.4268,-3.3716,-3.3407,-3.3093,-3.2547,-3.2398,-3.2398,-3.2398,-3.2287,-3.215,-3.2038,-3.1625,-3.119,-3.1029,-3.0807,-3.0568,-3.0568,-3.0568,-3.0568,-3.0568,-3.0568,-3.0568,-3.0568,-3.0568,-3.0568,-3.0568,-3.0568,-3.0447,-3.0068,-3.0043,-2.9609,-2.856,-2.8477,-2.8079,-2.6998,-2.704,-2.6905,-2.6521,-2.6533,-2.6533,-2.6533,-2.6245,-2.6176,-2.6176,-2.6396,-2.6396,-2.6176,-2.6176,-2.6037,-2.5816,-2.5828,-2.5828,0.0,0.0,0.0,0.0,0.0,0.0,0.0,0.0,0.0,0.0,0.0,0.0,0.0,0.0,0.0,0.0,0.0,0.0,0.0,0.0,0.0,0.0,0.0,0.0,0.0,0.0,0.0,0.0,0.0,0.0,-3.5528,-3.5497,-3.5245,-3.4675,-3.4048,-3.365,-3.3479,-3.2967,-3.2866,-3.3096,-3.315,-3.3203,-3.3309,-3.3309,-3.3309,-3.3309,-3.3694,-3.3899,-3.3949,-3.4448,-3.4642,-3.4545,-3.448,-3.4431,-3.435,-3.4086,-3.3986,-3.3986,-3.3986,-3.3919,-3.3716,-3.3339,-3.3093,-3.2949,-3.2547,-3.2398,-3.2398,-3.2398,-3.2247,-3.2094,-3.2053,-3.1567,-3.1087,-3.1029,-3.0807,-3.0568,-3.0568,-3.0568,-3.0568,-3.0568,-3.0568,-3.0568,-3.0568,-3.0568,-3.0568,-3.0568,-3.0568,-3.0447,-2.9931,-2.9891,-2.9333,-2.7908,-2.8239,-2.8009,-2.6627,-2.6973,-2.704,-2.6465,-2.6396,-2.6314,-2.6245,-2.5898,-2.5758,-2.5758,-2.6037,-2.6037,-2.5758,-2.5758,-2.5606,-2.5312,-2.5453,-2.5535,0.0,0.0,0.0,0.0,0.0,0.0,0.0,0.0,0.0,0.0,0.0,0.0,0.0,0.0,0.0,0.0,0.0,0.0,0.0,0.0,0.0,0.0,0.0,0.0,0.0,0.0,0.0,0.0,0.0,0.0,-3.4956,-3.4956,-3.4659,-3.3989,-3.3886,-3.3559,-3.2959,-3.302,-3.3096,-3.3096,-3.3203,-3.3309,-3.3309,-3.3309,-3.3309,-3.3309,-3.3361,-3.3346,-3.3398,-3.4002,-3.4102,-3.3984,-3.4415,-3.448,-3.4284,-3.4102,-3.3986,-3.3986,-3.3986,-3.3665,-3.3251,-3.3198,-3.2841,-3.2453,-3.2398,-3.2398,-3.2398,-3.2398,-3.2398,-3.2342,-3.2038,-3.1739,-3.1364,-3.1087,-3.0807,-3.0568,-3.0568,-3.0568,-3.0568,-3.0568,-3.0568,-3.0568,-3.0568,-3.0568,-3.0568,-3.0568,-3.0568,-3.0568,-3.0568,-2.9435,-2.8597,-2.8441,-2.7377,-2.6627,-2.6533,-2.6521,-2.6465,-2.6201,-2.605,-2.5828,-2.5676,-2.5453,-2.5312,-2.5312,-2.5382,-2.5382,-2.5312,-2.5312,-2.5312,-2.5312,-2.5312,-2.5312,0.0,0.0,0.0,0.0,0.0,0.0,0.0,0.0,0.0,0.0,0.0,0.0,0.0,0.0,0.0,0.0,0.0,0.0,0.0,0.0,0.0,0.0,0.0,0.0,0.0,0.0,0.0,0.0,0.0,0.0,-3.4397,-3.4382,-3.4124,-3.3543,-3.3419,-3.3255,-3.3005,-3.3058,-3.315,-3.3203,-3.3309,-3.3309,-3.3309,-3.3309,-3.3309,-3.3309,-3.3309,-3.3309,-3.3309,-3.3539,-3.3591,-3.3503,-3.3626,-3.3523,-3.3398,-3.3208,-3.3018,-3.2964,-3.2964,-3.2857,-3.2695,-3.2695,-3.2547,-3.2398,-3.2398,-3.2398,-3.2398,-3.2398,-3.2104,-3.1766,-3.1724,-3.1321,-3.0911,-3.0747,-3.0687,-3.0568,-3.0568,-3.0568,-3.0568,-3.0568,-3.0568,-3.0568,-3.0568,-3.0568,-3.0568,-3.0568,-3.0568,-3.0447,-3.0007,-2.9425,-2.8729,-2.796,-2.7361,-2.6771,-2.6144,-2.6107,-2.5968,-2.5606,-2.5688,-2.5606,-2.5382,-2.5312,-2.5229,-2.5087,-2.504,-2.504,-2.5087,-2.5087,-2.5028,-2.4992,-2.5111,-2.5182,-2.9009,0.0,0.0,0.0,0.0,0.0,0.0,0.0,0.0,0.0,0.0,0.0,0.0,0.0,0.0,0.0,0.0,0.0,0.0,0.0,0.0,0.0,0.0,0.0,0.0,0.0,0.0,0.0,0.0,0.0,-3.3857,-3.3841,-3.3675,-3.3324,-3.3203,-3.315,-3.315,-3.315,-3.3203,-3.3309,-3.3309,-3.3309,-3.3309,-3.3309,-3.3309,-3.3309,-3.3309,-3.3309,-3.3309,-3.3309,-3.3398,-3.3549,-3.3388,-3.3435,-3.3472,-3.3274,-3.3008,-3.2736,-3.2736,-3.2582,-3.2398,-3.2398,-3.2398,-3.2398,-3.2398,-3.2398,-3.2398,-3.2342,-3.2007,-3.1667,-3.161,-3.1146,-3.0687,-3.0628,-3.0568,-3.0568,-3.0568,-3.0568,-3.0568,-3.0568,-3.0568,-3.0568,-3.0568,-3.0568,-3.0507,-3.0312,-3.0251,-2.9993,-2.9282,-2.891,-2.8346,-2.7523,-2.7112,-2.6656,-2.5947,-2.591,-2.5758,-2.5382,-2.5453,-2.5394,-2.5241,-2.5182,-2.504,-2.4969,-2.4849,-2.4849,-2.5016,-2.4957,-2.4909,-2.479,-2.4921,-2.4981,0.0,0.0,0.0,0.0,0.0,0.0,0.0,0.0,0.0,0.0,0.0,0.0,0.0,0.0,0.0,0.0,0.0,0.0,0.0,0.0,0.0,0.0,0.0,0.0,0.0,0.0,0.0,0.0,0.0,-3.3309,-3.3309,-3.3309,-3.3309,-3.3309,-3.3309,-3.3309,-3.3309,-3.3309,-3.3309,-3.3309,-3.3309,-3.3309,-3.3309,-3.3309,-3.3309,-3.3309,-3.3309,-3.3309,-3.3309,-3.3309,-3.3597,-3.4046,-3.3966,-3.4203,-3.4663,-3.4577,-3.4029,-3.3429,-3.3413,-3.2967,-3.2428,-3.2398,-3.2398,-3.2398,-3.2398,-3.2398,-3.2398,-3.2247,-3.2094,-3.1925,-3.1739,-3.1321,-3.0911,-3.0687,-3.0568,-3.0568,-3.0568,-3.0568,-3.0568,-3.0568,-3.0568,-3.0568,-3.0568,-3.0568,-3.0326,-2.9685,-2.956,-2.9282,-2.8556,-2.792,-2.7417,-2.7229,-2.6589,-2.6131,-2.591,-2.591,-2.5828,-2.5606,-2.5382,-2.5241,-2.5123,-2.4921,-2.479,-2.479,-2.479,-2.4921,-2.5111,-2.4921,-2.479,-2.479,-2.479,-2.479,-2.6722,0.0,0.0,0.0,0.0,0.0,0.0,0.0,0.0,0.0,0.0,0.0,0.0,0.0,0.0,0.0,0.0,0.0,0.0,0.0,0.0,0.0,0.0,0.0,0.0,0.0,0.0,0.0,-3.3403,-3.3309,-3.3309,-3.3309,-3.3309,-3.3309,-3.3309,-3.3309,-3.3309,-3.3309,-3.3309,-3.3309,-3.3309,-3.3309,-3.3309,-3.3309,-3.3309,-3.3309,-3.3309,-3.3309,-3.3309,-3.3309,-3.3366,-3.3534,-3.3889,-3.4091,-3.4141,-3.4523,-3.4454,-3.4106,-3.3583,-3.3275,-3.3044,-3.2552,-3.2398,-3.2398,-3.2398,-3.2398,-3.2398,-3.2342,-3.2007,-3.1495,-3.1043,-3.0807,-3.0687,-3.0642,-3.0568,-3.0568,-3.0568,-3.0568,-3.0568,-3.0568,-3.0568,-3.0568,-3.0568,-3.019,-2.9808,-2.9623,-2.9156,-2.8762,-2.8492,-2.792,-2.7484,-2.7417,-2.685,-2.6188,-2.5746,-2.5676,-2.5477,-2.5064,-2.4992,-2.4921,-2.4861,-2.4861,-2.4861,-2.4981,-2.5052,-2.5123,-2.5241,-2.5123,-2.5052,-2.5182,-2.5182,-2.5182,0.0,0.0,0.0,0.0,0.0,0.0,0.0,0.0,0.0,0.0,0.0,0.0,0.0,0.0,0.0,0.0,0.0,0.0,0.0,0.0,0.0,0.0,0.0,0.0,0.0,0.0,0.0,0.0,-3.3203,-3.3203,-3.3309,-3.3309,-3.3309,-3.3309,-3.3309,-3.3309,-3.3309,-3.3309,-3.3309,-3.3309,-3.3309,-3.3309,-3.3309,-3.3309,-3.3309,-3.3309,-3.3309,-3.3309,-3.3309,-3.3309,-3.3414,-3.3675,-3.3921,-3.4098,-3.4265,-3.4496,-3.4392,-3.3967,-3.3552,-3.3398,-3.329,-3.2613,-3.2582,-3.2752,-3.2475,-3.2398,-3.2398,-3.2342,-3.1894,-3.1263,-3.0747,-3.0568,-3.0568,-3.0568,-3.0568,-3.0568,-3.0568,-3.0642,-3.0702,-3.0628,-3.0568,-3.0507,-3.0251,-2.987,-2.9421,-2.8839,-2.8376,-2.7986,-2.767,-2.7284,-2.7027,-2.6824,-2.6508,-2.6037,-2.5465,-2.5394,-2.5265,-2.4921,-2.4921,-2.4921,-2.4981,-2.4981,-2.5052,-2.5182,-2.5182,-2.5241,-2.5312,-2.5241,-2.5182,-2.5241,-2.5241,-2.5182,-2.7196,-2.7566,0.0,0.0,0.0,0.0,-3.1774,-3.1289,0.0,0.0,0.0,0.0,0.0,0.0,0.0,0.0,0.0,0.0,0.0,0.0,0.0,0.0,0.0,0.0,0.0,0.0,-3.3578,-3.3417,-3.3161,-3.3114,-3.3419,-3.334,-3.3309,-3.3309,-3.3309,-3.3309,-3.3309,-3.3309,-3.3309,-3.3309,-3.3309,-3.3309,-3.3309,-3.3309,-3.3309,-3.3309,-3.3309,-3.3309,-3.3309,-3.3309,-3.3565,-3.4023,-3.3951,-3.4172,-3.4585,-3.4503,-3.4121,-3.3629,-3.3552,-3.3567,-3.3521,-3.2844,-3.3029,-3.3413,-3.2798,-3.2628,-3.2557,-3.2313,-3.1799,-3.1161,-3.0702,-3.0568,-3.0568,-3.0568,-3.0568,-3.0568,-3.0507,-3.0642,-3.0702,-3.0433,-3.0447,-3.0312,-2.9747,-2.9484,-2.8967,-2.767,-2.7417,-2.7162,-2.6589,-2.6465,-2.6327,-2.598,-2.591,-2.5688,-2.5265,-2.5194,-2.5111,-2.5111,-2.5111,-2.5182,-2.5312,-2.5241,-2.5241,-2.5312,-2.5312,-2.5241,-2.5241,-2.5312,-2.5241,-2.5111,-2.5111,-2.5052,-2.8423,-2.8246,-2.798,-2.7531,0.0,0.0,0.0,-2.7651,0.0,0.0,0.0,0.0,0.0,0.0,0.0,0.0,0.0,0.0,0.0,0.0,0.0,0.0,0.0,0.0,0.0,0.0,-3.4752,-3.4222,-3.3836,-3.3787,-3.4099,-3.3593,-3.3309,-3.3309,-3.3309,-3.3309,-3.3309,-3.3309,-3.3309,-3.3309,-3.3309,-3.3309,-3.3309,-3.3309,-3.3309,-3.3309,-3.3309,-3.3309,-3.3309,-3.3309,-3.3388,-3.3508,-3.3763,-3.3948,-3.4063,-3.4392,-3.4737,-3.4999,-3.4445,-3.4629,-3.4968,-3.4291,-3.4152,-3.4245,-3.4106,-3.4075,-3.3894,-3.2732,-3.1781,-3.097,-3.0687,-3.0568,-3.0568,-3.0568,-3.0568,-3.0447,-2.9931,-3.0312,-3.0433,-2.9142,-2.9484,-2.9931,-2.9808,-2.8712,-2.7802,-2.7537,-2.704,-2.6658,-2.6521,-2.6339,-2.627,-2.6396,-2.6119,-2.584,-2.5758,-2.5618,-2.5465,-2.5241,-2.5182,-2.5182,-2.5312,-2.5052,-2.5052,-2.5312,-2.5182,-2.5052,-2.4921,-2.5182,-2.5312,-2.5241,-2.5241,-2.5241,-2.7966,-2.7827,-2.7813,-2.769,0.0,0.0,0.0,0.0,0.0,0.0,0.0,0.0,0.0,0.0,0.0,0.0,0.0,0.0,0.0,0.0,0.0,0.0,0.0,0.0,0.0,0.0,-3.4729,-3.418,-3.428,-3.4435,-3.4603,-3.4455,-3.4178,-3.3814,-3.3799,-3.364,-3.3309,-3.3309,-3.3309,-3.3309,-3.3309,-3.3309,-3.3309,-3.3309,-3.3309,-3.3309,-3.3309,-3.3309,-3.3309,-3.3309,-3.3309,-3.3287,-3.338,-3.363,-3.3902,-3.3944,-3.4383,-3.4922,-3.4599,-3.4922,-3.5368,-3.4691,-3.4706,-3.4922,-3.4568,-3.4171,-3.3465,-3.2109,-3.1397,-3.0911,-3.0687,-3.0568,-3.0642,-3.0702,-3.0387,-3.0129,-3.0312,-3.0068,-2.9769,-2.9658,-2.916,-2.8712,-2.8648,-2.7999,-2.7417,-2.704,-2.6714,-2.6533,-2.6533,-2.6396,-2.6327,-2.6188,-2.605,-2.5758,-2.5548,-2.5407,-2.5324,-2.5182,-2.5111,-2.5182,-2.5312,-2.5111,-2.5123,-2.5182,-2.5052,-2.4921,-2.4921,-2.5111,-2.5182,-2.5182,-2.5241,-2.5312,0.0,0.0,0.0,0.0,0.0,-2.6876,0.0,0.0,0.0,0.0,0.0,0.0,0.0,0.0,0.0,0.0,0.0,0.0,0.0,0.0,0.0,0.0,0.0,0.0,0.0,0.0,-3.4164,-3.4091,-3.426,-3.4514,-3.4893,-3.5153,-3.5054,-3.4525,-3.4494,-3.4178,-3.3498,-3.3482,-3.3435,-3.3309,-3.3309,-3.3309,-3.3309,-3.3309,-3.3309,-3.3309,-3.3309,-3.3309,-3.3309,-3.3435,-3.3498,-3.3461,-3.3208,-3.3443,-3.3886,-3.3681,-3.406,-3.466,-3.466,-3.5106,-3.5584,-3.5045,-3.523,-3.5568,-3.5029,-3.4056,-3.2868,-3.1783,-3.122,-3.0851,-3.0687,-3.0642,-3.0671,-3.0713,-3.0301,-2.9944,-3.0582,-2.9834,-2.9333,-3.0113,-2.8944,-2.7828,-2.7695,-2.7482,-2.7095,-2.6589,-2.6533,-2.6465,-2.6465,-2.6396,-2.6258,-2.591,-2.584,-2.5618,-2.5265,-2.5182,-2.5111,-2.5111,-2.5111,-2.5182,-2.5312,-2.5312,-2.5182,-2.5052,-2.4861,-2.4861,-2.5052,-2.5052,-2.5111,-2.5111,-2.5241,-2.5312,0.0,0.0,0.0,0.0,-2.806,0.0,0.0,0.0,0.0,0.0,0.0,0.0,0.0,0.0,0.0,0.0,0.0,0.0,0.0,0.0,0.0,0.0,0.0,0.0,0.0,0.0,0.0,-3.4774,-3.3269,-3.3069,-3.4831,-3.4966,-3.5049,-3.5268,-3.5268,-3.492,-3.4178,-3.4178,-3.3878,-3.3309,-3.3309,-3.3309,-3.3309,-3.3309,-3.3309,-3.3309,-3.3309,-3.3309,-3.3356,-3.3941,-3.4139,-3.4007,-3.3857,-3.3864,-3.3948,-3.4253,-3.4783,-3.5368,-3.5368,-3.5814,-3.6368,-3.6292,-3.6307,-3.6368,-3.6292,-3.4973,-3.3381,-3.3245,-3.1973,-3.0687,-3.0762,-3.0762,-3.0773,-3.0663,-3.0573,-3.028,-2.9493,-2.9806,-2.9888,-2.8607,-2.8412,-2.8381,-2.8394,-2.7417,-2.6589,-2.6533,-2.6533,-2.6465,-2.627,-2.605,-2.598,-2.591,-2.5606,-2.5382,-2.5535,-2.5382,-2.5312,-2.5312,-2.5312,-2.5312,-2.5312,-2.5182,-2.5052,-2.4861,-2.479,-2.479,-2.4861,-2.4981,-2.5182,-2.5312,-2.5312,-2.5312,0.0,0.0,0.0,0.0,0.0,0.0,-2.4338,0.0,-2.3012,0.0,0.0,0.0,0.0,0.0,0.0,0.0,0.0,0.0,0.0,0.0,0.0,0.0,0.0,0.0,0.0,0.0,0.0,0.0,0.0,-3.2376,-3.3986,-3.5023,-3.5504,-3.5394,-3.5789,-3.5647,-3.4936,-3.492,-3.4573,-3.3878,-3.3878,-3.3672,-3.3309,-3.3309,-3.3309,-3.3309,-3.3309,-3.3309,-3.3324,-3.3502,-3.3574,-3.356,-3.4135,-3.4623,-3.4953,-3.5071,-3.5476,-3.6061,-3.6061,-3.6245,-3.6492,-3.6492,-3.6492,-3.6276,-3.5094,-3.4135,-3.329,-3.2106,-3.1291,-3.0642,-3.019,-3.019,-3.0125,-2.9666,-2.9196,-2.8874,-2.8985,-2.8597,-2.8157,-2.8342,-2.7816,-2.7408,-2.7729,-2.7081,-2.6465,-2.6339,-2.6339,-2.6258,-2.6062,-2.598,-2.584,-2.5758,-2.5535,-2.5453,-2.5453,-2.5382,-2.5312,-2.5312,-2.5241,-2.5241,-2.5312,-2.5052,-2.4921,-2.4992,-2.4861,-2.4861,-2.4992,-2.5052,-2.5182,-2.5312,-2.5312,-2.5312,-2.8399,0.0,0.0,0.0,0.0,0.0,0.0,0.0,0.0,0.0,0.0,0.0,0.0,0.0,0.0,0.0,0.0,0.0,0.0,0.0,0.0,0.0,0.0,0.0,0.0,0.0,0.0,0.0,0.0,0.0,-3.3121,-3.4392,-3.5047,-3.508,-3.5754,-3.5618,-3.4499,-3.5288,-3.5093,-3.3999,-3.4179,-3.4036,-3.3577,-3.3388,-3.3309,-3.3309,-3.3309,-3.3309,-3.3324,-3.3392,-3.3379,-3.3412,-3.4602,-3.5267,-3.5672,-3.5752,-3.6076,-3.6492,-3.6492,-3.6492,-3.6492,-3.6492,-3.6306,-3.583,-3.4394,-3.3592,-3.287,-3.1258,-3.0638,-3.0326,-2.956,-2.9435,-2.9401,-2.8852,-2.8226,-2.7933,-2.8624,-2.7819,-2.7227,-2.8187,-2.7506,-2.6816,-2.7135,-2.6759,-2.6396,-2.6201,-2.6131,-2.6062,-2.5828,-2.5828,-2.5758,-2.5535,-2.5535,-2.5453,-2.5312,-2.5312,-2.5312,-2.5312,-2.5182,-2.5182,-2.5241,-2.4981,-2.4921,-2.5123,-2.4992,-2.4992,-2.5182,-2.5182,-2.5182,-2.5312,-2.5312,-2.5312,0.0,0.0,0.0,-2.5863,0.0,0.0,0.0,0.0,-2.2988,0.0,0.0,0.0,0.0,0.0,0.0,0.0,0.0,0.0,0.0,0.0,0.0,0.0,0.0,0.0,0.0,0.0,0.0,0.0,0.0,0.0,-3.2336,-3.2591,-3.3094,-3.4191,-3.5076,-3.4409,-3.2108,-3.4957,-3.5321,-3.3253,-3.3944,-3.4273,-3.4241,-3.3593,-3.3309,-3.3309,-3.3309,-3.3309,-3.3356,-3.4004,-3.4125,-3.4036,-3.5361,-3.5745,-3.5553,-3.6215,-3.6476,-3.6492,-3.6492,-3.6492,-3.6492,-3.6492,-3.586,-3.5064,-3.5126,-3.3834,-3.2212,-3.1453,-3.0573,-2.9685,-2.898,-2.8867,-2.8797,-2.8531,-2.846,-2.8425,-2.8198,-2.8119,-2.8059,-2.8072,-2.7632,-2.7185,-2.7042,-2.6549,-2.6213,-2.6213,-2.605,-2.5828,-2.5618,-2.5606,-2.5535,-2.5312,-2.5312,-2.5312,-2.5312,-2.5312,-2.5312,-2.5312,-2.5312,-2.5241,-2.5111,-2.5123,-2.5123,-2.5123,-2.5123,-2.5182,-2.5312,-2.5312,-2.5312,-2.5312,-2.5312,-2.5312,0.0,0.0,-2.9483,-2.6778,0.0,0.0,0.0,0.0,0.0,0.0,0.0,0.0,0.0,0.0,0.0,0.0,0.0,0.0,0.0,0.0,0.0,0.0,0.0,0.0,0.0,0.0,0.0,0.0,0.0,0.0,0.0,-3.057,-3.159,-3.2254,-3.4346,-3.4683,-3.2852,-3.4848,-3.5146,-3.387,-3.4233,-3.4664,-3.4984,-3.4288,-3.3957,-3.3941,-3.3482,-3.3309,-3.3356,-3.3834,-3.3966,-3.4011,-3.5189,-3.5596,-3.5568,-3.6245,-3.6492,-3.6492,-3.6492,-3.6492,-3.6492,-3.6492,-3.5891,-3.4927,-3.3749,-3.2573,-3.1319,-2.9862,-2.9309,-2.898,-2.8143,-2.8012,-2.7921,-2.7327,-2.7173,-2.7169,-2.7037,-2.7017,-2.7017,-2.7017,-2.6809,-2.6614,-2.6659,-2.6439,-2.6107,-2.5828,-2.5758,-2.5606,-2.5465,-2.5382,-2.5382,-2.5312,-2.5312,-2.5312,-2.5312,-2.5312,-2.5312,-2.5312,-2.5241,-2.5182,-2.5241,-2.5182,-2.5111,-2.5241,-2.5241,-2.5241,-2.5312,-2.4791,-2.4492,-2.4492,-2.3986,-2.4059,-3.0189,-3.0137,0.0,-2.751,-2.67,0.0,-2.3511,0.0,0.0,0.0,0.0,0.0,0.0,0.0,0.0,0.0,0.0,0.0,0.0,0.0,0.0,0.0,0.0,0.0,0.0,0.0,-2.3348,-2.5043,-2.4451,0.0,0.0,0.0,-2.9958,-3.0426,-3.2841,-3.3333,-3.1743,-3.4212,-3.4713,-3.3126,-3.4537,-3.5143,-3.5065,-3.4833,-3.4683,-3.4636,-3.3957,-3.3656,-3.3688,-3.3889,-3.3926,-3.3995,-3.513,-3.5536,-3.5568,-3.6245,-3.6338,-3.6138,-3.6138,-3.6138,-3.603,-3.5445,-3.4787,-3.3918,-3.2208,-3.1082,-3.0087,-2.86,-2.8325,-2.8195,-2.7364,-2.7229,-2.7162,-2.6589,-2.6533,-2.6533,-2.6533,-2.6533,-2.6533,-2.6533,-2.6396,-2.6396,-2.644,-2.6302,-2.6094,-2.5758,-2.5688,-2.5606,-2.5312,-2.5312,-2.5312,-2.5312,-2.5312,-2.5312,-2.5312,-2.5312,-2.5312,-2.5312,-2.5241,-2.5182,-2.5312,-2.5241,-2.5182,-2.5312,-2.5312,-2.5312,-2.5312,-2.4492,-2.4264,-2.4492,-2.3169,-2.2859]},{"header":{"parameterUnit":"m.s-1","parameterCategory":1,"la1":30.6,"la2":29.2853,"lo1":-89.7004,"lo2":-87.6739,"dy":0.0162,"dx":0.0183,"nx":112,"ny":82,"refTime":"2026-03-18T12:00:00:Z","depth":0,"parameterNumber":3,"parameterNumberName":"V-component_of_WINDS"},"data":[0.0,0.0,0.0,0.0,0.0,0.0,0.0,0.0,0.0,0.0,0.0,0.0,0.0,0.0,0.0,0.0,0.0,0.0,0.0,0.0,0.0,0.0,0.0,0.0,0.0,0.0,0.0,0.0,0.0,0.0,0.0,0.0,0.0,0.0,0.0,0.0,0.0,0.0,0.0,0.0,0.0,0.0,0.0,0.0,0.0,0.0,0.0,0.0,0.0,0.0,0.0,0.0,0.0,0.0,0.0,0.0,0.0,0.0,0.0,0.0,0.0,0.0,0.0,0.0,0.0,0.0,0.0,0.0,0.0,0.0,0.0,0.0,0.0,0.0,0.0,0.0,0.0,0.0,0.0,0.0,0.0,0.0,0.0,0.0,0.0,0.0,0.0,0.0,0.0,0.0,0.0,-1.9312,-2.1708,-2.3237,-2.3392,-2.3646,-2.2981,-2.091,0.0,0.0,0.0,0.0,0.0,0.0,0.0,0.0,0.0,0.0,0.0,0.0,0.0,0.0,0.0,0.0,0.0,0.0,0.0,0.0,0.0,0.0,0.0,0.0,0.0,0.0,0.0,0.0,0.0,0.0,0.0,0.0,0.0,0.0,0.0,0.0,0.0,0.0,0.0,0.0,0.0,0.0,0.0,0.0,0.0,0.0,0.0,0.0,0.0,0.0,0.0,0.0,0.0,0.0,0.0,0.0,0.0,0.0,0.0,0.0,0.0,0.0,0.0,0.0,0.0,0.0,0.0,0.0,0.0,0.0,0.0,0.0,0.0,0.0,0.0,0.0,0.0,0.0,0.0,0.0,0.0,0.0,0.0,0.0,0.0,0.0,0.0,0.0,0.0,0.0,0.0,0.0,0.0,0.0,0.0,0.0,0.0,0.0,0.0,0.0,0.0,0.0,0.0,0.0,-1.9084,-2.2434,-2.3546,-2.4272,-2.5107,-2.4082,-2.324,-2.2746,0.0,0.0,0.0,0.0,0.0,0.0,0.0,0.0,0.0,0.0,0.0,0.0,0.0,0.0,0.0,0.0,0.0,0.0,0.0,0.0,0.0,0.0,0.0,0.0,0.0,0.0,0.0,0.0,0.0,0.0,0.0,0.0,0.0,0.0,0.0,0.0,0.0,0.0,0.0,0.0,0.0,0.0,0.0,0.0,0.0,0.0,0.0,0.0,0.0,0.0,0.0,0.0,0.0,0.0,0.0,0.0,0.0,0.0,0.0,0.0,0.0,0.0,0.0,0.0,0.0,0.0,0.0,0.0,0.0,0.0,0.0,0.0,0.0,0.0,0.0,0.0,0.0,0.0,0.0,0.0,0.0,0.0,0.0,0.0,0.0,0.0,0.0,0.0,0.0,0.0,0.0,0.0,0.0,0.0,0.0,0.0,0.0,0.0,0.0,0.0,0.0,0.0,0.0,-1.8861,-2.04,-2.3149,-2.41,-2.4627,-2.4777,-2.4241,-2.3505,-2.2444,-2.0479,0.0,0.0,0.0,0.0,0.0,0.0,0.0,0.0,0.0,0.0,0.0,0.0,0.0,0.0,0.0,0.0,0.0,0.0,0.0,0.0,0.0,0.0,0.0,0.0,0.0,0.0,0.0,0.0,0.0,0.0,0.0,0.0,0.0,0.0,0.0,0.0,0.0,0.0,0.0,0.0,0.0,0.0,0.0,0.0,0.0,0.0,0.0,0.0,0.0,0.0,0.0,0.0,0.0,0.0,0.0,0.0,0.0,0.0,0.0,0.0,0.0,0.0,0.0,0.0,0.0,0.0,0.0,0.0,0.0,0.0,0.0,0.0,0.0,0.0,0.0,0.0,0.0,0.0,0.0,0.0,0.0,0.0,0.0,0.0,0.0,0.0,0.0,0.0,0.0,0.0,0.0,0.0,0.0,0.0,0.0,0.0,0.0,0.0,0.0,0.0,0.0,0.0,-2.1137,-2.2031,-2.3521,-2.4522,-2.4956,-2.4632,-2.4297,-2.3467,-2.2119,-2.0124,0.0,0.0,0.0,0.0,0.0,0.0,0.0,0.0,0.0,0.0,0.0,0.0,0.0,0.0,0.0,0.0,0.0,0.0,0.0,0.0,0.0,0.0,0.0,0.0,0.0,0.0,0.0,0.0,0.0,0.0,0.0,0.0,0.0,0.0,0.0,0.0,0.0,0.0,0.0,0.0,0.0,0.0,0.0,0.0,0.0,0.0,0.0,0.0,0.0,0.0,0.0,0.0,0.0,0.0,0.0,0.0,0.0,0.0,0.0,0.0,0.0,0.0,0.0,0.0,0.0,0.0,0.0,0.0,0.0,0.0,0.0,0.0,0.0,0.0,0.0,0.0,0.0,0.0,0.0,0.0,0.0,0.0,0.0,0.0,0.0,0.0,0.0,0.0,0.0,0.0,0.0,0.0,0.0,0.0,0.0,0.0,0.0,0.0,0.0,0.0,0.0,0.0,-2.2191,-2.4205,-2.4351,-2.511,-2.5624,-2.5674,-2.4116,-2.3004,-2.2563,-1.9713,0.0,0.0,0.0,0.0,0.0,0.0,0.0,0.0,0.0,0.0,0.0,0.0,0.0,0.0,0.0,0.0,0.0,0.0,0.0,0.0,0.0,0.0,0.0,0.0,0.0,0.0,0.0,0.0,0.0,0.0,0.0,0.0,0.0,0.0,0.0,0.0,0.0,0.0,0.0,0.0,0.0,0.0,0.0,0.0,0.0,0.0,0.0,0.0,0.0,0.0,0.0,0.0,0.0,0.0,0.0,0.0,0.0,0.0,0.0,0.0,0.0,0.0,0.0,0.0,0.0,0.0,0.0,0.0,0.0,0.0,0.0,0.0,0.0,0.0,0.0,0.0,0.0,0.0,0.0,0.0,0.0,0.0,0.0,0.0,0.0,0.0,0.0,0.0,0.0,0.0,0.0,0.0,0.0,0.0,0.0,0.0,0.0,0.0,0.0,0.0,0.0,0.0,-2.1924,-2.3623,0.0,-2.5391,-2.561,-2.5172,-2.4436,-2.3262,-2.163,0.0,0.0,0.0,0.0,0.0,0.0,0.0,0.0,0.0,0.0,0.0,0.0,0.0,0.0,0.0,0.0,0.0,0.0,0.0,0.0,0.0,0.0,0.0,0.0,0.0,0.0,0.0,0.0,0.0,0.0,0.0,0.0,0.0,0.0,0.0,0.0,0.0,0.0,0.0,0.0,0.0,0.0,0.0,0.0,0.0,0.0,0.0,0.0,0.0,0.0,0.0,0.0,0.0,0.0,0.0,0.0,0.0,0.0,0.0,0.0,0.0,0.0,0.0,0.0,0.0,0.0,0.0,0.0,0.0,0.0,0.0,0.0,0.0,0.0,0.0,0.0,0.0,0.0,0.0,0.0,0.0,0.0,0.0,0.0,0.0,0.0,0.0,0.0,0.0,0.0,0.0,0.0,0.0,0.0,0.0,0.0,0.0,0.0,0.0,0.0,0.0,0.0,-2.0272,-2.2177,-2.3799,0.0,-2.5438,-2.545,-2.4725,-2.4117,-2.2868,-2.0864,0.0,0.0,0.0,0.0,0.0,0.0,0.0,0.0,0.0,0.0,0.0,0.0,0.0,0.0,0.0,0.0,0.0,0.0,0.0,0.0,0.0,0.0,0.0,0.0,0.0,0.0,0.0,0.0,0.0,0.0,0.0,0.0,0.0,0.0,0.0,0.0,0.0,0.0,0.0,0.0,0.0,0.0,0.0,0.0,0.0,0.0,0.0,0.0,0.0,0.0,0.0,0.0,0.0,0.0,0.0,0.0,0.0,0.0,0.0,0.0,0.0,0.0,0.0,0.0,0.0,0.0,0.0,0.0,0.0,0.0,0.0,0.0,0.0,0.0,0.0,0.0,0.0,0.0,0.0,0.0,0.0,0.0,0.0,0.0,0.0,0.0,0.0,0.0,0.0,0.0,0.0,0.0,0.0,0.0,0.0,0.0,0.0,0.0,0.0,0.0,0.0,0.0,-2.0359,-2.3236,-2.5145,-2.489,-2.5288,-2.5279,-2.4545,-2.3098,-2.169,0.0,0.0,0.0,0.0,0.0,0.0,0.0,0.0,0.0,0.0,0.0,0.0,0.0,0.0,0.0,0.0,0.0,0.0,0.0,0.0,0.0,0.0,0.0,0.0,0.0,0.0,0.0,0.0,0.0,0.0,0.0,0.0,0.0,0.0,0.0,0.0,0.0,0.0,0.0,0.0,0.0,0.0,0.0,0.0,0.0,0.0,0.0,0.0,0.0,0.0,0.0,0.0,0.0,0.0,0.0,0.0,0.0,0.0,0.0,0.0,0.0,0.0,0.0,0.0,0.0,0.0,0.0,0.0,0.0,0.0,0.0,0.0,0.0,0.0,0.0,0.0,0.0,0.0,0.0,0.0,0.0,0.0,0.0,0.0,0.0,0.0,0.0,0.0,0.0,0.0,0.0,0.0,0.0,0.0,0.0,0.0,0.0,0.0,0.0,0.0,0.0,0.0,0.0,-2.0021,-2.2757,-2.4692,-2.4604,-2.4725,-2.4655,-2.4356,-2.3322,-2.1838,-1.9748,0.0,0.0,0.0,0.0,0.0,0.0,0.0,0.0,0.0,0.0,0.0,0.0,0.0,0.0,0.0,0.0,0.0,0.0,0.0,0.0,0.0,0.0,0.0,0.0,0.0,0.0,0.0,0.0,0.0,0.0,0.0,0.0,0.0,0.0,0.0,0.0,0.0,0.0,0.0,0.0,0.0,0.0,0.0,0.0,0.0,0.0,0.0,0.0,0.0,0.0,0.0,0.0,0.0,0.0,0.0,0.0,0.0,0.0,0.0,0.0,0.0,0.0,0.0,0.0,0.0,0.0,0.0,0.0,0.0,0.0,0.0,0.0,0.0,0.0,0.0,0.0,0.0,0.0,0.0,0.0,0.0,0.0,0.0,0.0,0.0,0.0,0.0,0.0,0.0,0.0,0.0,0.0,0.0,0.0,0.0,0.0,0.0,0.0,0.0,0.0,0.0,0.0,-1.9887,-2.2442,-2.4155,-2.4077,-2.4067,-2.3988,-2.3801,-2.3021,-2.1646,-1.9648,0.0,0.0,0.0,0.0,0.0,0.0,0.0,0.0,0.0,0.0,0.0,0.0,0.0,0.0,0.0,0.0,0.0,0.0,0.0,0.0,0.0,0.0,0.0,0.0,0.0,0.0,0.0,0.0,0.0,0.0,0.0,0.0,0.0,0.0,0.0,0.0,0.0,0.0,0.0,0.0,0.0,0.0,0.0,0.0,0.0,0.0,0.0,0.0,0.0,0.0,0.0,0.0,0.0,0.0,0.0,0.0,0.0,0.0,0.0,0.0,0.0,0.0,0.0,0.0,0.0,0.0,0.0,0.0,0.0,0.0,0.0,0.0,0.0,0.0,0.0,0.0,0.0,0.0,0.0,0.0,0.0,0.0,0.0,0.0,0.0,0.0,0.0,0.0,0.0,0.0,0.0,0.0,0.0,0.0,0.0,0.0,0.0,0.0,0.0,0.0,0.0,0.0,-1.9815,-2.209,-2.3627,-2.3493,-2.3503,-2.3319,-2.3135,-2.2402,-2.1367,-2.0,0.0,0.0,0.0,0.0,0.0,0.0,0.0,0.0,0.0,0.0,0.0,0.0,0.0,0.0,0.0,0.0,0.0,0.0,0.0,0.0,0.0,0.0,0.0,0.0,0.0,0.0,0.0,0.0,0.0,0.0,0.0,0.0,0.0,0.0,0.0,0.0,0.0,0.0,0.0,0.0,0.0,0.0,0.0,0.0,0.0,0.0,0.0,0.0,0.0,0.0,0.0,0.0,0.0,0.0,0.0,0.0,0.0,0.0,0.0,0.0,-1.4374,0.0,0.0,0.0,0.0,0.0,0.0,0.0,0.0,0.0,0.0,0.0,0.0,0.0,0.0,0.0,0.0,0.0,0.0,0.0,0.0,0.0,0.0,0.0,0.0,0.0,0.0,0.0,0.0,0.0,0.0,0.0,0.0,0.0,0.0,0.0,0.0,0.0,0.0,0.0,0.0,0.0,-1.9393,-2.142,-2.2859,-2.3193,-2.3232,-2.3144,-2.3135,-2.2676,-2.167,-2.0019,-1.8879,0.0,0.0,0.0,0.0,0.0,0.0,0.0,0.0,0.0,0.0,0.0,0.0,0.0,0.0,0.0,0.0,0.0,0.0,0.0,0.0,0.0,0.0,0.0,0.0,0.0,0.0,0.0,0.0,0.0,0.0,0.0,0.0,0.0,0.0,0.0,0.0,0.0,0.0,0.0,0.0,0.0,0.0,0.0,0.0,0.0,0.0,0.0,0.0,0.0,0.0,0.0,0.0,0.0,0.0,0.0,0.0,0.0,0.0,0.0,0.0,-1.5283,0.0,0.0,0.0,0.0,0.0,0.0,0.0,0.0,0.0,0.0,0.0,0.0,0.0,0.0,0.0,0.0,0.0,0.0,0.0,0.0,0.0,0.0,0.0,0.0,0.0,0.0,0.0,0.0,0.0,0.0,0.0,0.0,0.0,0.0,0.0,0.0,0.0,0.0,0.0,0.0,-1.9238,-2.1172,-2.2676,-2.3096,-2.3135,-2.3135,-2.3319,-2.2935,-2.2211,-2.0946,-2.0036,0.0,0.0,0.0,0.0,0.0,0.0,0.0,0.0,0.0,0.0,0.0,0.0,0.0,0.0,0.0,0.0,0.0,0.0,0.0,0.0,0.0,0.0,0.0,0.0,0.0,0.0,0.0,0.0,0.0,0.0,0.0,0.0,0.0,0.0,0.0,0.0,0.0,0.0,0.0,0.0,0.0,0.0,0.0,0.0,0.0,0.0,0.0,0.0,0.0,0.0,0.0,0.0,0.0,-1.4751,-1.5456,-1.6478,-1.642,-1.6573,-1.6839,-1.6684,-1.6972,-1.752,0.0,0.0,0.0,0.0,0.0,0.0,0.0,0.0,0.0,0.0,0.0,0.0,0.0,0.0,0.0,0.0,0.0,0.0,0.0,0.0,0.0,0.0,0.0,0.0,0.0,-2.0791,-2.041,0.0,0.0,0.0,0.0,0.0,0.0,0.0,0.0,0.0,0.0,0.0,0.0,-1.9346,-2.1221,-2.2676,-2.3096,-2.3144,-2.3232,-2.3503,-2.3262,-2.2852,-2.228,-2.1426,-2.0355,0.0,0.0,0.0,0.0,0.0,0.0,0.0,0.0,0.0,0.0,0.0,0.0,0.0,0.0,0.0,0.0,0.0,0.0,0.0,0.0,0.0,0.0,0.0,0.0,0.0,0.0,0.0,0.0,0.0,0.0,0.0,0.0,-0.776,-0.7955,0.0,0.0,0.0,0.0,0.0,0.0,0.0,0.0,0.0,0.0,0.0,0.0,0.0,0.0,-1.3265,-1.4849,-1.5429,-1.5053,-1.6944,-1.7767,-1.7728,-1.8431,-1.9025,-1.9253,-1.9804,0.0,-1.7143,-1.701,0.0,0.0,0.0,0.0,0.0,0.0,0.0,0.0,0.0,0.0,0.0,0.0,0.0,0.0,0.0,0.0,0.0,0.0,0.0,0.0,0.0,0.0,-2.209,-2.1787,-2.1545,-2.1395,0.0,-1.9932,-1.8477,-1.7949,0.0,0.0,0.0,0.0,0.0,0.0,0.0,0.0,-1.9775,-2.1396,-2.2761,-2.3367,-2.3416,-2.3493,-2.3754,-2.3704,-2.3706,-2.3663,-2.2732,-2.2186,-2.2249,-2.0824,0.0,0.0,0.0,0.0,0.0,0.0,0.0,0.0,0.0,0.0,0.0,0.0,0.0,0.0,0.0,0.0,0.0,0.0,0.0,0.0,0.0,0.0,0.0,0.0,0.0,0.0,0.0,0.0,0.0,-0.7172,-0.77,-0.787,-0.7959,-0.8014,0.0,0.0,0.0,0.0,0.0,0.0,0.0,0.0,0.0,-1.3507,-1.387,-1.4607,-1.5775,-1.6806,-1.7193,-1.702,-1.783,-1.8351,-1.8478,-1.8883,-1.9041,-1.924,-2.011,-1.9745,-1.8625,-1.8592,-1.8125,-1.7542,0.0,0.0,0.0,0.0,0.0,-1.7443,-1.8324,0.0,0.0,0.0,0.0,0.0,0.0,0.0,0.0,0.0,0.0,0.0,0.0,0.0,0.0,-2.2578,-2.2417,-2.2246,-2.2502,-2.1578,-2.0391,0.0,-1.9141,-1.8447,-1.7041,0.0,0.0,0.0,0.0,0.0,-2.0566,-2.1988,-2.3103,-2.3627,-2.3667,-2.4003,-2.4659,-2.4348,-2.4398,-2.5327,-2.4282,-2.3734,-2.3786,-2.2601,-2.158,0.0,0.0,0.0,0.0,0.0,0.0,0.0,0.0,0.0,0.0,0.0,0.0,0.0,0.0,0.0,0.0,0.0,0.0,0.0,0.0,0.0,0.0,0.0,0.0,0.0,0.0,0.0,0.0,-0.7249,-0.7749,-0.7782,-0.8087,-0.8286,0.0,0.0,0.0,0.0,0.0,0.0,-1.118,-1.1096,-1.2406,-1.5493,-1.5881,-1.657,-1.7744,-1.8245,-1.8482,-1.8458,-1.852,-1.8673,-1.9037,-1.9129,-1.924,-1.9414,-2.0159,-2.0455,-2.0296,-1.9946,-1.9324,-1.8595,-1.8052,-1.7391,-1.6835,-1.739,-1.818,-1.8995,-2.0721,-2.1701,-2.2339,-2.2492,0.0,-2.0776,-1.9788,0.0,0.0,0.0,0.0,-2.1269,-2.1934,0.0,-2.2505,-2.2892,-2.2794,-2.2715,-2.2969,-2.264,-2.1996,0.0,-2.0644,-1.9954,-1.8399,0.0,0.0,0.0,0.0,-2.0591,-2.1275,-2.2757,-2.3798,-2.4221,-2.4413,-2.4914,-2.5819,-2.5146,-2.5348,-2.6665,-2.568,-2.5081,-2.5241,-2.3988,-2.2975,-2.2146,0.0,0.0,0.0,0.0,0.0,0.0,0.0,0.0,0.0,0.0,0.0,0.0,0.0,0.0,0.0,0.0,0.0,0.0,0.0,0.0,0.0,0.0,0.0,0.0,0.0,0.0,0.0,0.0,0.0,-0.7653,-0.892,0.0,0.0,0.0,0.0,-0.8678,-0.8844,-0.9764,-1.1684,-1.2069,-1.3609,-1.6675,-1.6929,-1.7558,-1.8575,-1.897,-1.8869,-1.865,-1.8897,-1.9267,-1.9643,-2.0176,-2.0556,-2.053,-2.1252,-2.1477,-2.1481,-2.0486,-2.004,-1.963,-1.9308,-1.9147,-1.931,-2.0327,-2.0821,-2.1122,-2.2637,-2.3198,-2.3261,-2.3504,-2.2489,-2.1004,-2.0407,-1.996,0.0,0.0,-2.0861,-2.1953,-2.2373,-2.263,-2.2775,-2.2794,-2.2451,-2.2274,-2.2715,-2.2608,-2.2244,0.0,-2.0822,-2.0014,-2.0118,0.0,-1.9787,-1.9787,-2.1255,-2.2281,-2.1889,-2.3691,-2.5104,-2.54,-2.6152,-2.673,-2.6987,-2.6542,-2.6574,-2.7478,-2.6521,-2.6299,-2.7135,-2.5109,-2.3929,-2.3879,-2.1192,0.0,0.0,0.0,0.0,0.0,0.0,0.0,0.0,0.0,0.0,0.0,0.0,0.0,0.0,0.0,0.0,0.0,0.0,0.0,0.0,0.0,0.0,0.0,0.0,0.0,0.0,0.0,0.0,-0.7409,-0.823,0.0,-0.8498,-0.8511,-0.8769,-0.9349,-0.9279,-1.0478,-1.3202,-1.3372,-1.4917,-1.7988,-1.8095,-1.8392,-1.8915,-1.9012,-1.9054,-1.8939,-1.903,-1.9109,-1.9317,-2.0011,-2.0258,-2.0341,-2.1041,-2.1334,-2.1245,-2.1173,-2.0988,-2.064,-2.0106,-2.0173,-2.0833,-2.136,-2.2465,-2.3616,-2.4381,-2.4758,-2.4708,-2.3956,-2.3183,-2.2494,-2.2094,-2.1854,-2.1738,-2.2064,-2.2415,-2.2938,-2.3332,-2.3314,-2.3189,-2.3534,-2.3287,-2.3032,-2.3378,-2.3232,-2.3144,-2.3097,-2.2394,-2.1755,-2.1419,-2.1211,-2.1138,-2.0998,-2.1741,-2.2584,-2.3084,-2.3878,-2.4441,-2.4829,-2.5673,-2.6278,-2.6531,-2.6417,-2.6726,-2.7866,-2.6311,-2.5802,-2.6753,-2.4983,-2.3828,-2.3452,-2.2108,-2.0878,0.0,0.0,0.0,0.0,0.0,0.0,0.0,0.0,0.0,0.0,0.0,0.0,0.0,0.0,0.0,0.0,0.0,0.0,0.0,0.0,0.0,0.0,0.0,0.0,0.0,0.0,-0.7015,-0.7038,-0.8004,-0.8598,-0.8406,-0.883,-0.924,-0.9678,-1.0044,-1.1523,-1.4202,-1.4725,-1.622,-1.8801,-1.8813,-1.8897,-1.9072,-1.9078,-1.9078,-1.9078,-1.9078,-1.9236,-1.9443,-1.989,-2.0258,-2.0585,-2.0903,-2.1121,-2.13,-2.1444,-2.135,-2.1126,-2.0827,-2.1281,-2.2057,-2.2722,-2.3759,-2.5048,-2.5298,-2.5413,-2.5321,-2.4326,-2.372,-2.3296,-2.3082,-2.3045,-2.3045,-2.3242,-2.3336,-2.3523,-2.3784,-2.3587,-2.3417,-2.3757,-2.3582,-2.3397,-2.364,-2.359,-2.359,-2.3851,-2.3438,-2.2889,-2.2705,-2.2594,-2.2524,-2.2405,-2.2829,-2.3343,-2.3966,-2.4497,-2.5076,-2.5463,-2.6318,-2.6909,-2.7136,-2.686,-2.6983,-2.7773,-2.6033,-2.5264,-2.5912,-2.4494,-2.3439,-2.2874,-2.2133,-2.1117,-1.9798,0.0,0.0,0.0,0.0,0.0,0.0,0.0,0.0,0.0,0.0,0.0,0.0,0.0,0.0,0.0,0.0,0.0,0.0,0.0,0.0,0.0,0.0,0.0,-0.5812,-0.6439,-0.6757,-0.6441,-0.8217,-0.9026,-0.7838,-0.9337,-1.02,-0.9964,-1.1321,-1.2931,-1.4709,-1.6012,-1.7528,-1.9066,-1.9078,-1.9078,-1.9078,-1.9078,-1.9078,-1.9078,-1.9078,-1.9462,-2.0106,-2.0106,-2.0482,-2.1109,-2.1109,-2.1235,-2.1587,-2.1279,-2.1101,-2.1279,-2.1568,-2.2276,-2.3199,-2.4275,-2.4833,-2.5148,-2.5414,-2.5311,-2.5088,-2.4678,-2.4082,-2.3492,-2.34,-2.3373,-2.3373,-2.3373,-2.357,-2.3758,-2.3739,-2.3601,-2.3448,-2.3419,-2.3279,-2.3242,-2.3503,-2.3503,-2.3677,-2.411,-2.3667,-2.3406,-2.411,-2.4024,-2.3872,-2.3876,-2.4487,0.0,-2.4385,-2.5766,-2.6944,-2.7483,-2.8334,-2.8825,-2.8825,-2.7908,-2.7268,-2.7256,-2.5711,-2.4795,-2.4795,-2.3715,-2.2862,-2.2322,-2.1242,-2.0401,-1.9823,0.0,0.0,0.0,0.0,0.0,0.0,0.0,0.0,0.0,0.0,0.0,0.0,0.0,0.0,0.0,0.0,0.0,0.0,0.0,0.0,0.0,0.0,-0.5672,-0.5899,-0.6494,-0.7043,-0.7591,-0.845,-0.9053,-0.9227,-0.9827,-1.0696,-1.181,-1.2242,-1.3642,-1.6219,-1.6754,-1.7569,-1.9072,-1.9078,-1.9078,-1.9078,-1.9078,-1.9078,-1.9078,-1.9328,-1.9584,-1.9711,-2.0227,-2.0609,-2.0736,-2.0982,-2.1109,-2.1215,-2.1162,-2.0985,-2.0777,-2.073,-2.1941,-2.3615,-2.3769,-2.499,-2.6756,-2.6471,-2.6154,-2.5824,-2.5097,-2.4588,-2.4156,-2.4054,-2.392,-2.392,-2.392,-2.4017,-2.4147,-2.4326,-2.4146,-2.4085,-2.4376,-2.4216,-2.4047,-2.4171,-2.4196,-2.4282,-2.4368,-2.4272,-2.4186,-2.4368,-2.4368,-2.4327,-2.4289,0.0,0.0,-2.4799,-2.5147,-2.5506,-2.6016,-2.6852,-2.7381,-2.7381,-2.7296,-2.7105,0.0,-2.5134,-2.4217,-2.4217,-2.3138,-2.2472,-2.2309,-2.1619,-2.0991,0.0,0.0,0.0,0.0,0.0,0.0,0.0,0.0,0.0,0.0,0.0,0.0,0.0,0.0,0.0,0.0,0.0,0.0,0.0,0.0,0.0,0.0,-0.5551,-0.6003,-0.6293,-0.6478,-0.6987,-0.806,-0.8371,-0.8969,-0.967,-1.0711,-1.1782,-1.2649,-1.3815,-1.5153,-1.6969,-1.7501,-1.8285,-1.9078,-1.9078,-1.9078,-1.9078,-1.9078,-1.9078,-1.9078,-1.945,-1.9705,-1.9839,-2.0354,-2.0736,0.0,-2.0982,-2.1042,-2.0915,-2.099,-2.0672,0.0,0.0,0.0,0.0,0.0,-2.5883,-2.7178,-2.6845,-2.648,-2.6059,-2.5433,-2.4932,-2.4572,-2.4306,-2.4152,-2.4214,-2.4235,-2.4189,-2.4281,-2.443,-2.4378,-2.4302,-2.4615,-2.453,-2.4415,-2.4516,-2.454,-2.454,-2.454,0.0,0.0,-2.426,-2.426,-2.426,-2.426,-2.4406,-2.457,0.0,-2.5286,-2.5731,-2.6181,-2.6686,-2.6981,-2.6981,-2.6946,0.0,0.0,0.0,-2.3791,-2.3314,-2.2435,0.0,0.0,0.0,0.0,0.0,0.0,0.0,0.0,-2.0896,-2.1159,0.0,0.0,0.0,0.0,0.0,0.0,0.0,0.0,0.0,0.0,0.0,0.0,0.0,0.0,0.0,0.0,-0.6165,-0.6636,-0.7275,-0.6767,-0.674,-0.794,-0.8291,-0.8727,-0.9766,-1.1626,-1.2812,-1.3206,-1.5549,-1.7109,-1.7238,0.0,0.0,0.0,0.0,-1.9078,-1.9078,-1.9078,-1.9078,-1.9078,-1.9456,-1.9839,-2.0106,-2.0488,-2.0856,-2.1109,-2.1076,-2.0915,-2.0675,-2.0601,-2.0348,-1.9902,-2.0319,-2.1881,-2.4089,-2.6127,-2.6952,0.0,0.0,0.0,0.0,-2.5555,-2.5142,-2.4711,-2.4335,-2.426,-2.4202,-2.4218,-2.4173,-2.4222,-2.4249,-2.4315,-2.4385,-2.4424,-2.4472,-2.454,-2.454,-2.4498,-2.4467,-2.4467,-2.4105,-2.3805,-2.3805,-2.3805,-2.3878,-2.395,-2.4425,0.0,-2.4952,-2.5839,-2.6653,-2.713,0.0,0.0,-2.7268,-2.6829,-2.6596,-2.6533,-2.4971,-2.3615,-2.2548,-2.2096,-2.1832,-2.1769,-2.2246,-2.2749,-2.3226,-2.3753,-2.4029,-2.4042,-2.2734,-2.2871,0.0,0.0,0.0,0.0,0.0,0.0,0.0,0.0,0.0,0.0,0.0,0.0,0.0,0.0,0.0,-0.8734,-0.8204,-0.839,-1.0366,-0.8301,-0.691,-0.7806,-0.7805,-0.8681,-1.108,-1.1743,-1.3054,-1.5934,-1.6716,-1.7501,-1.8682,-1.8944,0.0,-1.9078,-1.9078,-1.9078,-1.9078,-1.9078,-1.9078,-1.9078,0.0,0.0,-2.0106,-2.0736,-2.0982,-2.1096,-2.0862,-2.0728,-2.0641,-2.0167,-2.0192,-2.0648,-2.1569,-2.2691,-2.3986,-2.562,-2.6396,-2.6691,-2.6591,-2.6316,-2.5949,-2.5867,-2.5362,-2.4766,-2.4684,-2.4486,0.0,-2.423,-2.424,-2.4331,-2.4356,-2.4366,-2.4404,-2.4487,-2.4516,-2.454,-2.454,-2.426,-2.4002,-2.4002,-2.3639,-2.3318,-2.3318,-2.3318,-2.3552,-2.4143,-2.458,-2.5027,-2.5654,-2.6218,-2.6571,-2.6603,-2.6615,-2.6804,-2.7243,-2.718,-2.6929,-2.6559,-2.5322,-2.4368,-2.3703,-2.4004,-2.3966,-2.3514,-2.3615,-2.3728,-2.3841,-2.3941,-2.423,-2.4632,-2.4541,-2.4905,0.0,0.0,0.0,0.0,0.0,0.0,0.0,0.0,0.0,0.0,0.0,-0.7816,-0.8063,0.0,-0.9075,-0.9831,-0.9628,-0.978,-1.1094,-0.9995,-0.9437,-1.0213,-0.9252,-0.9766,-1.2795,-1.3582,-1.4754,-1.6845,-1.763,-1.8419,-1.9072,-1.9078,-1.9078,-1.9078,-1.9078,-1.9078,-1.9078,-1.9078,-1.9078,-1.9078,-1.9584,-1.9973,-2.01,-2.0459,-2.077,-2.0875,-2.0581,-2.0374,-2.0201,-2.0462,-2.0808,-2.1315,-2.2505,-2.3377,-2.4153,-2.5557,-2.6224,-2.6591,-2.6591,-2.6454,-2.6243,-2.6032,-2.5555,-2.5005,-2.4592,-2.4566,-2.4487,-2.404,-2.4312,-2.4623,-2.451,-2.4425,-2.4461,-2.4506,-2.454,-2.454,-2.454,-2.4188,-2.3877,-2.3877,-2.3318,-2.2991,-2.3366,-2.3264,-2.3335,-2.3917,-2.4607,-2.518,-2.5637,-2.6128,-2.6533,-2.6533,-2.6533,-2.6647,-2.6854,-2.6866,-2.6628,-2.6063,-2.5511,-2.4971,-2.4431,-2.4669,-2.4695,-2.4418,-2.4669,-2.4795,-2.4795,-2.5084,-2.5623,-2.6245,-2.6764,-2.6891,0.0,0.0,0.0,0.0,0.0,0.0,0.0,0.0,-0.748,-0.7891,-0.8469,-0.8965,-0.9287,-0.976,-1.0284,-1.0823,-1.0937,-1.114,-1.1666,-1.1487,-1.1805,-1.3198,-1.1372,-1.1187,-1.4241,-1.5419,-1.6333,-1.7367,-1.8419,-1.9078,-1.9078,-1.9078,-1.9078,-1.9078,-1.9078,-1.9078,-1.9078,-1.9078,-1.9078,-1.9078,-1.945,-1.9807,-2.0017,-2.0171,-2.04,-2.0575,-2.0281,-2.01,-2.0157,-2.0946,-2.1645,-2.2441,-2.3274,-2.3986,-2.4736,-2.5466,-2.6041,-2.6463,-2.6463,-2.6518,-2.6536,-2.6188,-2.5711,-2.5133,-2.4573,-2.4534,-2.4565,-2.4069,-2.4476,-2.4936,-2.4666,-2.4612,-2.454,-2.454,-2.454,-2.4519,-2.4436,-2.4064,-2.3826,-2.3981,-2.3228,-2.2921,-2.382,-2.3671,-2.3557,-2.3935,-2.4772,-2.5382,-2.5523,-2.6094,-2.6533,-2.6533,-2.6533,-2.6571,-2.6684,-2.6584,-2.6314,-2.5937,-2.5824,-2.5573,-2.5159,-2.5146,-2.5146,-2.5146,-2.5548,-2.5762,-2.5774,-2.6362,-2.6905,-2.7604,-2.8454,-2.8515,-0.4348,-0.4484,-0.4822,-0.5135,-0.597,-0.7024,0.0,0.0,-0.9832,-1.0199,-1.1166,-1.2021,-1.2462,-1.2478,-1.2655,-1.3448,-1.2655,-1.268,-1.4416,-1.2504,-1.2119,-1.5237,-1.3221,-1.2605,-1.5111,-1.5654,-1.6705,-1.8682,-1.9072,-1.9078,-1.9078,-1.9078,-1.9078,-1.9078,-1.9078,-1.9078,-1.9078,-1.9078,-1.9078,-1.9078,-1.945,-1.9713,-1.9744,-2.008,-2.0165,-2.0267,-1.9973,-2.0261,-2.0996,-2.1189,-2.2484,-2.4361,-2.3806,-2.4527,-2.5761,-2.517,-2.539,-2.6032,-2.6032,-2.627,-2.6582,-2.6536,-2.5757,-2.4932,-2.5245,-2.4641,-2.4033,-2.4735,-2.4733,-2.4681,-2.499,-2.485,-2.454,-2.454,-2.454,-2.4436,-2.4033,-2.3588,-2.3499,-2.4248,-2.3645,-2.3359,-2.4596,-2.4926,-2.504,-2.5099,-2.5194,-2.5523,-2.6245,-2.6452,-2.6533,-2.6533,-2.6533,-2.6653,-2.7155,-2.6741,-2.664,-2.7067,-2.664,-2.6339,-2.6276,-2.6276,-2.6276,-2.6276,-2.6395,-2.6433,-2.6433,-2.6744,-2.6973,-2.7095,-2.8363,-2.9213,-0.5339,-0.5341,0.0,0.0,-0.7665,-0.8687,-0.93,-1.0184,-1.1038,-1.1487,-1.1981,-1.2459,-1.3121,-1.3232,-1.3496,0.0,-1.3892,-1.401,-1.4976,-1.4216,-1.4198,-1.5809,-1.5226,-1.5241,-1.6626,-1.6776,-1.7507,-1.8944,-1.9078,-1.9078,-1.9078,-1.9078,-1.9078,-1.9078,-1.9078,-1.9078,-1.9078,-1.9078,-1.9,-1.8849,-1.8969,-1.9206,-1.9432,-1.9389,-1.952,-1.972,-1.9599,-1.9822,-2.027,-2.1623,-2.2624,-2.3211,-2.4201,-2.4756,-2.4895,-2.4812,-2.528,-2.5958,-2.5958,-2.6233,-2.6545,-2.6298,-2.5573,-2.4794,-2.4792,-2.4459,-2.4173,-2.4306,-2.4588,-2.4985,-2.5181,-2.4892,-2.4612,-2.4881,-2.4736,-2.4416,-2.3971,-2.3515,-2.3343,-2.3961,-2.3733,-2.3813,-2.4987,-2.5493,-2.5804,-2.6005,-2.6025,-2.6107,-2.6452,-2.6533,-2.6533,-2.6533,-2.6533,-2.6622,-2.6848,-2.6659,-2.6634,-2.6791,-2.659,-2.6533,-2.6533,-2.6533,-2.6533,-2.6533,-2.6533,-2.6533,-2.6533,-2.685,-2.7587,-2.8744,-2.9054,-2.9964,-0.5863,0.0,0.0,-0.7938,-0.9292,-1.0378,-1.0655,-1.1249,-1.1913,-1.2417,-1.247,-1.273,-1.343,-1.3506,-1.3755,-1.4282,-1.4635,-1.486,-1.5084,-1.5359,-1.5661,-1.5833,-1.6303,-1.6797,-1.7548,-1.7735,-1.8179,-1.9072,-1.9078,-1.9078,-1.9078,-1.9078,-1.9042,-1.8969,-1.8969,-1.8933,-1.8861,-1.8861,-1.8764,-1.8577,-1.8577,-1.8803,-1.9012,-1.8847,-1.9083,-1.9366,-1.9366,-1.9822,-2.05,-2.2305,-2.2949,-2.3136,-2.4763,-2.4941,-2.4345,-2.4537,-2.5041,-2.5637,-2.5637,-2.5903,-2.6197,-2.6097,-2.545,-2.4774,-2.4621,-2.4491,-2.4384,-2.4203,-2.461,-2.5099,-2.5347,-2.5068,-2.4819,-2.515,-2.4974,-2.454,-2.3836,-2.3422,-2.328,-2.3623,-2.3984,-2.451,-2.5552,-2.6154,-2.649,-2.6671,-2.6553,-2.6533,-2.6533,-2.6533,-2.6533,-2.6533,-2.6533,-2.6533,-2.6533,-2.6533,-2.6533,-2.6533,-2.6533,-2.6533,-2.6533,-2.6533,-2.6521,-2.6658,-2.6521,-2.6589,-2.6794,-2.7385,-2.8359,-2.9665,-2.9912,-3.0762,0.0,0.0,-0.8975,-0.9513,-1.0618,-1.1808,-1.2206,-1.2516,-1.2778,-1.2998,-1.2988,-1.3117,-1.3672,-1.349,-1.3581,-1.4256,-1.4635,-1.486,-1.5084,-1.5359,-1.5601,-1.5607,-1.5817,-1.642,0.0,-1.8018,-1.8699,-1.9078,-1.9078,-1.9078,-1.9078,-1.9078,-1.8957,-1.8704,-1.8698,-1.8571,-1.8318,-1.8318,-1.8312,-1.8306,-1.8306,-1.8404,-1.8495,-1.8796,-1.9127,-1.9366,-1.9366,-2.0723,-2.2869,-2.2974,-2.4098,-2.5797,-2.5518,-2.5124,-2.4711,-2.4317,-2.4445,-2.4821,-2.4821,-2.5078,-2.5503,-2.5975,-2.5513,-2.4963,-2.547,-2.5117,-2.4614,-2.5036,-2.4805,-2.4767,-2.5637,-2.5533,-2.5213,-2.5223,-2.5223,-2.484,-2.3494,-2.3194,-2.3349,-2.37,-2.4438,-2.5338,-2.6632,-2.7077,-2.7281,-2.7256,-2.6804,-2.6533,-2.6533,-2.6533,-2.6533,-2.6533,-2.6533,-2.6533,-2.6533,-2.6533,-2.6533,-2.6533,-2.6533,-2.6533,-2.6533,-2.6533,-2.6658,-2.6973,-2.6658,-2.6794,-2.7469,-2.8758,-2.9206,-2.8894,-3.0978,-3.1513,0.0,0.0,-0.9337,-1.0669,-1.1607,-1.2276,-1.2549,-1.2721,-1.2822,-1.3071,-1.2777,-1.2705,-1.3236,-1.3257,-1.3342,-1.4134,-1.4627,-1.5029,-1.5424,-1.5477,-1.5601,-1.5601,-1.5691,0.0,0.0,0.0,0.0,-1.9048,-1.8915,-1.8813,-1.8813,-1.8813,-1.8698,-1.8432,-1.8426,-1.8384,-1.8294,-1.8294,-1.8197,-1.8016,-1.8086,-1.8189,-1.8444,-1.8693,-1.912,-1.9366,-1.9366,-2.027,-2.1836,-2.2386,-2.3285,-2.4439,-2.4814,-2.473,-2.4345,-2.4207,-2.4244,-2.4409,-2.4684,-2.5041,-2.543,-2.5256,-2.4908,-2.443,-2.4652,-2.4386,-2.4149,-2.4594,-2.4664,-2.4674,-2.5295,-2.5119,-2.4923,-2.5523,-2.5202,-2.4571,-2.3815,-2.3777,-2.3924,-2.4015,-2.4955,-2.6068,-2.6991,-2.7251,-2.7155,-2.6791,-2.6647,-2.6533,-2.6533,-2.6533,-2.6533,-2.6533,-2.6533,-2.6533,-2.6533,-2.6533,-2.6533,-2.6533,-2.6533,-2.6533,-2.6533,-2.6533,-2.6658,-2.6973,-2.6905,-2.7053,-2.7523,-2.9037,-2.9868,-2.9945,-3.1366,-3.1944,-0.869,-0.9483,-1.0182,-1.1367,-1.2073,-1.2565,-1.2662,-1.2764,-1.278,-1.2747,-1.2537,-1.2443,-1.2687,-1.2792,-1.3141,-1.3988,-1.4436,-1.4955,-1.5521,-1.5601,-1.5601,-1.5601,-1.5691,0.0,0.0,0.0,0.0,-1.8764,-1.8728,-1.8644,-1.8553,-1.8547,-1.842,-1.8155,-1.8143,-1.81,-1.8004,-1.8004,-1.7913,-1.7732,-1.7805,-1.8077,-1.8421,-1.8648,-1.9004,-1.9366,-1.9366,-2.027,-2.1828,-2.2252,-2.3104,-2.4254,-2.4615,-2.4528,-2.4152,-2.4152,-2.4152,-2.4189,-2.4464,-2.4721,-2.4997,-2.484,-2.4581,-2.4307,-2.4531,-2.4376,-2.4129,-2.442,-2.454,-2.4654,-2.5109,-2.5016,-2.4933,-2.5513,-2.5202,-2.4581,-2.3795,-2.3998,-2.4171,-2.3812,-2.4996,-2.6251,-2.6769,-2.7126,-2.7155,-2.6804,-2.6647,-2.6533,-2.6533,-2.6533,-2.6533,-2.6533,-2.6533,-2.6533,-2.6533,-2.6533,-2.6533,-2.6533,-2.6533,-2.6521,-2.6658,-2.6658,-2.6918,-2.739,-2.7255,-2.7377,-2.7934,-2.9299,-3.0127,-3.0375,-3.1503,-3.2064,-0.9324,-1.0438,-1.145,-1.1599,-1.2294,-1.278,-1.2489,-1.2673,-1.27,-1.2178,-1.2208,-1.2247,0.0,0.0,-1.2997,-1.3889,-1.4298,-1.4799,-1.5499,-1.5601,-1.5601,0.0,0.0,0.0,0.0,0.0,0.0,-1.8111,0.0,-1.8535,-1.8281,-1.8269,-1.8143,-1.7865,-1.7853,-1.7732,-1.7485,-1.7485,-1.7485,-1.7485,-1.7485,-1.7837,-1.8421,-1.8421,-1.8771,-1.9366,-1.9366,-2.0716,-2.2927,-2.2553,-2.351,-2.5298,-2.4904,-2.451,-2.4152,-2.4152,-2.4152,-2.4152,-2.4152,-2.4152,-2.4251,-2.4735,-2.4619,-2.4374,-2.4911,-2.4746,-2.4472,-2.4492,-2.454,-2.4643,-2.5078,-2.5192,-2.5202,-2.5223,-2.5213,-2.483,-2.3587,-2.3876,-2.4104,-2.3251,-2.4788,-2.6154,-2.6142,-2.6769,-2.7318,-2.7293,-2.6841,-2.6559,-2.6533,-2.6533,-2.6533,-2.6533,-2.6533,-2.6533,-2.6533,-2.6521,-2.6521,-2.6521,-2.6521,-2.6714,-2.704,-2.704,-2.7377,-2.8079,-2.7736,-2.7855,-2.8587,-2.96,-3.0087,-3.0144,-3.1479,-3.1871,-1.0403,-1.1357,-1.2174,-1.2167,-1.2929,-1.3517,-1.3314,-1.2986,-1.2694,-1.2352,-1.1978,-1.1447,0.0,0.0,0.0,-1.3054,-1.4118,0.0,-1.5526,-1.5601,0.0,-1.5601,0.0,-1.5563,-1.6176,-1.6211,0.0,0.0,-1.7817,-1.8052,-1.7986,-1.798,-1.7859,-1.7587,-1.7581,-1.7551,-1.7485,-1.7485,-1.7485,-1.7485,-1.7726,-1.8077,-1.8421,-1.8648,-1.9004,-1.9366,-1.9366,-2.0587,-2.2545,-2.2087,-2.314,-2.4886,-2.4473,-2.4244,-2.4152,-2.4152,-2.4152,-2.4152,-2.4152,-2.4152,-2.4251,-2.435,-2.4141,-2.3889,-2.4341,-2.4247,-2.4079,-2.4399,-2.454,-2.4571,-2.4685,-2.4716,-2.4809,-2.515,-2.4964,-2.469,-2.4538,-2.4889,-2.5108,-2.4786,-2.596,-2.6859,-2.6449,-2.7201,-2.7758,-2.7344,-2.7155,-2.6917,-2.6584,-2.6533,-2.6533,-2.6533,-2.6533,-2.6533,-2.6533,-2.6714,-2.6837,-2.6837,-2.7121,-2.7255,-2.739,-2.739,-2.759,-2.8079,-2.8013,-2.8131,-2.8587,-3.0807,-3.1237,-3.0144,-3.2436,-3.281,-1.1814,-1.2495,-1.2977,-1.2604,-1.3209,-1.3749,-1.304,-1.2791,-1.2379,-1.165,-1.1288,0.0,0.0,0.0,0.0,0.0,0.0,0.0,-1.5505,-1.5601,-1.5601,0.0,-1.5563,0.0,-1.5855,-1.6057,-1.6336,0.0,-1.7375,-1.7709,-1.7708,-1.7702,-1.7636,-1.7485,-1.7485,-1.7485,-1.7485,-1.7485,-1.7485,-1.7485,-1.7849,-1.82,-1.8421,-1.8765,-1.912,-1.9475,0.0,-2.0845,-2.2394,-2.233,-2.328,-2.4739,-2.4317,-2.4152,-2.4152,-2.4152,-2.4152,-2.4152,-2.4152,-2.4152,-2.4251,-2.4449,-2.4066,-2.3746,-2.4404,-2.4257,-2.3927,-2.4368,-2.454,-2.454,-2.454,-2.454,-2.4602,-2.4871,-2.4726,-2.4501,-2.4511,-2.4738,-2.5031,-2.529,-2.5908,-2.6528,-2.6829,-2.7331,-2.772,-2.7657,-2.7645,-2.7444,-2.6892,-2.6684,-2.6533,-2.6533,-2.6533,-2.6533,-2.6533,-2.6782,-2.6973,-2.6973,-2.7323,-2.7603,-2.7736,-2.7736,-2.7934,-2.8341,-2.8341,-2.8392,-2.8444,-3.0235,-3.0725,-3.0021,-3.1766,-3.2213,-1.3149,-1.3606,-1.3851,-1.3005,-1.343,-1.3686,-1.2544,-1.2366,-1.2021,-1.0762,0.0,-1.0421,-0.9762,-1.0401,-1.1407,-1.2572,0.0,-1.4224,-1.5467,-1.5601,-1.5601,-1.5601,-1.5779,-1.5822,-1.5618,-1.6025,-1.6298,-1.6436,-1.6982,-1.7375,-1.7491,-1.7485,-1.7485,-1.7485,-1.7485,-1.7485,-1.7485,-1.7485,-1.7485,-1.7485,-1.7843,-1.8194,-1.8421,-1.8765,-1.91,-1.9408,0.0,0.0,-2.2251,-2.2825,-2.3692,-2.4666,-2.4299,-2.4152,-2.4152,-2.4152,-2.4152,-2.4152,-2.4152,-2.4152,-2.4242,-2.4669,-2.4211,-2.3737,-2.4713,-2.4405,-2.3927,-2.4368,-2.454,-2.454,-2.454,-2.454,-2.454,-2.454,-2.454,-2.4416,-2.4294,-2.4454,-2.4864,-2.535,-2.5453,-2.5822,-2.7009,-2.7231,-2.7469,-2.8021,-2.8109,-2.7959,-2.7557,-2.6954,-2.6609,-2.6533,-2.6533,-2.6533,-2.6533,-2.685,-2.704,-2.704,-2.7456,-2.7802,-2.8145,-2.8145,-2.8276,-2.8587,-2.8587,-2.8509,-2.8287,-2.9127,-2.9631,-2.9808,-3.0686,-3.1279,-1.3149,-1.3829,-1.4418,-1.3862,-1.4165,-1.4433,-1.3738,-1.2893,0.0,0.0,0.0,-1.0179,-0.993,-1.0479,-1.1358,-1.2358,0.0,0.0,0.0,0.0,-1.5601,0.0,0.0,0.0,0.0,0.0,0.0,0.0,0.0,-1.6938,-1.7485,-1.7485,-1.7485,-1.7485,-1.7485,-1.7485,-1.7485,-1.7485,-1.7485,-1.7485,-1.8071,-1.8305,-1.8421,-1.901,-1.9232,-1.8998,0.0,0.0,-2.1568,-2.2616,-2.3533,-2.4253,-2.4279,-2.4152,-2.4152,-2.4152,-2.4152,-2.4152,-2.4152,-2.4152,-2.4196,-2.4331,-2.3975,-2.3689,-2.4346,-2.4155,-2.3927,-2.4368,-2.454,-2.454,-2.454,-2.454,-2.454,-2.454,-2.454,-2.4735,-2.5717,-2.6358,-2.6707,-2.637,-2.6314,-2.6352,-2.659,-2.6979,-2.7469,-2.8021,-2.8109,-2.8235,-2.8599,-2.7758,-2.6967,-2.6584,-2.6533,-2.6533,-2.6533,-2.7053,-2.739,-2.739,-2.8066,-2.8457,-2.8522,-2.8522,-2.8522,-2.8587,-2.8587,-2.8509,-2.8287,-3.0101,-3.054,-2.9822,-3.1589,-3.2406,-1.423,-1.4775,-1.5176,-1.4476,-1.4601,-1.464,-1.3584,0.0,0.0,0.0,0.0,-1.0845,-0.9759,0.0,0.0,0.0,0.0,0.0,0.0,0.0,0.0,0.0,0.0,0.0,0.0,0.0,0.0,0.0,0.0,-1.8389,-1.7596,-1.7485,-1.7485,-1.7485,-1.7485,-1.7485,-1.7485,-1.7485,-1.7485,-1.7485,-1.796,-1.8311,-1.8415,-1.9564,-1.9974,-1.99,-2.1486,0.0,-2.2229,-2.3184,-2.3817,-2.4152,-2.4152,-2.4152,-2.4152,-2.4152,-2.4152,-2.4152,-2.4152,-2.4211,-2.4253,-2.4203,-2.4105,-2.404,-2.4625,-2.4543,-2.4196,-2.4454,-2.454,-2.454,-2.454,-2.4861,-2.502,-2.4625,-2.4861,-2.5228,-2.5212,-2.5842,-2.6323,-2.5975,-2.5886,-2.6025,-2.6452,-2.6917,-2.7369,-2.7632,-2.816,-2.8524,-2.8499,-2.818,-2.7809,-2.7344,-2.7253,-2.7145,-2.7145,-2.7572,-2.7802,-2.7802,-2.8327,-2.8587,-2.8587,-2.8587,-2.8587,-2.8587,-2.883,-2.8881,-2.8688,-3.0278,-3.0754,-3.0176,-3.1486,-3.2077,-1.5148,-1.5644,-1.6076,-1.533,-1.5456,-1.5319,-1.3744,-1.368,0.0,0.0,-1.175,-1.1739,-1.0388,0.0,0.0,0.0,0.0,0.0,0.0,0.0,0.0,0.0,0.0,0.0,0.0,0.0,0.0,0.0,0.0,0.0,-1.7941,-1.7948,-1.7713,-1.7485,-1.7485,-1.7485,-1.7485,-1.7485,-1.7485,-1.7485,-1.8077,-1.8532,-1.8984,-2.0387,-2.0972,-2.1098,-2.2815,0.0,0.0,-2.3872,-2.4251,-2.4152,-2.4152,-2.4152,-2.4152,-2.4152,-2.4152,-2.4143,-2.4051,-2.4105,-2.4221,-2.4156,-2.4258,-2.4453,-2.4938,-2.483,-2.454,-2.454,-2.454,-2.454,-2.454,-2.502,-2.5348,-2.47,-2.5189,-2.5557,-2.4755,-2.5237,-2.5791,-2.5575,-2.5523,-2.5746,-2.6383,-2.6816,-2.7143,-2.7268,-2.8122,-2.8637,-2.8323,-2.8594,-2.8804,-2.8609,-2.8163,-2.7996,-2.8112,-2.8354,-2.8385,-2.8266,-2.8581,-2.8722,-2.86,-2.8587,-2.8587,-2.8587,-2.9071,-2.9261,-2.9099,-3.0237,-3.0703,-3.0524,-3.1367,-3.1676,-1.5137,-1.6232,-1.7232,-1.6638,-1.7078,-1.7312,-1.5855,0.0,0.0,-1.3732,-1.3198,-1.2829,-1.2845,0.0,0.0,0.0,0.0,0.0,0.0,0.0,0.0,0.0,0.0,0.0,0.0,0.0,0.0,0.0,0.0,0.0,0.0,-1.9094,-1.8635,-1.7485,-1.7485,-1.7485,-1.7485,-1.7485,-1.7485,-1.7479,-1.8978,-1.989,-2.0565,-2.1607,-2.2166,-2.2247,0.0,0.0,0.0,-2.3945,-2.4341,-2.4152,-2.4152,-2.4152,-2.4152,-2.4152,-2.4152,-2.4097,-2.373,-2.3855,-2.4165,-2.3818,-2.4008,-2.4375,-2.4563,-2.4571,-2.454,-2.454,-2.454,-2.454,-2.454,-2.454,-2.4615,-2.454,-2.5189,-2.5722,-2.5464,-2.6083,-2.6624,-2.6445,-2.6383,-2.6383,-2.6465,-2.6571,-2.6703,-2.7205,-2.7795,-2.8348,-2.88,-2.9302,-2.9859,-3.0139,-2.9067,-2.8595,-2.9104,-2.9442,-2.9384,-2.8865,-2.9187,-2.9157,-2.8614,-2.8587,-2.8587,-2.8587,-2.9071,-2.9261,-2.9099,-3.0237,-3.0703,-3.0539,-3.1827,-3.2422,-1.6987,-1.7728,-1.8462,-1.7732,-1.7879,-1.7743,-1.6433,0.0,-1.5564,-1.444,-1.426,-1.4,-1.3167,-1.3367,0.0,0.0,0.0,0.0,0.0,0.0,0.0,0.0,0.0,0.0,0.0,0.0,0.0,0.0,0.0,0.0,0.0,-2.0795,-2.0106,-1.9645,-1.9652,-1.9312,-1.8635,-1.8635,-1.8635,-1.8635,-1.921,-2.013,-2.1391,-2.2584,-2.3079,-2.3246,0.0,0.0,0.0,-2.4332,-2.443,-2.4341,-2.4251,-2.4152,-2.4152,-2.4152,-2.3996,-2.3758,-2.3883,-2.3881,-2.3944,-2.4057,-2.4313,-2.4508,-2.4506,-2.454,-2.454,-2.454,-2.454,-2.454,-2.454,-2.454,-2.4786,-2.5852,-2.6329,-2.654,-2.6317,-2.6938,-2.7395,-2.6666,-2.6533,-2.6533,-2.6533,-2.6533,-2.6665,-2.7087,-2.7596,-2.8099,-2.8472,-2.8931,-2.949,-2.9974,-2.9314,-2.9057,-2.9574,-2.9294,-2.9134,-2.9255,-2.9402,-2.9536,-2.9686,-2.9319,-2.9064,-2.8931,-2.9073,-2.9261,-2.9512,-3.0672,-3.1158,-3.1117,-3.2482,-3.2677,-1.8094,-1.8725,-1.9216,-1.8648,-1.8813,-1.8743,0.0,-1.6952,-1.6557,-1.5204,-1.5185,-1.5062,-1.3962,-1.4243,-1.4774,0.0,0.0,0.0,0.0,0.0,0.0,0.0,0.0,0.0,0.0,0.0,0.0,0.0,0.0,0.0,0.0,-2.2628,-2.182,-2.1123,-2.1123,-2.0673,-1.989,-1.989,-1.9726,-1.9651,-2.0102,-2.0935,-2.2243,-2.3352,-2.3974,-2.4176,0.0,0.0,0.0,-2.4538,-2.443,-2.444,-2.4251,-2.4152,-2.4152,-2.4152,-2.3895,-2.3529,-2.3869,-2.3923,-2.375,-2.4068,-2.4354,-2.454,-2.454,-2.454,-2.454,-2.454,-2.454,-2.454,-2.454,-2.454,-2.4786,-2.6008,-2.6382,-2.6439,-2.6435,-2.6978,-2.7282,-2.664,-2.6533,-2.6533,-2.6533,-2.6589,-2.6714,-2.6973,-2.7516,-2.8027,-2.8248,-2.8681,-2.922,-2.9714,-2.9372,-2.9346,-2.9963,-2.9646,-2.9496,-2.974,-2.9916,-3.0133,-3.0405,-2.974,-2.9349,-2.9215,-2.9261,-2.9449,-2.9808,-3.0913,-3.1471,-3.1497,-3.2677,-3.2706,-1.7588,-1.87,-1.9676,-1.9304,-2.0005,-2.048,0.0,-1.8305,-1.7635,-1.6493,-1.6054,-1.5797,-1.5797,-1.5373,-1.5328,0.0,0.0,0.0,0.0,0.0,0.0,0.0,0.0,0.0,0.0,0.0,0.0,0.0,0.0,0.0,0.0,-2.4821,-2.3664,-2.113,-2.1123,-2.1123,-2.113,-2.113,-2.0863,-2.0565,-2.178,-2.257,-2.3157,-2.3885,-2.4656,0.0,0.0,0.0,0.0,-2.444,-2.4341,-2.4152,-2.4152,-2.4152,-2.4152,-2.4152,-2.3895,-2.3483,-2.3617,-2.3664,-2.3701,-2.3807,-2.411,-2.454,-2.454,-2.454,-2.454,-2.454,-2.454,-2.454,-2.454,-2.454,-2.454,-2.454,-2.4744,-2.5139,-2.544,-2.5796,-2.6106,-2.6427,-2.6533,-2.6533,-2.6533,-2.6782,-2.6973,-2.6973,-2.7734,-2.8317,-2.8317,-2.8799,-2.9377,-2.9754,-2.9236,-2.9348,-3.0282,-3.0934,-3.1015,-3.0446,-3.0948,-3.1015,-3.0432,-2.9605,-2.9215,-2.9215,-2.9567,-2.9808,-2.9808,-3.0925,-3.1482,-3.1497,-3.2213,-3.2512,-1.9035,-1.9802,-2.0414,-1.9687,-2.0002,-2.0078,-1.8562,-1.8126,-1.7792,-1.691,-1.6439,-1.6259,-1.6516,-1.6196,-1.6122,-1.6862,0.0,0.0,0.0,0.0,0.0,0.0,0.0,0.0,0.0,0.0,0.0,0.0,0.0,0.0,0.0,-2.4821,-2.447,-2.3664,-2.3664,-2.3079,-2.2038,-2.2038,-2.1757,-2.1441,-2.1976,-2.2863,-2.3876,-2.4395,0.0,0.0,0.0,0.0,0.0,-2.4538,-2.444,-2.444,-2.4242,-2.3978,-2.3739,-2.3739,-2.3299,-2.2778,-2.3467,-2.3512,-2.3408,-2.4064,-2.4368,-2.454,-2.454,-2.454,-2.454,-2.454,-2.454,-2.454,-2.454,-2.454,-2.4786,-2.6008,-2.6125,-2.6176,-2.7071,-2.7066,-2.6822,-2.6565,-2.6533,-2.6533,-2.6533,-2.6589,-2.6782,-2.7255,-2.7546,-2.7932,-2.8464,-2.8691,-2.8812,-2.8958,-2.8797,-2.8984,-2.9713,-2.9564,-2.9536,-2.9754,-3.0351,-3.0715,-3.0804,-3.0294,-3.0038,-3.0147,-2.961,-2.9637,-3.0283,-3.1095,-3.1973,-3.2856,-3.2168,-3.2078,0.0,-1.9872,-2.0121,-1.965,-1.9701,-1.9547,-1.8314,-1.804,-1.7826,-1.7072,-1.673,-1.6636,-1.6876,-1.6639,-1.6641,-1.7103,0.0,0.0,0.0,0.0,0.0,0.0,0.0,0.0,0.0,0.0,0.0,0.0,0.0,0.0,0.0,0.0,-2.4538,-2.4401,-2.453,-2.4073,-2.2904,-2.2912,-2.274,-2.2274,-2.2584,-2.3133,-2.3922,-2.4226,0.0,0.0,0.0,0.0,0.0,-2.444,-2.444,-2.4421,-2.4076,-2.3864,-2.3625,-2.3373,-2.2896,-2.2419,-2.3138,-2.3309,-2.3232,-2.4013,-2.4368,-2.454,-2.454,-2.454,-2.454,-2.454,-2.454,-2.454,-2.454,-2.4775,-2.5221,-2.6095,-2.6394,-2.6665,-2.7152,-2.7142,-2.6866,-2.6596,-2.6589,-2.6714,-2.6714,-2.693,-2.7268,-2.7669,-2.7855,-2.8052,-2.8522,-2.8587,-2.8587,-2.8587,-2.8587,-2.8831,-2.9428,-2.9143,-2.9089,-2.9455,-3.0269,-3.0742,-3.0751,-3.0387,-3.0132,-3.0038,-2.9504,-2.9546,-3.0133,-3.1037,-3.19,-3.2736,-3.1913,-3.1691,0.0,-1.911,-1.9127,-1.9102,-1.9119,-1.893,-1.8168,-1.8014,0.0,-1.7107,-1.6961,-1.6978,-1.703,-1.6977,-1.688,-1.6938,0.0,0.0,0.0,0.0,0.0,0.0,0.0,0.0,0.0,0.0,0.0,0.0,0.0,0.0,0.0,0.0,-2.4033,-2.3674,-2.3982,-2.3982,-2.3631,-2.3648,-2.3468,-2.3074,-2.3384,-2.3498,-2.3447,-2.3755,0.0,0.0,0.0,0.0,0.0,-2.4223,-2.4304,-2.4347,-2.3754,-2.3579,-2.3706,-2.3043,-2.2648,-2.2373,-2.2819,-2.3111,-2.3232,-2.3667,-2.41,-2.454,-2.454,-2.454,-2.454,-2.454,-2.454,-2.454,-2.454,-2.5158,-2.5655,-2.5218,-2.5957,-2.6596,-2.6214,-2.6337,-2.6533,-2.6533,-2.6782,-2.6973,-2.6973,-2.7603,-2.8013,-2.8079,-2.8406,-2.8587,-2.8587,-2.8587,-2.8587,-2.8587,-2.8587,-2.8817,-2.9374,-2.9414,-2.9428,-2.9482,-3.054,-3.092,-3.0364,-3.0048,-2.9642,-2.9161,-2.9462,-2.9628,-2.9628,-3.0896,-3.1482,-3.1482,-3.1482,-3.1482,-1.8151,0.0,-1.8656,-1.8374,-1.8511,-1.8528,0.0,-1.7826,-1.7903,0.0,0.0,0.0,-1.8091,-1.7951,0.0,0.0,0.0,0.0,0.0,0.0,0.0,0.0,0.0,0.0,0.0,0.0,0.0,0.0,0.0,0.0,0.0,0.0,-2.3631,-2.3263,-2.3331,-2.3331,-2.3246,-2.3246,-2.316,-2.2984,-2.3287,-2.3536,-2.3755,-2.4143,0.0,0.0,0.0,0.0,-2.4716,-2.4212,-2.3985,-2.3938,-2.334,-2.2896,-2.2695,-2.2502,-2.2399,-2.2405,-2.2938,-2.331,-2.3754,-2.4186,-2.4454,-2.454,-2.454,-2.454,-2.454,-2.454,-2.454,-2.454,-2.454,-2.4829,-2.5333,-2.5858,-2.61,-2.6323,-2.6865,-2.6702,-2.6533,-2.6533,-2.6589,-2.6714,-2.6973,-2.7108,-2.7456,-2.8013,-2.8145,-2.8341,-2.8587,-2.8587,-2.8587,-2.8587,-2.8587,-2.8655,-2.879,-2.8804,-2.8994,-2.9442,-2.974,-2.9767,-2.9497,-2.943,-2.9671,-3.0294,-3.0797,-3.1029,-3.1029,-3.1351,-3.1482,-3.1482,-3.1482,-3.1482,-1.7723,-1.8177,-1.8537,-1.834,-1.8434,-1.8434,-1.786,0.0,0.0,0.0,0.0,0.0,0.0,0.0,0.0,0.0,0.0,0.0,0.0,0.0,0.0,0.0,0.0,0.0,0.0,0.0,0.0,0.0,0.0,0.0,0.0,0.0,-2.3237,-2.286,-2.2852,-2.2852,-2.2852,-2.2852,-2.2952,-2.3138,-2.3438,-2.3746,-2.4143,-2.4538,0.0,0.0,0.0,0.0,-2.4425,-2.3734,-2.3558,-2.3597,-2.2916,-2.2529,-2.2483,-2.2126,-2.2184,-2.2441,-2.2696,-2.3232,-2.3841,-2.4368,-2.454,-2.454,-2.454,-2.454,-2.454,-2.454,-2.454,-2.4573,-2.4672,-2.5153,-2.5723,-2.6051,-2.6366,-2.6635,-2.6884,-2.6666,-2.6533,-2.6533,-2.6726,-2.6998,-2.7188,-2.751,-2.7855,-2.8276,-2.8341,-2.8406,-2.8587,-2.8587,-2.8587,-2.8587,-2.8587,-2.8695,-2.898,-2.8942,-2.8955,-2.9062,-2.9333,-2.928,-2.8811,-2.9253,-2.991,-3.0616,-3.0893,-3.1219,-3.1482,-3.1482,-3.1482,-3.1482,-3.1482,-3.1482,-1.762,-1.8143,-1.8648,-1.8528,-1.8545,-1.8494,-1.8126,0.0,0.0,0.0,0.0,0.0,0.0,0.0,0.0,0.0,0.0,0.0,0.0,0.0,0.0,0.0,0.0,0.0,0.0,0.0,0.0,0.0,0.0,0.0,0.0,0.0,0.0,-2.2653,-2.2644,-2.2644,-2.2644,-2.2644,-2.2846,-2.3329,-2.3628,-2.4035,-2.4529,-2.4833,0.0,0.0,0.0,0.0,-2.3811,-2.3119,-2.3037,-2.3159,-2.2483,-2.2327,-2.2472,-2.1949,-2.1998,-2.2441,-2.253,-2.3135,-2.3927,-2.4368,-2.454,-2.454,-2.454,-2.454,-2.4529,-2.4457,-2.4573,-2.4756,-2.4913,-2.5688,-2.6283,-2.6039,-2.6635,-2.703,-2.6634,-2.6533,-2.6521,-2.6589,-2.7066,-2.7456,-2.7603,-2.8131,-2.8522,-2.8587,-2.8587,-2.8587,-2.8587,-2.8587,-2.8587,-2.8587,-2.8587,-2.879,-2.9292,-2.9134,-2.8931,-2.8563,-2.9077,-2.9106,-2.8383,-2.9429,-3.015,-3.0488,-3.0568,-3.0896,-3.1482,-3.1482,-3.1482,-3.1482,-3.1482,-3.1482,-1.8331,-1.8742,-1.893,-1.828,-1.8357,-1.8494,0.0,0.0,0.0,0.0,0.0,0.0,0.0,0.0,0.0,0.0,0.0,0.0,0.0,0.0,0.0,0.0,0.0,0.0,0.0,0.0,0.0,0.0,0.0,0.0,0.0,0.0,0.0,-2.2644,-2.2644,-2.2644,-2.2644,-2.2644,-2.2946,-2.3628,-2.3728,-2.4134,-2.4833,-2.5137,-2.4946,0.0,0.0,-2.4288,-2.3655,-2.3055,-2.2795,-2.2749,-2.2069,-2.1832,-2.1823,-2.1759,-2.1998,-2.253,-2.3309,-2.3927,-2.4368,-2.4454,-2.454,-2.454,-2.454,-2.454,-2.4467,-2.4084,-2.4808,-2.5471,-2.5066,-2.5825,-2.659,-2.6103,-2.634,-2.6634,-2.6546,-2.6533,-2.6589,-2.6837,-2.704,-2.7255,-2.7868,-2.8079,-2.8276,-2.8522,-2.8587,-2.8587,-2.8587,-2.8587,-2.8587,-2.8587,-2.8587,-2.8549,-2.8487,-2.8435,-2.8343,-2.821,-2.8692,-2.8918,-2.8622,-2.943,-3.0037,-3.0383,-3.101,-3.1409,-3.1482,-3.1482,-3.1482,-3.1482,-3.1482,-3.1482,-1.8327,-1.8571,-1.8776,-1.8425,-1.8776,-1.917,-1.8999,0.0,0.0,0.0,0.0,0.0,0.0,0.0,0.0,0.0,0.0,0.0,0.0,0.0,0.0,0.0,0.0,0.0,0.0,0.0,0.0,0.0,0.0,0.0,0.0,0.0,0.0,0.0,-2.2644,-2.2644,-2.2644,-2.2538,-2.2828,-2.3728,-2.3619,-2.391,-2.46,-2.4459,-2.425,-2.3966,0.0,-2.3428,-2.3129,-2.2444,-2.2187,-2.2178,-2.1805,-2.1741,-2.1731,-2.2264,-2.2784,-2.3222,-2.3927,-2.4282,-2.454,-2.454,-2.454,-2.4498,-2.426,-2.4188,-2.4168,-2.4172,-2.4762,-2.5262,-2.4993,-2.5634,-2.6322,-2.6318,-2.6362,-2.6533,-2.6533,-2.6533,-2.6589,-2.6905,-2.7175,-2.7456,-2.8013,-2.8276,-2.8406,-2.8587,-2.8509,-2.8509,-2.8587,-2.8509,-2.8509,-2.8587,-2.8509,-2.843,-2.8287,-2.8398,-2.8399,-2.8106,-2.8253,-2.8585,-2.9292,-2.9512,-3.0045,-3.0974,-3.1323,-3.1482,-3.1482,-3.1482,-3.1482,-3.1482,-3.1482,-3.1482,-1.8525,-1.8607,-1.8771,-1.8699,0.0,-1.9521,-1.9701,0.0,0.0,0.0,0.0,0.0,0.0,0.0,0.0,0.0,0.0,0.0,0.0,0.0,0.0,0.0,0.0,0.0,0.0,0.0,0.0,0.0,0.0,0.0,0.0,0.0,0.0,0.0,-2.2458,-2.2515,-2.2515,-2.2334,-2.2717,-2.3592,-2.339,-2.3688,-2.4165,-2.3824,-2.3625,-2.3419,-2.2924,-2.2646,-2.2444,-2.1949,-2.1741,-2.1741,-2.1741,-2.1741,-2.182,-2.2618,-2.3222,-2.3667,-2.4196,-2.4454,-2.454,-2.454,-2.454,-2.4457,-2.4012,-2.3877,-2.3908,-2.4083,-2.4566,-2.4992,-2.5084,-2.5716,-2.6346,-2.6452,-2.6533,-2.6533,-2.6533,-2.6589,-2.6726,-2.704,-2.739,-2.7736,-2.8145,-2.8406,-2.8587,-2.8522,-2.843,-2.8365,-2.8457,-2.8314,-2.8314,-2.8471,-2.8314,-2.8235,-2.8157,-2.8345,-2.8358,-2.8224,-2.8118,-2.8549,-2.9631,-2.9727,-3.0266,-3.1442,-3.1483,-3.1482,-3.1482,-3.1482,-3.1482,-3.1482,-3.1482,-3.1482,-1.9826,-1.9507,-1.9173,-1.9127,0.0,0.0,-1.9581,0.0,0.0,0.0,0.0,0.0,0.0,0.0,0.0,0.0,0.0,0.0,0.0,0.0,0.0,0.0,0.0,0.0,0.0,0.0,0.0,0.0,0.0,0.0,0.0,0.0,0.0,0.0,0.0,-2.2128,-2.2308,-2.2224,-2.2512,-2.3187,-2.2962,-2.3242,-2.372,-2.3691,-2.3372,-2.274,-2.2712,-2.2388,-2.1777,-2.175,-2.1741,-2.1741,-2.1741,-2.1741,-2.1741,-2.2264,-2.2784,-2.3222,-2.3667,-2.411,-2.454,-2.454,-2.454,-2.4457,-2.4012,-2.3877,-2.3846,-2.3772,-2.429,-2.4969,-2.5739,-2.6553,-2.7072,-2.659,-2.6533,-2.6533,-2.6533,-2.6714,-2.704,-2.739,-2.7802,-2.8145,-2.8522,-2.8587,-2.8522,-2.8365,-2.8287,-2.8235,-2.8145,-2.8145,-2.8145,-2.8145,-2.8145,-2.8066,-2.7842,-2.7696,-2.7828,-2.8417,-2.861,-2.892,-2.9399,-3.0077,-3.0739,-3.138,-3.1457,-3.1482,-3.1482,-3.1482,-3.1482,-3.1482,-3.1482,-3.1482,-2.0017,-2.0181,-2.0235,-1.9925,0.0,0.0,0.0,0.0,0.0,0.0,0.0,0.0,0.0,0.0,0.0,0.0,0.0,0.0,0.0,0.0,0.0,0.0,0.0,0.0,0.0,0.0,0.0,0.0,0.0,0.0,0.0,0.0,0.0,0.0,0.0,-2.2935,-2.2188,-2.2647,-2.2899,-2.2777,-2.2621,-2.264,-2.2824,-2.2574,-2.2288,-2.2051,-2.2051,-2.1968,-2.1741,-2.1741,-2.1741,-2.1741,-2.1741,-2.2087,-2.2618,-2.2618,-2.3232,-2.4013,-2.4024,-2.4282,-2.4498,-2.4219,-2.4136,-2.3991,-2.3083,-2.3248,-2.3791,-2.3782,-2.4407,-2.5157,-2.5469,-2.6193,-2.6716,-2.6584,-2.6533,-2.6589,-2.6782,-2.6905,-2.7108,-2.759,-2.7789,-2.8,-2.8276,-2.8276,-2.8276,-2.8197,-2.8052,-2.8052,-2.8079,-2.8,-2.7934,-2.8079,-2.8,-2.7855,-2.7656,-2.7523,-2.759,-2.7842,-2.8352,-2.9077,-3.0058,-3.0337,-3.082,-3.1456,-3.147,-3.1482,-3.1482,-3.1482,-3.1482,-3.1482,-3.1482,-3.1482,-2.0938,-2.1092,-2.132,0.0,0.0,0.0,0.0,0.0,0.0,0.0,0.0,0.0,0.0,0.0,0.0,0.0,0.0,0.0,0.0,0.0,0.0,0.0,0.0,0.0,0.0,0.0,0.0,0.0,0.0,0.0,0.0,0.0,0.0,0.0,0.0,0.0,-2.313,-2.3551,-2.3614,-2.3436,-2.3258,-2.283,-2.2216,-2.186,-2.1741,-2.1741,-2.1741,-2.1741,-2.1741,-2.1741,-2.1741,-2.1741,-2.1741,-2.2087,-2.2618,-2.2715,-2.3153,-2.3639,-2.3821,-2.39,-2.3811,-2.3597,-2.3495,-2.3351,-2.2659,-2.3006,-2.3645,-2.4039,-2.4707,-2.5312,-2.5535,-2.5968,-2.6396,-2.6396,-2.6396,-2.6533,-2.685,-2.6985,-2.7242,-2.7709,-2.7855,-2.7934,-2.8079,-2.8079,-2.8079,-2.8,-2.7855,-2.7855,-2.7868,-2.7802,-2.7789,-2.7881,-2.7802,-2.7656,-2.7523,-2.7523,-2.7643,-2.8078,-2.8597,-2.9219,-3.0147,-3.0584,-3.1029,-3.1482,-3.1482,-3.1482,-3.1482,-3.1482,-3.1482,-3.1482,-3.1482,-3.1482,-2.2756,-2.2496,-2.2418,0.0,0.0,0.0,0.0,0.0,0.0,0.0,0.0,0.0,0.0,0.0,0.0,0.0,0.0,0.0,0.0,0.0,0.0,0.0,0.0,0.0,0.0,0.0,0.0,0.0,0.0,0.0,0.0,0.0,0.0,0.0,0.0,0.0,-2.5253,-2.5007,-2.4872,-2.5126,-2.5126,-2.4029,-2.2097,-2.183,-2.1731,-2.1741,-2.1741,-2.1741,-2.1741,-2.1741,-2.1741,-2.1731,-2.1741,-2.1562,-2.1472,-2.2441,-2.2351,-2.1912,-2.2849,-2.2905,-2.2635,-2.2625,-2.2625,-2.2696,-2.3019,-2.3227,-2.3547,-2.4704,-2.5158,-2.5453,-2.6062,-2.6213,-2.6213,-2.6213,-2.6213,-2.627,-2.6658,-2.6998,-2.7403,-2.7723,-2.7934,-2.8079,-2.8079,-2.8079,-2.8013,-2.7855,-2.7776,-2.7723,-2.7523,-2.7523,-2.7523,-2.7523,-2.7523,-2.7523,-2.7523,-2.7523,-2.8091,-2.938,-2.9504,-2.9504,-2.9504,-3.0777,-3.1482,-3.1482,-3.1482,-3.1482,-3.1482,-3.1482,-3.1482,-3.1482,-3.1482,-3.1482,-2.2998,-2.3474,0.0,0.0,0.0,0.0,0.0,0.0,0.0,0.0,0.0,0.0,0.0,0.0,0.0,0.0,0.0,0.0,0.0,0.0,0.0,0.0,0.0,0.0,0.0,0.0,0.0,0.0,0.0,0.0,0.0,0.0,0.0,0.0,0.0,0.0,-2.5147,-2.5717,-2.583,-2.5568,-2.5473,-2.4638,-2.329,-2.3018,-2.2589,-2.2008,-2.1741,-2.1741,-2.1741,-2.1741,-2.1478,-2.1074,-2.1533,-2.1558,-2.1343,-2.1902,-2.2177,-2.2403,-2.2486,-2.2571,-2.2574,-2.2181,-2.208,-2.2149,-2.238,-2.2875,-2.3631,-2.4383,-2.5158,-2.5758,-2.591,-2.591,-2.5828,-2.6131,-2.6396,-2.6658,-2.7066,-2.7268,-2.7523,-2.7789,-2.7855,-2.7855,-2.7669,-2.7669,-2.7669,-2.759,-2.759,-2.759,-2.7523,-2.7523,-2.7523,-2.7523,-2.7523,-2.7523,-2.7523,-2.7908,-2.8352,-2.8776,-2.9704,-3.0389,-3.0896,-3.1278,-3.1482,-3.1482,-3.1482,-3.1482,-3.1482,-3.1482,-3.1482,-3.1482,-3.1482,-3.1482,-2.4434,0.0,0.0,0.0,0.0,0.0,0.0,0.0,0.0,0.0,0.0,0.0,0.0,0.0,0.0,0.0,0.0,0.0,0.0,0.0,0.0,0.0,0.0,0.0,0.0,0.0,0.0,0.0,0.0,0.0,0.0,0.0,0.0,0.0,0.0,0.0,-2.6246,-2.6928,-2.7174,-2.6905,-2.6549,-2.5875,-2.4797,-2.3872,-2.3183,-2.2775,-2.191,-2.1323,-2.1089,-2.1089,-2.0857,-2.0571,-2.1154,-2.12,-2.0959,-2.1485,-2.1733,-2.1774,-2.1784,-2.1828,-2.172,-2.1451,-2.1597,-2.1927,-2.2326,-2.3106,-2.3963,-2.4707,-2.5382,-2.591,-2.5828,-2.5758,-2.5758,-2.591,-2.6245,-2.6577,-2.6998,-2.7268,-2.7523,-2.7789,-2.7723,-2.7656,-2.7523,-2.7523,-2.7523,-2.7523,-2.7523,-2.7523,-2.7523,-2.7523,-2.7523,-2.7523,-2.7523,-2.759,-2.7842,-2.8287,-2.8725,-2.9282,-3.0025,-3.0777,-3.1467,-3.1482,-3.1482,-3.1482,-3.1482,-3.1482,-3.1482,-3.1482,-3.1482,-3.1482,-3.1482,-3.1482,0.0,0.0,0.0,0.0,0.0,0.0,0.0,0.0,0.0,0.0,0.0,0.0,0.0,0.0,0.0,0.0,0.0,0.0,0.0,0.0,0.0,0.0,0.0,0.0,0.0,0.0,0.0,0.0,0.0,0.0,0.0,0.0,0.0,0.0,0.0,0.0,-2.7973,-2.8303,-2.8438,0.0,-2.7819,-2.7167,-2.637,-2.4399,-2.3574,-2.3477,-2.1902,-2.086,-2.0192,-2.0192,-2.0174,-2.0232,-2.0661,-2.0634,-2.0495,-2.1218,-2.1034,-2.0581,-2.1002,-2.0908,-2.0644,-2.0722,-2.1165,-2.1983,-2.2872,-2.3683,-2.4564,-2.5382,-2.5688,-2.5828,-2.5606,-2.5758,-2.5828,-2.5676,-2.5955,-2.6371,-2.6645,-2.7066,-2.7403,-2.7723,-2.7656,-2.7523,-2.7523,-2.7523,-2.7523,-2.7523,-2.7523,-2.7523,-2.7523,-2.7523,-2.7523,-2.7523,-2.7523,-2.7842,-2.8481,-2.8597,-2.9219,-3.0389,-3.0584,-3.0837,-3.1467,-3.1482,-3.1482,-3.1482,-3.1482,-3.1482,-3.1482,-3.1482,-3.1482,-3.1482,-3.1482,-3.1482,0.0,0.0,0.0,0.0,0.0,0.0,0.0,0.0,0.0,0.0,0.0,0.0,0.0,0.0,0.0,0.0,0.0,0.0,0.0,0.0,0.0,0.0,0.0,0.0,0.0,0.0,0.0,0.0,0.0,0.0,0.0,0.0,0.0,0.0,0.0,-2.795,-2.8351,-2.8023,-2.7897,0.0,-2.7191,-2.6712,-2.6547,-2.5194,-2.3706,-2.2154,-2.1575,-2.0997,-2.0437,-2.0286,-2.0003,-1.9824,-2.0551,-2.0374,-1.9864,-2.0685,-2.0854,-2.0625,-2.0703,-2.0644,-2.0712,-2.1318,-2.169,-2.2059,-2.3452,-2.3963,-2.4337,-2.5158,-2.5382,-2.5382,-2.5382,-2.5606,-2.591,-2.584,-2.6245,-2.6714,-2.7066,-2.7335,-2.7469,-2.7523,-2.7523,-2.7523,-2.7523,-2.7523,-2.7523,-2.7523,-2.7523,-2.7523,-2.7523,-2.7523,-2.7523,-2.7523,-2.7973,-2.8352,-2.8481,-2.947,-3.0208,-3.0464,-3.097,-3.1351,-3.1482,-3.1482,-3.1482,-3.1482,-3.1482,-3.1482,-3.1482,-3.1482,-3.1482,-3.1482,-3.1482,-3.1482,0.0,0.0,0.0,0.0,0.0,0.0,0.0,0.0,0.0,0.0,0.0,0.0,0.0,0.0,0.0,0.0,0.0,0.0,0.0,0.0,0.0,0.0,0.0,0.0,0.0,0.0,0.0,0.0,0.0,0.0,0.0,0.0,0.0,0.0,-2.7542,-2.7652,-2.7798,-2.7531,-2.7344,-2.7332,-2.6578,-2.5961,-2.5601,-2.5133,-2.3863,-2.199,-2.1514,-2.091,-2.0323,-1.9861,-1.9498,-1.9408,-2.0096,-2.008,-1.9822,-2.0514,-2.0693,-2.0566,-2.0566,-2.0566,-2.0712,-2.1538,-2.2059,-2.2574,-2.3745,-2.4337,-2.4779,-2.5158,-2.5312,-2.5312,-2.5312,-2.5606,-2.598,-2.6094,-2.6508,-2.6918,-2.7121,-2.7323,-2.7523,-2.7523,-2.7523,-2.7523,-2.7523,-2.7523,-2.7523,-2.7523,-2.7523,-2.7523,-2.7523,-2.7523,-2.759,-2.7908,-2.7973,-2.8417,-2.9407,-2.9766,-3.0329,-3.097,-3.1278,-3.1482,-3.1482,-3.1482,-3.1482,-3.1482,-3.1482,-3.1482,-3.1482,-3.1482,-3.1482,-3.1482,-3.1482,-3.1482,0.0,0.0,0.0,0.0,0.0,0.0,0.0,0.0,0.0,0.0,0.0,0.0,0.0,0.0,0.0,0.0,0.0,0.0,0.0,0.0,0.0,0.0,0.0,0.0,0.0,0.0,0.0,0.0,0.0,0.0,0.0,0.0,-2.7313,-2.7302,-2.7214,-2.7191,-2.7096,-2.6892,-2.6716,-2.6716,-2.5956,-2.5189,-2.4452,-2.4748,-2.4029,-2.2424,-2.1787,-2.1095,-2.044,-1.9529,-1.9231,-1.939,-1.9706,-1.9872,-2.002,-2.0411,-2.0566,-2.0566,-2.0566,-2.0722,-2.0944,-2.1766,-2.2499,-2.3316,-2.4047,-2.4779,-2.5312,-2.5312,-2.5312,-2.5312,-2.5382,-2.5676,-2.6107,-2.6427,-2.6837,-2.7108,-2.7108,-2.7323,-2.7523,-2.7523,-2.7523,-2.7523,-2.7523,-2.7523,-2.7523,-2.7523,-2.7523,-2.7523,-2.7523,-2.759,-2.7908,-2.8417,-2.8222,-2.8712,-3.0329,-3.0072,-3.0329,-3.1409,-3.1482,-3.1482,-3.1482,-3.1482,-3.1482,-3.1482,-3.1482,-3.1482,-3.1482,-3.1482,-3.1482,-3.1482,-3.1539,-3.1539,0.0,0.0,0.0,0.0,0.0,0.0,0.0,0.0,0.0,0.0,0.0,0.0,0.0,0.0,0.0,0.0,0.0,0.0,0.0,0.0,0.0,0.0,0.0,0.0,0.0,0.0,0.0,0.0,0.0,0.0,0.0,-2.78,-2.7749,-2.7603,-2.7598,-2.7423,-2.6968,-2.649,-2.614,-2.5932,-2.5058,-2.456,-2.4273,-2.4253,-2.3835,-2.2864,-2.2606,-2.2187,-2.1527,-2.0294,-2.0148,-2.0557,-1.9872,-1.9872,-2.0264,-2.0489,-2.0566,-2.0566,-2.0566,-2.1098,-2.1766,-2.2585,-2.3316,-2.412,-2.4933,-2.5229,-2.5312,-2.5312,-2.5312,-2.5382,-2.5758,-2.6094,-2.6427,-2.6837,-2.7175,-2.7456,-2.7456,-2.7469,-2.7523,-2.7523,-2.7523,-2.7523,-2.7523,-2.7523,-2.7523,-2.7523,-2.7523,-2.7523,-2.7523,-2.8039,-2.8417,-2.8481,-2.947,-3.0208,-3.0464,-3.097,-3.1278,-3.1482,-3.1482,-3.1482,-3.1482,-3.1482,-3.1482,-3.1482,-3.1482,-3.1482,-3.1482,-3.1482,-3.1482,-3.1482,-3.167,-3.1727,0.0,0.0,0.0,0.0,0.0,0.0,0.0,0.0,0.0,0.0,0.0,0.0,0.0,0.0,0.0,0.0,0.0,0.0,0.0,0.0,0.0,0.0,0.0,0.0,0.0,0.0,0.0,0.0,0.0,0.0,-2.7605,-2.7593,-2.7423,-2.6901,-2.6757,0.0,-2.6268,-2.5792,-2.5385,-2.5046,-2.4667,-2.4418,-2.42,-2.42,-2.397,-2.3666,-2.3139,-2.2756,-2.2381,-2.1375,-2.1145,-2.1385,-2.1231,-2.1308,-2.1538,-2.1832,-2.1907,-2.1907,-2.1907,-2.2209,-2.2574,-2.339,-2.3829,-2.4264,-2.5087,-2.5312,-2.5312,-2.5312,-2.5453,-2.5688,-2.5828,-2.6302,-2.6756,-2.6973,-2.7255,-2.7523,-2.7523,-2.7523,-2.7523,-2.7523,-2.7523,-2.7523,-2.7523,-2.7523,-2.7523,-2.7523,-2.7523,-2.7656,-2.8039,-2.8635,-2.9224,-2.9574,-3.014,-3.0643,-3.1058,-3.097,-3.1087,-3.1467,-3.1482,-3.1482,-3.1482,-3.1697,-3.1754,-3.1754,-3.1597,-3.1597,-3.1754,-3.1754,-3.1868,-3.2023,-3.2038,-3.2038,0.0,0.0,0.0,0.0,0.0,0.0,0.0,0.0,0.0,0.0,0.0,0.0,0.0,0.0,0.0,0.0,0.0,0.0,0.0,0.0,0.0,0.0,0.0,0.0,0.0,0.0,0.0,0.0,0.0,0.0,-2.7138,-2.7115,-2.6801,-2.613,-2.589,-2.5704,-2.5573,-2.5182,-2.4766,-2.449,-2.4418,-2.4345,-2.42,-2.42,-2.42,-2.42,-2.3593,-2.3298,-2.3224,-2.2371,-2.2069,-2.222,-2.2285,-2.236,-2.2521,-2.2883,-2.3032,-2.3032,-2.3032,-2.3095,-2.339,-2.3891,-2.4264,-2.4492,-2.5087,-2.5312,-2.5312,-2.5312,-2.5535,-2.5758,-2.584,-2.6371,-2.6905,-2.6973,-2.7255,-2.7523,-2.7523,-2.7523,-2.7523,-2.7523,-2.7523,-2.7523,-2.7523,-2.7523,-2.7523,-2.7523,-2.7523,-2.7656,-2.8157,-2.8991,-2.972,-3.019,-3.0549,-3.0971,-3.1453,-3.1029,-3.097,-3.1539,-3.1597,-3.164,-3.1697,-3.1981,-3.2094,-3.2094,-3.1868,-3.1868,-3.2094,-3.2094,-3.2191,-3.2398,-3.2287,-3.2247,0.0,0.0,0.0,0.0,0.0,0.0,0.0,0.0,0.0,0.0,0.0,0.0,0.0,0.0,0.0,0.0,0.0,0.0,0.0,0.0,0.0,0.0,0.0,0.0,0.0,0.0,0.0,0.0,0.0,0.0,-2.6341,-2.6341,-2.6118,-2.5612,-2.5651,-2.5404,-2.4837,-2.4657,-2.449,-2.449,-2.4345,-2.42,-2.42,-2.42,-2.42,-2.42,-2.4127,-2.4116,-2.4043,-2.3043,-2.2894,-2.3139,-2.2349,-2.2285,-2.2692,-2.2894,-2.3032,-2.3032,-2.3032,-2.3463,-2.4047,-2.412,-2.4636,-2.5241,-2.5312,-2.5312,-2.5312,-2.5312,-2.5312,-2.5382,-2.5828,-2.6164,-2.6552,-2.6905,-2.7255,-2.7523,-2.7523,-2.7523,-2.7523,-2.7523,-2.7523,-2.7523,-2.7523,-2.7523,-2.7523,-2.7523,-2.7523,-2.7523,-2.7523,-2.8675,-2.9484,-2.958,-3.0673,-3.1453,-3.1482,-3.1467,-3.1539,-3.1784,-3.1883,-3.2038,-3.2135,-3.2287,-3.2398,-3.2398,-3.2342,-3.2342,-3.2398,-3.2398,-3.2398,-3.2398,-3.2398,-3.2398,0.0,0.0,0.0,0.0,0.0,0.0,0.0,0.0,0.0,0.0,0.0,0.0,0.0,0.0,0.0,0.0,0.0,0.0,0.0,0.0,0.0,0.0,0.0,0.0,0.0,0.0,0.0,0.0,0.0,0.0,-2.5686,-2.5674,-2.5366,-2.4707,-2.4842,-2.4833,-2.4646,-2.4574,-2.4418,-2.4345,-2.42,-2.42,-2.42,-2.42,-2.42,-2.42,-2.42,-2.42,-2.42,-2.3813,-2.374,-2.3897,-2.3655,-2.3801,-2.4043,-2.4238,-2.4432,-2.4504,-2.4504,-2.4647,-2.4862,-2.4862,-2.5087,-2.5312,-2.5312,-2.5312,-2.5312,-2.5312,-2.5652,-2.607,-2.6151,-2.6633,-2.7108,-2.7323,-2.739,-2.7523,-2.7523,-2.7523,-2.7523,-2.7523,-2.7523,-2.7523,-2.7523,-2.7523,-2.7523,-2.7523,-2.7523,-2.7656,-2.8105,-2.9297,-3.0142,-3.0115,-3.1337,-3.2047,-3.1856,-3.1811,-3.1925,-3.2191,-3.215,-3.2191,-3.2342,-3.2398,-3.2437,-3.2547,-3.2633,-3.2633,-3.2547,-3.2547,-3.2617,-3.2718,-3.2578,-3.2523,-2.098,0.0,0.0,0.0,0.0,0.0,0.0,0.0,0.0,0.0,0.0,0.0,0.0,0.0,0.0,0.0,0.0,0.0,0.0,0.0,0.0,0.0,0.0,0.0,0.0,0.0,0.0,0.0,0.0,0.0,-2.4939,-2.4927,-2.4692,-2.4212,-2.4345,-2.4418,-2.4418,-2.4418,-2.4345,-2.42,-2.42,-2.42,-2.42,-2.42,-2.42,-2.42,-2.42,-2.42,-2.42,-2.42,-2.4376,-2.4599,-2.4818,-2.5081,-2.5453,-2.5648,-2.5673,-2.5576,-2.5576,-2.5456,-2.5312,-2.5312,-2.5312,-2.5312,-2.5312,-2.5312,-2.5312,-2.5382,-2.5804,-2.622,-2.6289,-2.6837,-2.739,-2.7456,-2.7523,-2.7523,-2.7523,-2.7523,-2.7523,-2.7523,-2.7523,-2.7523,-2.7523,-2.7523,-2.759,-2.7776,-2.7842,-2.8091,-2.8776,-2.9806,-3.053,-3.0568,-3.1605,-3.2193,-3.2042,-3.1996,-3.2094,-3.2342,-3.2287,-3.2358,-3.2453,-3.2523,-3.2633,-3.2687,-3.2827,-3.2827,-3.2602,-3.2672,-3.2757,-3.2897,-3.2773,-3.2703,0.0,0.0,0.0,0.0,0.0,0.0,0.0,0.0,0.0,0.0,0.0,0.0,0.0,0.0,0.0,0.0,0.0,0.0,0.0,0.0,0.0,0.0,0.0,0.0,0.0,0.0,0.0,0.0,0.0,-2.42,-2.42,-2.42,-2.42,-2.42,-2.42,-2.42,-2.42,-2.42,-2.42,-2.42,-2.42,-2.42,-2.42,-2.42,-2.42,-2.42,-2.42,-2.42,-2.42,-2.42,-2.4634,-2.5308,-2.548,-2.6009,-2.6598,-2.6772,-2.6586,-2.6117,-2.6105,-2.5757,-2.5336,-2.5312,-2.5312,-2.5312,-2.5312,-2.5312,-2.5312,-2.5535,-2.5758,-2.5968,-2.6164,-2.6633,-2.7108,-2.739,-2.7523,-2.7523,-2.7523,-2.7523,-2.7523,-2.7523,-2.7523,-2.7523,-2.7523,-2.7523,-2.7789,-2.8417,-2.8546,-2.8776,-2.9442,-3.0072,-3.0584,-3.0777,-3.1409,-3.1841,-3.1996,-3.1996,-3.2038,-3.2191,-3.2342,-3.2453,-3.2594,-3.2773,-3.2897,-3.2897,-3.2897,-3.2773,-3.2578,-3.2773,-3.2897,-3.2897,-3.2897,-3.2897,-1.9773,0.0,0.0,0.0,0.0,0.0,0.0,0.0,0.0,0.0,0.0,0.0,0.0,0.0,0.0,0.0,0.0,0.0,0.0,0.0,0.0,0.0,0.0,0.0,0.0,0.0,0.0,0.0,-2.4269,-2.42,-2.42,-2.42,-2.42,-2.42,-2.42,-2.42,-2.42,-2.42,-2.42,-2.42,-2.42,-2.42,-2.42,-2.42,-2.42,-2.42,-2.42,-2.42,-2.42,-2.42,-2.4353,-2.4588,-2.5191,-2.5573,-2.5961,-2.6491,-2.6677,-2.6647,-2.6238,-2.5997,-2.5817,-2.5432,-2.5312,-2.5312,-2.5312,-2.5312,-2.5312,-2.5382,-2.5804,-2.6427,-2.6985,-2.7255,-2.739,-2.7469,-2.7523,-2.7523,-2.7523,-2.7523,-2.7523,-2.7523,-2.7523,-2.7523,-2.7523,-2.7908,-2.8287,-2.8481,-2.8903,-2.9268,-2.9504,-3.0072,-3.0524,-3.0584,-3.1161,-3.1769,-3.2079,-3.2135,-3.2318,-3.2664,-3.2718,-3.2773,-3.2843,-3.2843,-3.2843,-3.2703,-3.2648,-3.2594,-3.2453,-3.2594,-3.2648,-3.2523,-3.2523,-3.2523,0.0,0.0,0.0,0.0,0.0,0.0,0.0,0.0,0.0,0.0,0.0,0.0,0.0,0.0,0.0,0.0,0.0,0.0,0.0,0.0,0.0,0.0,0.0,0.0,0.0,0.0,0.0,0.0,-2.4345,-2.4345,-2.42,-2.42,-2.42,-2.42,-2.42,-2.42,-2.42,-2.42,-2.42,-2.42,-2.42,-2.42,-2.42,-2.42,-2.42,-2.42,-2.42,-2.42,-2.42,-2.42,-2.4388,-2.4692,-2.5215,-2.5695,-2.6056,-2.659,-2.6629,-2.6538,-2.6214,-2.6093,-2.6009,-2.548,-2.5456,-2.5588,-2.5372,-2.5312,-2.5312,-2.5382,-2.5943,-2.6701,-2.7323,-2.7523,-2.7523,-2.7523,-2.7523,-2.7523,-2.7523,-2.7469,-2.7403,-2.7456,-2.7523,-2.759,-2.7842,-2.8222,-2.8661,-2.9219,-2.9642,-3.0011,-3.0329,-3.0703,-3.0955,-3.1131,-3.1452,-3.1868,-3.2302,-3.2358,-3.2484,-3.2773,-3.2773,-3.2773,-3.2703,-3.2703,-3.2648,-3.2523,-3.2523,-3.2453,-3.2398,-3.2453,-3.2523,-3.2453,-3.2453,-3.2523,-2.1152,-2.144,0.0,0.0,0.0,0.0,-2.4713,-2.4446,0.0,0.0,0.0,0.0,0.0,0.0,0.0,0.0,0.0,0.0,0.0,0.0,0.0,0.0,0.0,0.0,0.0,0.0,-2.5765,-2.4615,-2.4763,-2.4728,-2.4281,-2.4223,-2.42,-2.42,-2.42,-2.42,-2.42,-2.42,-2.42,-2.42,-2.42,-2.42,-2.42,-2.42,-2.42,-2.42,-2.42,-2.42,-2.42,-2.42,-2.4611,-2.5175,-2.5468,-2.5985,-2.6538,-2.6836,-2.6659,-2.6274,-2.6214,-2.6226,-2.619,-2.5661,-2.5805,-2.6105,-2.5624,-2.5492,-2.5551,-2.5703,-2.6213,-2.685,-2.7403,-2.7523,-2.7523,-2.7523,-2.7523,-2.7523,-2.759,-2.7469,-2.7403,-2.7643,-2.7656,-2.7776,-2.8352,-2.8597,-2.9093,-3.0329,-3.0584,-3.0837,-3.1409,-3.1539,-3.1655,-3.194,-3.1996,-3.215,-3.2484,-3.2539,-3.2578,-3.2578,-3.2578,-3.2523,-3.2398,-3.2453,-3.2453,-3.2398,-3.2398,-3.2453,-3.2453,-3.2398,-3.2453,-3.2578,-3.2578,-3.2648,-2.343,-2.3492,-2.3687,-2.2394,0.0,0.0,0.0,-2.1995,0.0,0.0,0.0,0.0,0.0,0.0,0.0,0.0,0.0,0.0,0.0,0.0,0.0,0.0,0.0,0.0,0.0,0.0,-2.7152,-2.6497,-2.5846,-2.523,-2.4774,-2.4407,-2.42,-2.42,-2.42,-2.42,-2.42,-2.42,-2.42,-2.42,-2.42,-2.42,-2.42,-2.42,-2.42,-2.42,-2.42,-2.42,-2.42,-2.42,-2.4258,-2.4457,-2.5327,-2.5698,-2.5902,-2.6629,-2.714,-2.7344,-2.6911,-2.7055,-2.732,-2.6791,-2.6683,-2.6755,-2.6647,-2.6622,-2.66,-2.6863,-2.6905,-2.704,-2.739,-2.7523,-2.7523,-2.7523,-2.7523,-2.7656,-2.8157,-2.7776,-2.7643,-2.8889,-2.8597,-2.8157,-2.8287,-2.9345,-3.0208,-3.045,-3.097,-3.1351,-3.1467,-3.167,-3.1727,-3.1597,-3.1826,-3.2053,-3.2094,-3.2206,-3.2302,-3.2453,-3.2523,-3.2523,-3.2398,-3.2648,-3.2648,-3.2398,-3.2523,-3.2648,-3.2773,-3.2523,-3.2398,-3.2453,-3.2453,-3.2453,-2.5071,-2.4728,-2.4715,-2.4823,0.0,0.0,0.0,0.0,0.0,0.0,0.0,0.0,0.0,0.0,0.0,0.0,0.0,0.0,0.0,0.0,0.0,0.0,0.0,0.0,0.0,0.0,-2.7998,-2.731,-2.6423,-2.5831,-2.5605,-2.5148,-2.4832,-2.4568,-2.4556,-2.4441,-2.42,-2.42,-2.42,-2.42,-2.42,-2.42,-2.42,-2.42,-2.42,-2.42,-2.42,-2.42,-2.42,-2.42,-2.42,-2.4296,-2.4926,-2.5342,-2.5663,-2.6282,-2.6863,-2.7284,-2.7031,-2.7284,-2.7633,-2.7103,-2.7115,-2.7284,-2.7007,-2.6817,-2.6858,-2.7062,-2.7054,-2.7108,-2.739,-2.7523,-2.7469,-2.7403,-2.7723,-2.7973,-2.7776,-2.8039,-2.8498,-2.9145,-2.9287,-2.9345,-2.9407,-3.0025,-3.0584,-3.097,-3.1278,-3.1482,-3.1482,-3.1597,-3.1655,-3.1769,-3.1883,-3.2094,-3.2262,-3.2373,-3.2413,-3.2523,-3.2578,-3.2523,-3.2398,-3.2578,-3.2594,-3.2523,-3.2648,-3.2773,-3.2773,-3.2578,-3.2523,-3.2523,-3.2453,-3.2398,0.0,0.0,0.0,0.0,0.0,-2.4413,0.0,0.0,0.0,0.0,0.0,0.0,0.0,0.0,0.0,0.0,0.0,0.0,0.0,0.0,0.0,0.0,0.0,0.0,0.0,0.0,-2.8288,-2.773,-2.6767,-2.6245,-2.6294,-2.6012,-2.5585,-2.5084,-2.5061,-2.4832,-2.4338,-2.4326,-2.4292,-2.42,-2.42,-2.42,-2.42,-2.42,-2.42,-2.42,-2.42,-2.42,-2.42,-2.4292,-2.4338,-2.4422,-2.4798,-2.5201,-2.5651,-2.6079,-2.661,-2.7079,-2.7079,-2.7428,-2.7801,-2.738,-2.7524,-2.7789,-2.7368,-2.7089,-2.6974,-2.7145,-2.7139,-2.7175,-2.739,-2.7469,-2.7496,-2.7654,-2.8133,-2.8541,-2.8146,-2.8937,-2.972,-2.9852,-3.0235,-3.0502,-3.0623,-3.0657,-3.0896,-3.1409,-3.1482,-3.1539,-3.1539,-3.1597,-3.1712,-3.1996,-3.2053,-3.2206,-3.2484,-3.2523,-3.2578,-3.2578,-3.2578,-3.2523,-3.2398,-3.2398,-3.2523,-3.2648,-3.2843,-3.2843,-3.2648,-3.2648,-3.2578,-3.2578,-3.2453,-3.2398,0.0,0.0,0.0,0.0,-2.6979,0.0,0.0,0.0,0.0,0.0,0.0,0.0,0.0,0.0,0.0,0.0,0.0,0.0,0.0,0.0,0.0,0.0,0.0,0.0,0.0,0.0,0.0,-2.816,-2.6821,-2.607,-2.6247,-2.623,-2.6053,-2.5624,-2.5624,-2.5371,-2.4832,-2.4832,-2.4613,-2.42,-2.42,-2.42,-2.42,-2.42,-2.42,-2.42,-2.42,-2.42,-2.4235,-2.4659,-2.4918,-2.5164,-2.5397,-2.5518,-2.5698,-2.6521,-2.7176,-2.7633,-2.7633,-2.7981,-2.8414,-2.8354,-2.8366,-2.8414,-2.8354,-2.8069,-2.7886,-2.7896,-2.7672,-2.739,-2.7335,-2.7335,-2.7587,-2.8719,-2.9013,-2.9627,-3.149,-3.1409,-3.1358,-3.2765,-3.1973,-3.1108,-3.1123,-3.1263,-3.1409,-3.1482,-3.1482,-3.1539,-3.1727,-3.1883,-3.194,-3.1996,-3.2191,-3.2342,-3.2247,-3.2342,-3.2398,-3.2398,-3.2398,-3.2398,-3.2398,-3.2523,-3.2648,-3.2843,-3.2897,-3.2897,-3.2843,-3.2703,-3.2523,-3.2398,-3.2398,-3.2398,0.0,0.0,0.0,0.0,0.0,0.0,-2.4551,0.0,-2.2812,0.0,0.0,0.0,0.0,0.0,0.0,0.0,0.0,0.0,0.0,0.0,0.0,0.0,0.0,0.0,0.0,0.0,0.0,0.0,0.0,-2.6218,-2.6196,-2.6512,-2.6391,-2.5716,-2.6003,-2.5899,-2.5383,-2.5371,-2.5119,-2.4613,-2.4613,-2.4464,-2.42,-2.42,-2.42,-2.42,-2.42,-2.42,-2.4212,-2.4565,-2.473,-2.4947,-2.584,-2.6328,-2.67,-2.7155,-2.7717,-2.8174,-2.8174,-2.8318,-2.851,-2.851,-2.851,-2.8469,-2.8292,-2.8139,-2.7934,-2.7787,-2.7562,-2.7469,-2.7908,-2.7908,-2.8092,-2.9026,-2.9581,-3.0031,-3.0411,-3.0936,-3.1547,-3.2035,-3.1718,-3.153,-3.1898,-3.1708,-3.1539,-3.167,-3.167,-3.1712,-3.1898,-3.194,-3.2053,-3.2094,-3.2247,-3.2287,-3.2287,-3.2342,-3.2398,-3.2398,-3.2453,-3.2453,-3.2398,-3.2648,-3.2773,-3.2718,-3.2843,-3.2843,-3.2718,-3.2648,-3.2523,-3.2398,-3.2398,-3.2398,-3.154,0.0,0.0,0.0,0.0,0.0,0.0,0.0,0.0,0.0,0.0,0.0,0.0,0.0,0.0,0.0,0.0,0.0,0.0,0.0,0.0,0.0,0.0,0.0,0.0,0.0,0.0,0.0,0.0,0.0,-2.5877,-2.6629,-2.6771,-2.6077,-2.6578,-2.6597,-2.6233,-2.5993,-2.5731,-2.5273,-2.5061,-2.4728,-2.4395,-2.4258,-2.42,-2.42,-2.42,-2.42,-2.4212,-2.4484,-2.4699,-2.495,-2.6193,-2.7061,-2.7496,-2.7807,-2.8186,-2.851,-2.851,-2.851,-2.851,-2.851,-2.8493,-2.8373,-2.8101,-2.7938,-2.7826,-2.7777,-2.7708,-2.7789,-2.8546,-2.8675,-2.8766,-2.9617,-3.0268,-3.0618,-3.0296,-3.1168,-3.202,-3.186,-3.1781,-3.1958,-3.2481,-3.2032,-3.1597,-3.1784,-3.1841,-3.1898,-3.2038,-3.2038,-3.2094,-3.2247,-3.2247,-3.2287,-3.2398,-3.2398,-3.2398,-3.2398,-3.2523,-3.2523,-3.2453,-3.2703,-3.2773,-3.2594,-3.2718,-3.2718,-3.2523,-3.2523,-3.2523,-3.2398,-3.2398,-3.2398,0.0,0.0,0.0,-2.8724,0.0,0.0,0.0,0.0,-2.5531,0.0,0.0,0.0,0.0,0.0,0.0,0.0,0.0,0.0,0.0,0.0,0.0,0.0,0.0,0.0,0.0,0.0,0.0,0.0,0.0,0.0,-2.5264,-2.651,-2.716,-2.7075,-2.7404,-2.7616,-2.7666,-2.6823,-2.6375,-2.6215,-2.5347,-2.49,-2.4877,-2.4407,-2.42,-2.42,-2.42,-2.42,-2.4235,-2.4705,-2.5136,-2.5648,-2.6647,-2.7304,-2.7777,-2.8294,-2.8498,-2.851,-2.851,-2.851,-2.851,-2.851,-2.8397,-2.8268,-2.8065,-2.7767,-2.7634,-2.832,-2.8385,-2.8417,-2.9107,-2.9247,-2.9561,-3.0864,-3.1195,-3.1569,-3.3015,-3.3363,-3.344,-3.3455,-3.2931,-3.2541,-3.266,-3.2206,-3.1799,-3.1799,-3.1883,-3.2038,-3.2206,-3.2191,-3.2247,-3.2398,-3.2398,-3.2398,-3.2398,-3.2398,-3.2398,-3.2398,-3.2398,-3.2453,-3.2578,-3.2594,-3.2594,-3.2594,-3.2594,-3.2523,-3.2398,-3.2398,-3.2398,-3.2398,-3.2398,-3.2398,0.0,0.0,-3.2745,-2.974,0.0,0.0,0.0,0.0,0.0,0.0,0.0,0.0,0.0,0.0,0.0,0.0,0.0,0.0,0.0,0.0,0.0,0.0,0.0,0.0,0.0,0.0,0.0,0.0,0.0,0.0,0.0,-2.6458,-2.71,-2.6706,-2.732,-2.7712,-2.8058,-2.7472,-2.709,-2.6821,-2.6387,-2.5884,-2.5417,-2.4912,-2.4671,-2.4659,-2.4326,-2.42,-2.4235,-2.5036,-2.548,-2.5745,-2.7002,-2.7562,-2.7789,-2.8318,-2.851,-2.851,-2.851,-2.851,-2.851,-2.851,-2.8294,-2.8157,-2.8571,-2.844,-2.8323,-2.8964,-2.9054,-2.9107,-2.9917,-3.004,-3.0205,-3.116,-3.1397,-3.1531,-3.2079,-3.2198,-3.2198,-3.2198,-3.2092,-3.2,-3.1912,-3.179,-3.1811,-3.2038,-3.2094,-3.2191,-3.2302,-3.2342,-3.2342,-3.2398,-3.2398,-3.2398,-3.2398,-3.2398,-3.2398,-3.2398,-3.2453,-3.2523,-3.2453,-3.2523,-3.2578,-3.2453,-3.2453,-3.2453,-3.2398,-3.2749,-3.2949,-3.2949,-3.3319,-3.3266,-3.3529,-3.347,0.0,-3.0553,-2.9653,0.0,-2.6112,0.0,0.0,0.0,0.0,0.0,0.0,0.0,0.0,0.0,0.0,0.0,0.0,0.0,0.0,0.0,0.0,0.0,0.0,0.0,-2.2944,-2.3661,-2.3715,0.0,0.0,0.0,-2.6974,-2.6801,-2.7435,-2.8094,-2.8582,-2.7953,-2.7612,-2.7673,-2.6983,-2.6482,-2.6065,-2.5424,-2.5199,-2.5164,-2.4671,-2.4453,-2.4476,-2.5191,-2.5565,-2.5734,-2.7079,-2.7639,-2.7789,-2.8318,-2.839,-2.8234,-2.8234,-2.8234,-2.8276,-2.8448,-2.8422,-2.8461,-2.9,-2.8985,-2.8928,-2.9617,-2.9718,-2.9842,-3.0658,-3.0777,-3.0837,-3.1409,-3.1482,-3.1482,-3.1482,-3.1482,-3.1482,-3.1482,-3.1597,-3.1597,-3.1509,-3.1625,-3.1796,-3.2094,-3.215,-3.2191,-3.2398,-3.2398,-3.2398,-3.2398,-3.2398,-3.2398,-3.2398,-3.2398,-3.2398,-3.2398,-3.2453,-3.2523,-3.2398,-3.2453,-3.2523,-3.2398,-3.2398,-3.2398,-3.2398,-3.2949,-3.3093,-3.2949,-3.3869,-3.389]}]]